[[{"header":{"parameterUnit":"m.s-1","parameterCategory":1,"la1":31.0,"la2":29.5877,"lo1":-88.7671,"lo2":-86.6584,"dy":0.0162,"dx":0.0185,"nx":115,"ny":88,"refTime":"2025-01-22T06:00:00:Z","depth":0,"parameterNumber":2,"parameterNumberName":"U-component_of_WINDS"},"data":[0.0,0.0,0.0,0.0,0.0,0.0,0.0,0.0,0.0,0.0,0.0,0.0,0.0,0.0,0.0,0.0,0.0,0.0,0.0,0.0,0.0,0.0,0.0,0.0,0.0,0.0,0.0,0.0,0.0,0.0,0.0,0.0,0.0,0.0,0.0,0.0,0.0,0.0,0.0,0.0,0.0,0.0,0.0,0.0,0.0,0.0,0.0,0.0,0.0,0.0,0.0,0.0,0.0,0.0,0.0,0.0,0.0,0.0,0.0,0.0,0.0,0.0,0.0,0.0,0.0,0.0,0.0,0.0,0.0,0.0,0.0,0.0,0.0,0.0,0.0,0.0,0.0,0.0,0.0,0.0,0.0,0.0,0.0,0.0,0.0,0.0,0.0,0.0,0.0,0.0,0.0,0.0,0.0,0.0,0.0,0.0,0.0,0.0,0.0,0.0,0.0,0.0,0.0,0.0,0.0,0.0,0.0,0.0,0.0,0.0,0.0,0.0,0.0,0.0,0.0,0.0,0.0,0.0,0.0,0.0,0.0,0.0,0.0,0.0,0.0,0.0,0.0,0.0,0.0,0.0,0.0,0.0,0.0,0.0,0.0,0.0,0.0,0.0,0.0,0.0,0.0,0.0,0.0,0.0,0.0,0.0,0.0,0.0,0.0,0.0,0.0,0.0,0.0,0.0,0.0,0.0,0.0,0.0,0.0,0.0,0.0,0.0,0.0,0.0,0.0,0.0,0.0,0.0,0.0,0.0,0.0,0.0,0.0,0.0,0.0,0.0,0.0,0.0,0.0,0.0,0.0,0.0,0.0,0.0,0.0,0.0,0.0,0.0,0.0,0.0,0.0,0.0,0.0,0.0,0.0,0.0,0.0,0.0,0.0,0.0,0.0,0.0,0.0,0.0,0.0,0.0,0.0,0.0,0.0,0.0,0.0,0.0,0.0,0.0,0.0,0.0,0.0,0.0,0.0,0.0,0.0,0.0,0.0,0.0,0.0,0.0,0.0,0.0,0.0,0.0,0.0,0.0,0.0,0.0,0.0,0.0,0.0,0.0,0.0,0.0,0.0,0.0,0.0,0.0,0.0,0.0,0.0,0.0,0.0,0.0,0.0,0.0,0.0,0.0,0.0,0.0,0.0,0.0,0.0,0.0,0.0,0.0,0.0,0.0,0.0,0.0,0.0,0.0,0.0,0.0,0.0,0.0,0.0,0.0,0.0,0.0,0.0,0.0,0.0,0.0,0.0,0.0,0.0,0.0,0.0,0.0,0.0,0.0,0.0,0.0,0.0,0.0,0.0,0.0,0.0,0.0,0.0,0.0,0.0,0.0,0.0,0.0,0.0,0.0,0.0,0.0,0.0,0.0,0.0,0.0,0.0,0.0,0.0,0.0,0.0,0.0,0.0,0.0,0.0,0.0,0.0,0.0,0.0,0.0,0.0,0.0,0.0,0.0,0.0,0.0,0.0,0.0,0.0,0.0,0.0,0.0,0.0,0.0,0.0,0.0,0.0,0.0,0.0,0.0,0.0,0.0,0.0,0.0,0.0,0.0,0.0,0.0,0.0,0.0,0.0,0.0,0.0,0.0,0.0,0.0,0.0,0.0,0.0,0.0,0.0,0.0,0.0,0.0,0.0,0.0,0.0,0.0,0.0,0.0,0.0,0.0,0.0,0.0,0.0,0.0,0.0,0.0,0.0,0.0,0.0,0.0,0.0,0.0,0.0,0.0,0.0,0.0,0.0,0.0,0.0,0.0,0.0,0.0,0.0,0.0,0.0,0.0,0.0,0.0,0.0,0.0,0.0,0.0,0.0,0.0,0.0,0.0,0.0,0.0,0.0,0.0,0.0,0.0,0.0,0.0,0.0,0.0,0.0,0.0,0.0,0.0,0.0,0.0,0.0,0.0,0.0,0.0,0.0,0.0,0.0,0.0,0.0,0.0,0.0,0.0,0.0,0.0,0.0,0.0,0.0,0.0,0.0,0.0,0.0,0.0,0.0,0.0,0.0,0.0,0.0,0.0,0.0,0.0,0.0,0.0,0.0,0.0,0.0,0.0,0.0,0.0,0.0,0.0,0.0,0.0,0.0,0.0,0.0,0.0,0.0,0.0,0.0,0.0,0.0,0.0,0.0,0.0,0.0,0.0,0.0,0.0,0.0,0.0,0.0,0.0,0.0,0.0,0.0,0.0,0.0,0.0,0.0,0.0,0.0,0.0,0.0,0.0,0.0,0.0,0.0,0.0,0.0,0.0,0.0,0.0,0.0,0.0,0.0,0.0,0.0,0.0,0.0,0.0,0.0,0.0,0.0,0.0,0.0,0.0,0.0,0.0,0.0,0.0,0.0,0.0,0.0,0.0,0.0,0.0,0.0,0.0,0.0,0.0,0.0,0.0,0.0,0.0,0.0,0.0,0.0,0.0,0.0,0.0,0.0,0.0,0.0,0.0,0.0,0.0,0.0,0.0,0.0,0.0,0.0,0.0,0.0,0.0,0.0,0.0,0.0,0.0,0.0,0.0,0.0,0.0,0.0,0.0,0.0,0.0,0.0,0.0,0.0,0.0,0.0,0.0,0.0,0.0,0.0,0.0,0.0,0.0,0.0,0.0,0.0,0.0,0.0,0.0,0.0,0.0,0.0,0.0,0.0,0.0,0.0,0.0,0.0,0.0,0.0,0.0,0.0,0.0,0.0,0.0,0.0,0.0,0.0,0.0,0.0,0.0,0.0,0.0,0.0,0.0,0.0,0.0,0.0,0.0,0.0,0.0,0.0,0.0,0.0,0.0,0.0,0.0,0.0,0.0,0.0,0.0,0.0,0.0,0.0,0.0,0.0,0.0,0.0,0.0,0.0,0.0,0.0,0.0,0.0,0.0,0.0,0.0,0.0,0.0,0.0,0.0,0.0,0.0,0.0,0.0,0.0,0.0,0.0,0.0,0.0,0.0,0.0,0.0,0.0,0.0,0.0,0.0,0.0,0.0,0.0,0.0,0.0,0.0,0.0,0.0,0.0,0.0,0.0,0.0,0.0,0.0,0.0,0.0,0.0,0.0,0.0,0.0,0.0,0.0,0.0,0.0,0.0,0.0,0.0,0.0,0.0,0.0,0.0,0.0,0.0,0.0,0.0,0.0,0.0,0.0,0.0,0.0,0.0,0.0,0.0,0.0,0.0,0.0,0.0,0.0,0.0,0.0,0.0,0.0,0.0,0.0,0.0,0.0,0.0,0.0,0.0,0.0,0.0,0.0,0.0,0.0,0.0,0.0,0.0,0.0,0.0,0.0,0.0,0.0,0.0,0.0,0.0,0.0,0.0,0.0,0.0,0.0,0.0,0.0,0.0,0.0,0.0,0.0,0.0,0.0,0.0,0.0,0.0,0.0,0.0,0.0,0.0,0.0,0.0,0.0,0.0,0.0,0.0,0.0,0.0,0.0,0.0,0.0,0.0,0.0,0.0,0.0,0.0,0.0,0.0,0.0,0.0,0.0,0.0,0.0,0.0,0.0,0.0,0.0,0.0,0.0,0.0,0.0,0.0,0.0,0.0,0.0,0.0,0.0,0.0,0.0,0.0,0.0,0.0,0.0,0.0,0.0,0.0,0.0,0.0,0.0,0.0,0.0,0.0,0.0,0.0,0.0,0.0,0.0,0.0,0.0,0.0,0.0,0.0,0.0,0.0,0.0,0.0,0.0,0.0,0.0,0.0,0.0,0.0,0.0,0.0,0.0,0.0,0.0,0.0,0.0,0.0,0.0,0.0,0.0,0.0,0.0,0.0,0.0,0.0,0.0,0.0,0.0,0.0,0.0,0.0,0.0,0.0,0.0,0.0,0.0,0.0,0.0,0.0,0.0,0.0,0.0,0.0,0.0,0.0,0.0,0.0,0.0,0.0,0.0,0.0,0.0,0.0,0.0,0.0,0.0,0.0,0.0,0.0,0.0,0.0,0.0,0.0,0.0,0.0,0.0,0.0,0.0,0.0,0.0,0.0,0.0,0.0,0.0,0.0,0.0,0.0,0.0,0.0,0.0,0.0,0.0,0.0,0.0,0.0,0.0,0.0,0.0,0.0,0.0,0.0,0.0,0.0,0.0,0.0,0.0,0.0,0.0,0.0,0.0,0.0,0.0,0.0,0.0,0.0,0.0,0.0,0.0,0.0,0.0,0.0,0.0,0.0,0.0,0.0,0.0,0.0,0.0,0.0,0.0,0.0,0.0,0.0,0.0,0.0,0.0,0.0,0.0,0.0,0.0,0.0,0.0,0.0,0.0,0.0,0.0,0.0,0.0,-2.7878,0.0,0.0,0.0,0.0,0.0,0.0,0.0,0.0,0.0,0.0,0.0,0.0,0.0,0.0,0.0,0.0,0.0,0.0,0.0,0.0,0.0,0.0,0.0,0.0,0.0,0.0,0.0,0.0,0.0,0.0,0.0,0.0,0.0,0.0,0.0,0.0,0.0,0.0,0.0,0.0,0.0,0.0,0.0,0.0,0.0,0.0,0.0,0.0,0.0,0.0,0.0,0.0,0.0,0.0,0.0,0.0,0.0,0.0,0.0,0.0,0.0,0.0,0.0,0.0,0.0,0.0,0.0,0.0,0.0,0.0,0.0,0.0,0.0,0.0,0.0,0.0,0.0,0.0,0.0,0.0,0.0,0.0,0.0,0.0,0.0,0.0,0.0,0.0,0.0,0.0,0.0,0.0,0.0,0.0,0.0,0.0,0.0,0.0,0.0,0.0,0.0,0.0,0.0,0.0,0.0,0.0,0.0,0.0,0.0,0.0,-3.2081,-3.1414,-3.1274,-3.0246,-2.8168,0.0,0.0,0.0,0.0,0.0,0.0,0.0,0.0,0.0,0.0,0.0,0.0,0.0,0.0,0.0,0.0,0.0,0.0,0.0,0.0,0.0,0.0,0.0,0.0,0.0,0.0,0.0,0.0,0.0,0.0,0.0,0.0,0.0,0.0,0.0,0.0,0.0,0.0,0.0,0.0,0.0,0.0,0.0,0.0,0.0,0.0,0.0,0.0,0.0,0.0,0.0,0.0,0.0,0.0,0.0,0.0,0.0,0.0,0.0,0.0,0.0,0.0,0.0,0.0,0.0,0.0,0.0,0.0,0.0,0.0,0.0,0.0,0.0,0.0,0.0,0.0,0.0,0.0,0.0,0.0,0.0,0.0,0.0,0.0,0.0,0.0,0.0,0.0,0.0,0.0,0.0,0.0,0.0,0.0,0.0,0.0,0.0,0.0,0.0,0.0,0.0,0.0,0.0,0.0,0.0,0.0,0.0,0.0,0.0,0.0,0.0,0.0,-3.1665,-3.0492,-2.7911,0.0,0.0,0.0,0.0,0.0,0.0,0.0,0.0,0.0,0.0,0.0,0.0,0.0,0.0,0.0,0.0,0.0,0.0,0.0,0.0,0.0,0.0,0.0,0.0,0.0,0.0,0.0,0.0,0.0,0.0,0.0,0.0,0.0,0.0,0.0,0.0,0.0,0.0,0.0,0.0,0.0,0.0,0.0,0.0,0.0,0.0,0.0,0.0,0.0,0.0,0.0,0.0,0.0,0.0,0.0,0.0,0.0,0.0,0.0,0.0,0.0,0.0,0.0,0.0,0.0,0.0,0.0,0.0,0.0,0.0,0.0,0.0,0.0,0.0,0.0,0.0,0.0,0.0,0.0,0.0,0.0,0.0,0.0,0.0,0.0,0.0,0.0,0.0,0.0,0.0,0.0,0.0,0.0,0.0,0.0,0.0,0.0,0.0,0.0,0.0,0.0,0.0,0.0,0.0,0.0,0.0,0.0,0.0,0.0,0.0,-3.3079,-3.2423,-3.2753,0.0,-2.6448,0.0,0.0,0.0,0.0,0.0,0.0,0.0,0.0,0.0,0.0,0.0,0.0,0.0,0.0,0.0,0.0,0.0,0.0,0.0,0.0,0.0,0.0,0.0,0.0,0.0,0.0,0.0,0.0,0.0,0.0,0.0,0.0,0.0,0.0,0.0,0.0,0.0,0.0,0.0,0.0,0.0,0.0,0.0,0.0,0.0,0.0,0.0,0.0,0.0,0.0,0.0,0.0,0.0,0.0,0.0,0.0,0.0,0.0,0.0,0.0,0.0,0.0,0.0,0.0,0.0,0.0,0.0,0.0,0.0,0.0,0.0,0.0,0.0,0.0,0.0,0.0,0.0,0.0,0.0,0.0,0.0,0.0,0.0,0.0,0.0,0.0,0.0,0.0,0.0,0.0,0.0,0.0,0.0,0.0,0.0,0.0,0.0,0.0,0.0,0.0,0.0,0.0,0.0,0.0,0.0,0.0,0.0,0.0,0.0,0.0,0.0,-3.3093,-3.1421,-2.9203,0.0,0.0,0.0,0.0,0.0,0.0,0.0,0.0,0.0,0.0,0.0,0.0,0.0,0.0,0.0,0.0,0.0,0.0,0.0,0.0,0.0,0.0,0.0,0.0,0.0,0.0,0.0,0.0,0.0,0.0,0.0,0.0,0.0,0.0,0.0,0.0,0.0,0.0,0.0,0.0,0.0,0.0,0.0,0.0,0.0,0.0,0.0,0.0,0.0,0.0,0.0,0.0,0.0,0.0,0.0,0.0,0.0,0.0,0.0,0.0,0.0,0.0,0.0,0.0,0.0,0.0,0.0,0.0,0.0,0.0,0.0,0.0,0.0,0.0,0.0,0.0,0.0,0.0,0.0,0.0,0.0,0.0,0.0,0.0,0.0,0.0,0.0,0.0,0.0,0.0,0.0,0.0,0.0,0.0,0.0,0.0,0.0,0.0,0.0,0.0,0.0,0.0,0.0,0.0,0.0,0.0,0.0,0.0,0.0,0.0,-3.3837,0.0,-3.3369,-3.0796,-2.8526,-2.6786,0.0,0.0,0.0,0.0,0.0,0.0,0.0,0.0,0.0,0.0,0.0,0.0,0.0,0.0,0.0,0.0,0.0,0.0,0.0,0.0,0.0,0.0,0.0,0.0,0.0,0.0,0.0,0.0,0.0,0.0,0.0,0.0,0.0,0.0,0.0,0.0,0.0,0.0,0.0,0.0,0.0,0.0,0.0,0.0,0.0,0.0,0.0,0.0,0.0,0.0,0.0,0.0,0.0,0.0,0.0,0.0,0.0,0.0,0.0,0.0,0.0,0.0,0.0,0.0,0.0,0.0,0.0,0.0,0.0,0.0,0.0,0.0,0.0,0.0,0.0,0.0,0.0,0.0,0.0,0.0,0.0,0.0,0.0,0.0,0.0,0.0,0.0,0.0,0.0,0.0,0.0,0.0,0.0,0.0,0.0,0.0,0.0,0.0,0.0,0.0,0.0,0.0,0.0,0.0,0.0,0.0,0.0,0.0,0.0,-3.3804,-3.3518,-3.347,-3.1811,-2.9665,0.0,0.0,0.0,0.0,0.0,0.0,0.0,0.0,0.0,0.0,0.0,0.0,0.0,0.0,0.0,0.0,0.0,0.0,0.0,0.0,0.0,0.0,0.0,0.0,0.0,0.0,0.0,0.0,0.0,0.0,0.0,0.0,0.0,0.0,0.0,0.0,0.0,0.0,0.0,0.0,0.0,0.0,0.0,0.0,0.0,0.0,0.0,0.0,0.0,0.0,0.0,0.0,0.0,0.0,0.0,0.0,0.0,0.0,0.0,0.0,0.0,0.0,0.0,0.0,0.0,0.0,0.0,0.0,0.0,0.0,0.0,0.0,0.0,0.0,0.0,0.0,0.0,0.0,0.0,0.0,0.0,0.0,0.0,0.0,0.0,0.0,0.0,0.0,0.0,0.0,0.0,0.0,0.0,0.0,0.0,0.0,0.0,0.0,0.0,0.0,0.0,0.0,0.0,0.0,0.0,0.0,0.0,0.0,0.0,-3.3837,-3.3978,-3.3999,-3.3806,-3.1096,-2.8862,0.0,0.0,0.0,0.0,0.0,0.0,0.0,0.0,0.0,0.0,0.0,0.0,0.0,0.0,0.0,0.0,0.0,0.0,0.0,0.0,0.0,0.0,0.0,0.0,0.0,0.0,0.0,0.0,0.0,0.0,0.0,0.0,0.0,0.0,0.0,0.0,0.0,0.0,0.0,0.0,0.0,0.0,0.0,0.0,0.0,0.0,0.0,0.0,0.0,0.0,0.0,0.0,0.0,0.0,0.0,0.0,0.0,0.0,0.0,0.0,0.0,0.0,0.0,0.0,0.0,0.0,0.0,0.0,0.0,0.0,0.0,0.0,0.0,0.0,0.0,0.0,0.0,0.0,0.0,0.0,0.0,0.0,0.0,0.0,0.0,0.0,0.0,0.0,0.0,0.0,0.0,0.0,0.0,0.0,0.0,0.0,0.0,0.0,0.0,0.0,0.0,0.0,0.0,0.0,0.0,0.0,0.0,0.0,0.0,-3.3518,0.0,-3.3955,0.0,-3.1292,-2.9243,0.0,0.0,0.0,0.0,0.0,0.0,0.0,0.0,0.0,0.0,0.0,0.0,0.0,0.0,0.0,0.0,0.0,0.0,0.0,0.0,0.0,0.0,0.0,0.0,0.0,0.0,0.0,0.0,0.0,0.0,0.0,0.0,0.0,0.0,0.0,0.0,0.0,0.0,0.0,0.0,0.0,0.0,0.0,0.0,0.0,0.0,0.0,0.0,0.0,0.0,0.0,0.0,0.0,0.0,0.0,0.0,0.0,0.0,0.0,0.0,0.0,0.0,0.0,0.0,0.0,0.0,0.0,0.0,0.0,0.0,0.0,0.0,0.0,0.0,0.0,0.0,0.0,0.0,0.0,0.0,0.0,0.0,0.0,0.0,0.0,0.0,0.0,0.0,0.0,0.0,0.0,0.0,0.0,0.0,0.0,0.0,0.0,0.0,0.0,0.0,0.0,0.0,0.0,0.0,0.0,0.0,0.0,0.0,-3.3456,-3.3489,-3.3485,-3.3202,-3.2553,-3.2338,-3.0893,0.0,0.0,0.0,0.0,0.0,0.0,0.0,0.0,0.0,0.0,0.0,0.0,0.0,0.0,0.0,0.0,0.0,0.0,0.0,0.0,0.0,0.0,0.0,0.0,0.0,0.0,0.0,0.0,0.0,0.0,0.0,0.0,0.0,0.0,0.0,0.0,0.0,0.0,0.0,0.0,0.0,0.0,0.0,0.0,0.0,0.0,0.0,0.0,0.0,0.0,0.0,0.0,0.0,0.0,0.0,0.0,0.0,0.0,0.0,0.0,0.0,0.0,0.0,0.0,0.0,0.0,0.0,0.0,0.0,0.0,0.0,0.0,0.0,0.0,0.0,0.0,0.0,0.0,0.0,0.0,0.0,0.0,0.0,0.0,0.0,0.0,0.0,0.0,0.0,0.0,0.0,0.0,0.0,0.0,0.0,0.0,0.0,0.0,0.0,0.0,0.0,0.0,0.0,0.0,0.0,0.0,0.0,0.0,0.0,-3.28,-3.313,-3.3152,-3.2817,-3.0779,-2.9194,0.0,0.0,0.0,0.0,0.0,0.0,0.0,0.0,0.0,0.0,0.0,0.0,0.0,0.0,0.0,0.0,0.0,0.0,0.0,0.0,0.0,0.0,0.0,0.0,0.0,0.0,0.0,0.0,0.0,0.0,0.0,0.0,0.0,0.0,0.0,0.0,0.0,0.0,0.0,0.0,0.0,0.0,0.0,0.0,0.0,0.0,0.0,0.0,0.0,0.0,0.0,0.0,0.0,0.0,0.0,0.0,0.0,0.0,0.0,0.0,0.0,0.0,0.0,0.0,0.0,0.0,0.0,0.0,0.0,0.0,0.0,0.0,0.0,0.0,0.0,0.0,0.0,0.0,0.0,0.0,0.0,0.0,0.0,0.0,0.0,0.0,0.0,0.0,0.0,0.0,0.0,0.0,0.0,0.0,0.0,0.0,0.0,0.0,0.0,0.0,0.0,0.0,0.0,0.0,0.0,0.0,0.0,0.0,0.0,-3.2295,-3.28,-3.2919,-3.2618,-3.054,-2.9019,-2.8262,0.0,0.0,0.0,0.0,0.0,0.0,0.0,0.0,0.0,0.0,0.0,0.0,0.0,0.0,0.0,0.0,0.0,0.0,0.0,0.0,0.0,0.0,0.0,0.0,0.0,0.0,0.0,0.0,0.0,0.0,0.0,0.0,0.0,0.0,0.0,0.0,0.0,0.0,0.0,0.0,0.0,0.0,0.0,0.0,0.0,0.0,0.0,0.0,0.0,0.0,0.0,0.0,0.0,0.0,0.0,0.0,0.0,0.0,0.0,0.0,0.0,0.0,0.0,0.0,0.0,0.0,0.0,0.0,0.0,0.0,0.0,0.0,0.0,0.0,0.0,0.0,0.0,0.0,0.0,0.0,0.0,0.0,0.0,0.0,0.0,0.0,0.0,0.0,0.0,0.0,0.0,0.0,0.0,0.0,0.0,0.0,0.0,0.0,0.0,0.0,0.0,0.0,0.0,0.0,0.0,0.0,0.0,0.0,-3.2017,-3.2543,-3.258,-3.1996,-3.1303,-3.015,0.0,0.0,0.0,0.0,0.0,0.0,0.0,0.0,0.0,0.0,0.0,0.0,0.0,0.0,0.0,0.0,0.0,0.0,0.0,0.0,0.0,0.0,0.0,0.0,0.0,0.0,0.0,0.0,0.0,0.0,0.0,0.0,0.0,0.0,0.0,0.0,0.0,0.0,0.0,0.0,0.0,0.0,0.0,0.0,0.0,0.0,0.0,0.0,0.0,0.0,0.0,0.0,0.0,0.0,0.0,0.0,0.0,0.0,0.0,0.0,0.0,0.0,0.0,0.0,0.0,0.0,0.0,0.0,0.0,0.0,0.0,0.0,0.0,0.0,0.0,0.0,0.0,0.0,0.0,0.0,0.0,0.0,0.0,0.0,0.0,0.0,0.0,0.0,0.0,0.0,0.0,0.0,0.0,0.0,0.0,0.0,0.0,0.0,0.0,0.0,0.0,0.0,0.0,0.0,0.0,0.0,0.0,0.0,0.0,-3.2122,-3.2288,-3.2211,-3.1777,-3.0297,-2.9063,0.0,0.0,0.0,0.0,0.0,0.0,0.0,0.0,0.0,0.0,0.0,0.0,0.0,0.0,0.0,0.0,0.0,0.0,0.0,0.0,0.0,0.0,0.0,0.0,0.0,0.0,0.0,0.0,0.0,0.0,0.0,0.0,0.0,0.0,0.0,0.0,0.0,0.0,0.0,0.0,0.0,0.0,0.0,0.0,0.0,0.0,0.0,0.0,0.0,0.0,0.0,0.0,0.0,0.0,0.0,0.0,0.0,0.0,0.0,0.0,0.0,0.0,0.0,0.0,0.0,0.0,0.0,0.0,0.0,0.0,0.0,0.0,0.0,0.0,0.0,0.0,0.0,0.0,0.0,0.0,0.0,0.0,0.0,0.0,0.0,0.0,0.0,0.0,0.0,0.0,0.0,0.0,0.0,0.0,0.0,0.0,0.0,0.0,0.0,0.0,0.0,0.0,0.0,0.0,0.0,0.0,0.0,0.0,-3.0982,-3.1697,-3.2286,-3.2335,-3.192,-3.0631,-2.9478,0.0,0.0,0.0,0.0,0.0,0.0,0.0,0.0,0.0,0.0,0.0,0.0,0.0,0.0,0.0,0.0,0.0,0.0,0.0,0.0,0.0,0.0,0.0,0.0,0.0,0.0,0.0,0.0,0.0,0.0,0.0,0.0,0.0,0.0,0.0,0.0,0.0,0.0,0.0,0.0,0.0,0.0,0.0,0.0,0.0,0.0,0.0,0.0,0.0,0.0,0.0,0.0,0.0,0.0,0.0,0.0,0.0,0.0,0.0,0.0,0.0,0.0,0.0,0.0,0.0,0.0,0.0,0.0,0.0,0.0,0.0,0.0,0.0,0.0,0.0,0.0,0.0,0.0,0.0,0.0,0.0,0.0,0.0,0.0,0.0,0.0,0.0,0.0,0.0,0.0,0.0,0.0,0.0,0.0,0.0,0.0,0.0,0.0,0.0,0.0,0.0,0.0,0.0,0.0,0.0,0.0,0.0,0.0,-3.0876,-3.1299,-3.2481,-3.2792,-3.2185,-3.1583,-3.0518,0.0,0.0,0.0,0.0,0.0,0.0,0.0,0.0,0.0,0.0,0.0,0.0,0.0,0.0,0.0,0.0,0.0,0.0,0.0,0.0,0.0,0.0,0.0,0.0,0.0,0.0,0.0,0.0,0.0,0.0,0.0,0.0,0.0,0.0,0.0,0.0,0.0,0.0,0.0,0.0,0.0,0.0,0.0,0.0,0.0,0.0,0.0,0.0,0.0,0.0,0.0,0.0,0.0,0.0,0.0,0.0,0.0,0.0,0.0,0.0,0.0,0.0,0.0,0.0,0.0,0.0,0.0,0.0,0.0,0.0,0.0,0.0,0.0,0.0,0.0,0.0,0.0,0.0,0.0,0.0,0.0,0.0,0.0,0.0,0.0,0.0,0.0,0.0,0.0,0.0,0.0,0.0,0.0,0.0,0.0,0.0,0.0,0.0,0.0,0.0,0.0,0.0,0.0,0.0,0.0,0.0,0.0,0.0,-3.1712,-3.2649,-3.2955,-3.2719,-3.1988,-3.1028,-3.0036,0.0,0.0,0.0,0.0,0.0,0.0,0.0,0.0,0.0,0.0,0.0,0.0,0.0,0.0,0.0,0.0,0.0,0.0,0.0,0.0,0.0,0.0,0.0,0.0,0.0,0.0,0.0,0.0,0.0,0.0,0.0,0.0,0.0,0.0,0.0,0.0,0.0,0.0,0.0,0.0,0.0,0.0,0.0,0.0,0.0,0.0,0.0,0.0,-2.0402,0.0,0.0,0.0,0.0,0.0,0.0,0.0,0.0,0.0,0.0,0.0,0.0,0.0,0.0,0.0,0.0,0.0,0.0,0.0,0.0,0.0,0.0,0.0,0.0,0.0,0.0,0.0,0.0,0.0,0.0,0.0,0.0,0.0,0.0,0.0,0.0,0.0,0.0,0.0,0.0,0.0,0.0,0.0,0.0,0.0,0.0,0.0,0.0,0.0,0.0,0.0,0.0,0.0,0.0,0.0,0.0,0.0,0.0,0.0,-3.1356,-3.2356,-3.2728,-3.2673,-3.2135,-3.0959,-3.0078,0.0,0.0,0.0,0.0,0.0,0.0,0.0,0.0,0.0,0.0,0.0,0.0,0.0,0.0,0.0,0.0,0.0,0.0,0.0,0.0,0.0,0.0,0.0,0.0,0.0,0.0,0.0,0.0,0.0,0.0,0.0,0.0,0.0,0.0,0.0,0.0,0.0,0.0,0.0,0.0,0.0,0.0,0.0,0.0,0.0,0.0,0.0,0.0,0.0,0.0,0.0,0.0,0.0,0.0,0.0,0.0,0.0,0.0,0.0,0.0,0.0,0.0,0.0,0.0,0.0,0.0,0.0,0.0,0.0,0.0,0.0,0.0,0.0,0.0,0.0,0.0,0.0,0.0,0.0,0.0,0.0,0.0,0.0,0.0,0.0,0.0,0.0,0.0,0.0,0.0,0.0,0.0,0.0,0.0,0.0,0.0,0.0,0.0,0.0,0.0,0.0,0.0,0.0,0.0,0.0,0.0,0.0,-3.0316,-3.0806,-3.179,-3.2401,-3.2593,-3.2376,-3.118,-3.0391,-3.0196,0.0,0.0,0.0,0.0,0.0,0.0,0.0,0.0,0.0,0.0,0.0,0.0,0.0,0.0,0.0,0.0,0.0,0.0,0.0,0.0,0.0,0.0,0.0,0.0,0.0,0.0,0.0,0.0,0.0,0.0,0.0,0.0,0.0,0.0,0.0,0.0,0.0,0.0,-2.0119,-2.082,0.0,0.0,0.0,0.0,0.0,0.0,0.0,0.0,-2.0131,0.0,0.0,0.0,0.0,0.0,0.0,0.0,0.0,0.0,0.0,0.0,0.0,0.0,0.0,0.0,0.0,0.0,0.0,0.0,0.0,0.0,0.0,0.0,0.0,0.0,0.0,0.0,0.0,0.0,0.0,0.0,0.0,0.0,0.0,0.0,0.0,0.0,0.0,0.0,0.0,0.0,0.0,0.0,0.0,0.0,0.0,0.0,0.0,0.0,0.0,0.0,0.0,0.0,0.0,0.0,0.0,-3.0303,-3.0316,-3.1116,-3.2807,-3.276,-3.2593,-3.2388,-3.1534,-3.0729,-2.9979,0.0,0.0,0.0,0.0,0.0,0.0,0.0,0.0,0.0,0.0,0.0,0.0,0.0,0.0,0.0,0.0,0.0,0.0,0.0,0.0,0.0,0.0,0.0,0.0,0.0,0.0,0.0,0.0,0.0,0.0,0.0,0.0,0.0,0.0,0.0,0.0,0.0,0.0,0.0,-2.1566,-2.1831,0.0,0.0,0.0,0.0,0.0,0.0,0.0,0.0,-2.0232,0.0,0.0,0.0,0.0,0.0,0.0,0.0,0.0,0.0,0.0,0.0,0.0,0.0,0.0,0.0,0.0,0.0,0.0,0.0,0.0,0.0,0.0,0.0,0.0,0.0,0.0,0.0,0.0,0.0,0.0,0.0,0.0,0.0,0.0,0.0,0.0,0.0,0.0,0.0,0.0,0.0,0.0,0.0,0.0,0.0,0.0,0.0,0.0,0.0,0.0,0.0,0.0,0.0,0.0,0.0,-3.0115,-3.0536,-3.1336,-3.2469,-3.2419,-3.2245,-3.2013,-3.0683,-2.9774,0.0,0.0,0.0,0.0,0.0,0.0,0.0,0.0,0.0,0.0,0.0,0.0,0.0,0.0,0.0,0.0,0.0,0.0,0.0,0.0,0.0,0.0,0.0,0.0,0.0,0.0,0.0,0.0,0.0,0.0,0.0,0.0,0.0,0.0,0.0,0.0,0.0,0.0,0.0,0.0,-2.2078,-2.2489,-2.239,0.0,0.0,0.0,0.0,0.0,0.0,-2.0871,-2.0555,0.0,0.0,0.0,0.0,0.0,0.0,0.0,0.0,0.0,0.0,0.0,0.0,0.0,0.0,0.0,0.0,0.0,0.0,0.0,0.0,0.0,0.0,0.0,0.0,0.0,0.0,0.0,0.0,0.0,0.0,0.0,0.0,0.0,0.0,0.0,0.0,0.0,0.0,0.0,0.0,0.0,0.0,0.0,0.0,0.0,0.0,0.0,0.0,0.0,0.0,0.0,0.0,0.0,0.0,0.0,-2.927,-3.0049,-3.0759,-3.1436,-3.1617,-3.1617,-3.146,-3.002,-2.9152,0.0,0.0,0.0,0.0,0.0,0.0,0.0,0.0,0.0,0.0,0.0,0.0,0.0,0.0,0.0,0.0,0.0,0.0,0.0,0.0,0.0,0.0,0.0,0.0,0.0,0.0,0.0,0.0,0.0,0.0,0.0,0.0,0.0,0.0,0.0,0.0,0.0,0.0,0.0,0.0,0.0,-2.3148,-2.2717,-2.2616,0.0,0.0,0.0,0.0,-2.1575,-2.1328,0.0,0.0,0.0,0.0,0.0,0.0,0.0,0.0,0.0,0.0,0.0,0.0,0.0,0.0,0.0,0.0,0.0,0.0,0.0,0.0,0.0,0.0,0.0,0.0,0.0,0.0,0.0,0.0,0.0,0.0,0.0,0.0,0.0,0.0,0.0,0.0,0.0,0.0,0.0,0.0,0.0,0.0,0.0,0.0,0.0,0.0,0.0,0.0,0.0,0.0,0.0,0.0,0.0,0.0,0.0,0.0,-2.6896,-2.7568,-2.8521,-2.967,-3.0351,-3.0633,-3.0633,-3.0636,-3.029,0.0,0.0,0.0,0.0,0.0,0.0,0.0,0.0,0.0,0.0,0.0,0.0,0.0,0.0,0.0,0.0,0.0,0.0,0.0,0.0,0.0,0.0,0.0,0.0,0.0,0.0,0.0,0.0,0.0,0.0,0.0,0.0,0.0,0.0,0.0,0.0,0.0,0.0,0.0,0.0,0.0,-2.3756,-2.3355,-2.2996,-2.2788,0.0,0.0,-2.2431,-2.2981,-2.2547,0.0,0.0,0.0,0.0,0.0,0.0,0.0,0.0,0.0,0.0,0.0,0.0,0.0,0.0,0.0,0.0,0.0,0.0,0.0,0.0,0.0,0.0,0.0,0.0,0.0,0.0,0.0,0.0,0.0,0.0,0.0,0.0,0.0,0.0,0.0,0.0,0.0,0.0,0.0,0.0,0.0,0.0,0.0,0.0,0.0,0.0,0.0,0.0,0.0,0.0,0.0,0.0,0.0,0.0,0.0,-2.5753,-2.6135,-2.747,-2.8437,-2.8971,-2.9326,-2.9475,-2.9464,-2.8545,-2.7768,0.0,0.0,0.0,0.0,0.0,0.0,0.0,0.0,0.0,0.0,0.0,0.0,0.0,0.0,0.0,0.0,0.0,0.0,0.0,0.0,0.0,0.0,0.0,0.0,0.0,0.0,0.0,0.0,0.0,0.0,0.0,0.0,0.0,0.0,0.0,0.0,0.0,0.0,0.0,0.0,0.0,0.0,-2.385,-2.3564,0.0,0.0,0.0,-2.2825,-2.3091,0.0,0.0,0.0,0.0,0.0,0.0,0.0,0.0,0.0,0.0,0.0,0.0,0.0,0.0,0.0,0.0,0.0,0.0,0.0,0.0,0.0,0.0,0.0,0.0,0.0,0.0,0.0,0.0,0.0,0.0,0.0,0.0,0.0,0.0,0.0,0.0,0.0,0.0,0.0,0.0,0.0,0.0,0.0,0.0,0.0,0.0,0.0,0.0,0.0,0.0,0.0,0.0,0.0,0.0,0.0,0.0,0.0,-2.5168,-2.6998,-2.7945,-2.7934,-2.8226,-2.8308,-2.8287,-2.6984,0.0,0.0,0.0,0.0,0.0,0.0,0.0,0.0,0.0,0.0,0.0,0.0,0.0,0.0,0.0,0.0,0.0,0.0,0.0,0.0,0.0,0.0,0.0,0.0,0.0,0.0,0.0,0.0,0.0,0.0,0.0,0.0,0.0,0.0,0.0,0.0,0.0,0.0,0.0,0.0,0.0,0.0,-2.4169,-2.3934,-2.3835,-2.3936,0.0,0.0,-2.3167,-2.2889,-2.2986,-2.2357,0.0,0.0,0.0,0.0,0.0,0.0,0.0,0.0,0.0,0.0,0.0,0.0,0.0,0.0,0.0,0.0,0.0,0.0,0.0,0.0,0.0,0.0,0.0,0.0,0.0,0.0,0.0,0.0,0.0,0.0,0.0,0.0,0.0,0.0,0.0,0.0,0.0,0.0,0.0,0.0,0.0,0.0,0.0,0.0,0.0,0.0,0.0,0.0,0.0,0.0,0.0,0.0,0.0,0.0,0.0,-2.3442,-2.5041,-2.5927,-2.5927,-2.6819,-2.7274,-2.7311,-2.7211,-2.6748,0.0,0.0,0.0,0.0,0.0,0.0,0.0,0.0,0.0,0.0,0.0,0.0,0.0,0.0,0.0,0.0,0.0,0.0,0.0,0.0,0.0,0.0,0.0,0.0,0.0,0.0,0.0,0.0,0.0,0.0,0.0,0.0,0.0,0.0,0.0,0.0,0.0,0.0,0.0,0.0,0.0,-2.3803,-2.3392,-2.3672,-2.3949,0.0,0.0,-2.3535,-2.2655,-2.2524,-2.1569,-1.8586,0.0,0.0,0.0,0.0,0.0,0.0,0.0,0.0,0.0,0.0,0.0,0.0,0.0,0.0,0.0,0.0,0.0,0.0,0.0,0.0,0.0,0.0,0.0,0.0,0.0,0.0,0.0,0.0,0.0,0.0,0.0,0.0,0.0,0.0,0.0,0.0,0.0,0.0,0.0,0.0,0.0,0.0,0.0,0.0,0.0,0.0,0.0,0.0,0.0,0.0,0.0,0.0,0.0,-2.3266,-2.3174,-2.4806,-2.582,-2.6113,-2.6249,-2.6413,-2.6683,-2.5928,-2.4985,0.0,0.0,0.0,0.0,0.0,0.0,0.0,0.0,0.0,0.0,0.0,0.0,0.0,0.0,0.0,0.0,0.0,0.0,0.0,0.0,0.0,0.0,0.0,0.0,0.0,0.0,0.0,0.0,-1.7652,-1.6721,-1.6492,0.0,0.0,0.0,0.0,0.0,0.0,0.0,0.0,0.0,0.0,-2.4068,-2.3918,-2.4031,0.0,0.0,-2.3688,-2.2868,-2.2741,-2.1719,-2.028,-1.8226,-1.7503,0.0,0.0,0.0,0.0,0.0,0.0,0.0,0.0,0.0,0.0,0.0,0.0,0.0,0.0,0.0,0.0,0.0,0.0,0.0,0.0,0.0,0.0,0.0,0.0,0.0,0.0,0.0,0.0,0.0,0.0,0.0,0.0,0.0,0.0,0.0,0.0,0.0,0.0,0.0,0.0,0.0,0.0,0.0,0.0,0.0,0.0,0.0,0.0,0.0,0.0,0.0,0.0,-2.3286,-2.3296,-2.4875,-2.584,-2.6191,-2.584,-2.5879,-2.6152,-2.5166,-2.4014,0.0,0.0,0.0,0.0,0.0,0.0,0.0,0.0,0.0,0.0,0.0,0.0,0.0,0.0,0.0,0.0,0.0,0.0,0.0,0.0,0.0,0.0,0.0,0.0,0.0,0.0,0.0,0.0,-1.7219,-1.5896,-1.5628,0.0,0.0,0.0,0.0,0.0,0.0,0.0,0.0,0.0,0.0,-2.4086,-2.4038,-2.389,-2.3862,-2.4146,-2.2883,-2.1852,-2.1695,-2.0584,-1.9227,-1.7688,0.0,0.0,0.0,0.0,0.0,0.0,0.0,0.0,0.0,0.0,0.0,0.0,0.0,0.0,0.0,0.0,0.0,0.0,0.0,0.0,0.0,0.0,0.0,0.0,0.0,0.0,0.0,-2.5135,0.0,0.0,-2.4443,0.0,0.0,0.0,0.0,0.0,0.0,0.0,0.0,0.0,0.0,0.0,0.0,0.0,0.0,0.0,0.0,0.0,0.0,0.0,0.0,0.0,0.0,-2.376,-2.3789,-2.5059,-2.5703,-2.5723,-2.5703,-2.5703,-2.5713,-2.5303,-2.4489,-2.3218,0.0,0.0,0.0,0.0,0.0,0.0,0.0,0.0,0.0,0.0,0.0,0.0,0.0,0.0,0.0,0.0,0.0,0.0,0.0,0.0,0.0,0.0,0.0,0.0,0.0,0.0,-1.9732,-1.7941,-1.6634,0.0,0.0,0.0,0.0,0.0,0.0,0.0,0.0,0.0,0.0,-2.3175,-2.3499,-2.3508,-2.2932,-2.256,-2.2577,-2.1641,-2.0444,-1.9181,-1.9104,-1.8578,0.0,0.0,0.0,0.0,0.0,0.0,0.0,0.0,0.0,0.0,0.0,0.0,0.0,0.0,0.0,0.0,0.0,0.0,0.0,0.0,0.0,0.0,0.0,0.0,0.0,0.0,0.0,-2.4524,-2.4289,0.0,0.0,0.0,0.0,0.0,0.0,0.0,0.0,0.0,0.0,0.0,-2.5693,-2.5127,0.0,0.0,0.0,0.0,0.0,0.0,0.0,0.0,0.0,0.0,0.0,0.0,-2.3506,-2.3828,-2.5031,-2.583,-2.6152,-2.584,-2.583,-2.6152,-2.5449,-2.4509,-2.3184,0.0,0.0,0.0,0.0,0.0,0.0,0.0,0.0,0.0,0.0,0.0,0.0,0.0,0.0,0.0,0.0,0.0,0.0,0.0,0.0,0.0,0.0,0.0,0.0,0.0,-1.8885,0.0,0.0,0.0,0.0,0.0,0.0,0.0,0.0,0.0,0.0,0.0,-2.1053,-2.1113,-2.1502,-2.177,-2.177,-2.1576,-2.1446,0.0,0.0,0.0,0.0,0.0,0.0,0.0,0.0,0.0,0.0,0.0,0.0,0.0,0.0,-1.6754,-1.5924,-1.5671,-1.5484,-1.5434,0.0,0.0,0.0,0.0,0.0,0.0,0.0,0.0,0.0,0.0,0.0,0.0,0.0,0.0,-2.3568,0.0,-2.2716,0.0,0.0,0.0,0.0,0.0,0.0,0.0,0.0,-2.3668,-2.428,-2.5939,-2.5385,-2.54,0.0,-2.4977,-2.4466,0.0,0.0,0.0,0.0,0.0,0.0,0.0,0.0,-2.3676,-2.4043,-2.5099,-2.582,-2.6133,-2.5889,-2.582,-2.6143,-2.5449,-2.46,-2.3613,-2.2311,-2.1406,0.0,0.0,0.0,0.0,0.0,0.0,0.0,0.0,0.0,0.0,0.0,0.0,0.0,0.0,0.0,0.0,0.0,0.0,0.0,0.0,0.0,0.0,0.0,-1.825,0.0,0.0,0.0,0.0,0.0,0.0,0.0,0.0,0.0,-1.8652,-1.975,-2.0442,-2.048,-2.0734,-2.0885,-2.0885,0.0,0.0,0.0,0.0,0.0,0.0,0.0,-1.6941,-1.674,-1.6567,-1.6466,-1.661,-1.7032,-1.732,-1.7219,0.0,0.0,-1.6069,-1.575,-1.5523,-1.5034,-1.4128,-1.3431,-1.3259,-1.2481,-1.1577,0.0,0.0,0.0,0.0,0.0,0.0,0.0,0.0,-2.2843,-2.2724,0.0,-2.1975,0.0,0.0,0.0,0.0,0.0,-2.2944,0.0,0.0,-2.3014,-2.3739,-2.5133,-2.5088,-2.5559,-2.6226,-2.5226,-2.4836,-2.4993,-2.4258,0.0,0.0,0.0,0.0,0.0,0.0,-2.4424,-2.4463,-2.5245,-2.5693,-2.5693,-2.5684,-2.5693,-2.5693,-2.5322,-2.4893,-2.4424,-2.3232,-2.2126,-2.1268,-2.0078,0.0,0.0,0.0,0.0,0.0,0.0,0.0,0.0,0.0,0.0,0.0,0.0,0.0,0.0,0.0,0.0,0.0,0.0,0.0,0.0,-1.9584,0.0,0.0,0.0,0.0,0.0,0.0,0.0,0.0,0.0,0.0,-1.8602,-1.8784,-1.9284,-2.0582,0.0,0.0,0.0,0.0,-1.9176,-1.9176,-1.8251,-1.7541,-1.7266,-1.7454,-1.7382,-1.6834,0.0,0.0,-1.7259,-1.744,-1.7548,-1.7286,-1.7428,-1.7279,-1.6146,-1.5678,-1.4902,-1.316,-1.3258,-1.2936,-1.1394,-1.1608,-1.1704,-2.2991,0.0,0.0,0.0,0.0,-2.3532,-2.3161,-2.2374,-2.2487,-2.2127,-2.1494,-2.12,0.0,0.0,0.0,0.0,0.0,0.0,-2.233,-2.3294,-2.2511,-2.2958,-2.4365,-2.3887,-2.4009,-2.473,-2.443,-2.4457,-2.4725,-2.4727,-2.4609,-2.4404,0.0,0.0,0.0,0.0,-2.457,-2.4902,-2.5449,-2.5684,-2.5684,-2.5684,-2.5684,-2.5684,-2.5567,-2.5332,-2.4902,-2.4228,-2.3286,-2.2197,-2.1504,0.0,0.0,0.0,0.0,0.0,0.0,0.0,0.0,0.0,0.0,0.0,0.0,0.0,0.0,0.0,0.0,0.0,0.0,0.0,-1.9158,-1.8396,-1.7581,0.0,0.0,0.0,0.0,0.0,0.0,0.0,0.0,0.0,-1.7836,-1.8626,-1.8926,0.0,0.0,-1.8565,-1.8565,-1.8251,-1.8048,-1.8048,-1.7793,0.0,0.0,-1.7528,-1.7522,-1.7355,-1.7475,-1.7555,-1.7527,-1.7581,-1.7629,-1.7756,-1.7856,-1.7592,-1.6716,-1.612,-1.5601,-1.5184,-1.3926,-1.2778,-1.2358,-1.1722,-1.105,-2.2998,-2.3342,-2.2999,-2.2758,-2.2606,-2.2887,-2.2568,-2.1859,-2.1981,-2.1744,-2.1162,-2.0826,-2.1065,-2.1633,-2.1758,0.0,0.0,0.0,-2.144,-2.2357,-2.1705,-2.2159,-2.3585,-2.3091,-2.3436,-2.45,-2.4152,-2.4336,-2.5033,-2.5,-2.4977,-2.4875,0.0,0.0,-2.4658,-2.4678,-2.4805,-2.5125,-2.5508,-2.5684,-2.5684,-2.5684,-2.5684,-2.5684,-2.5684,-2.5567,-2.5342,-2.4912,-2.4248,-2.331,-2.2549,-2.1504,0.0,0.0,0.0,0.0,0.0,0.0,0.0,0.0,0.0,0.0,0.0,-1.9803,0.0,0.0,0.0,0.0,-1.8522,-1.8144,-1.8419,-1.8037,0.0,0.0,0.0,0.0,0.0,0.0,0.0,-1.7507,-1.7375,-1.7368,-1.7716,-1.834,-1.845,-1.7707,-1.7589,-1.7589,-1.7589,0.0,-1.7589,-1.7589,-1.7589,-1.7589,-1.7589,-1.7589,-1.7589,-1.7589,-1.7589,-1.7589,-1.7589,-1.7675,-1.7829,-1.7949,-1.8143,-1.8057,-1.7556,-1.6453,-1.5338,-1.5044,-1.3361,-1.2084,-1.2125,-1.1428,-1.0785,-2.323,-2.2525,-2.173,-2.1335,-2.1313,-2.1635,-2.1584,-2.132,-2.1635,-2.1554,-2.1196,-2.084,-2.1279,-2.212,-2.1806,0.0,-2.165,-2.0696,-2.045,-2.0764,-2.0764,-2.1466,-2.2846,-2.2506,-2.3245,-2.4814,-2.3983,-2.4246,-2.529,-2.4948,-2.503,-2.5567,-2.4894,-2.4717,-2.5098,-2.5117,-2.5174,-2.5127,-2.5527,-2.5684,-2.5684,-2.5684,-2.5684,-2.5684,-2.5684,-2.5684,-2.5674,-2.5342,-2.4922,-2.4453,-2.3281,-2.2185,-2.1337,0.0,0.0,0.0,0.0,0.0,0.0,0.0,0.0,0.0,0.0,0.0,0.0,0.0,0.0,0.0,-2.0329,0.0,-1.8322,-1.8193,0.0,0.0,0.0,-1.6766,-1.6834,-1.6823,-1.7054,-1.7595,0.0,0.0,-1.8029,-1.8029,-1.7929,-1.7689,-1.7615,-1.7589,-1.7589,-1.7589,-1.7589,-1.7589,-1.7602,-1.7629,-1.7655,-1.7682,-1.7709,-1.7716,-1.7655,-1.7689,-1.7709,-1.7889,-1.8015,-1.8095,-1.835,-1.8544,-1.8557,-1.6636,-1.4629,-1.367,-1.2259,-1.1163,-1.1146,-1.1033,-1.0907,-2.3362,-2.2974,-2.2754,-2.2381,-2.1986,-2.2279,-2.2228,-2.1986,-2.2271,-2.195,-2.1203,-2.113,-2.0928,-2.0716,-2.0642,-2.0746,-2.0929,-2.0715,-2.0786,-2.1086,-2.1094,-2.1309,-2.1631,-2.1253,-2.1329,-2.1759,-2.1897,-2.2217,-2.2747,-2.3785,-2.4454,-2.4889,-2.5226,-2.543,-2.5576,-2.5528,-2.5576,-2.5576,-2.5635,-2.5684,-2.5684,-2.5684,-2.5684,-2.5684,-2.5684,-2.5684,-2.5684,-2.5586,-2.5371,-2.4959,-2.4004,-2.3096,-2.2194,-2.0201,0.0,0.0,0.0,0.0,0.0,0.0,0.0,0.0,0.0,-2.0517,-1.7791,0.0,-1.929,0.0,-2.0291,-1.9445,-1.7742,-1.7888,0.0,0.0,-1.7812,-1.776,-1.8016,-1.8043,-1.8123,-1.825,-1.8343,-1.839,-1.839,-1.8384,-1.8357,-1.8277,-1.7869,-1.7589,-1.7589,-1.7589,-1.7589,-1.7615,-1.7796,-1.7929,-1.7902,-1.813,-1.8257,-1.8277,-1.8263,-1.8277,-1.827,-1.833,-1.8457,-1.8601,-1.8764,-1.8898,-1.9098,-1.7163,-1.5455,-1.4907,-1.2977,-1.1216,-1.1167,-1.1066,-1.096,-2.3537,-2.3113,-2.3106,-2.2915,-2.2608,-2.2769,-2.2747,-2.2608,-2.2769,-2.2389,-2.162,-2.1342,-2.1013,-2.0676,-2.0669,-2.0772,-2.0933,-2.094,-2.1042,-2.1203,-2.1211,-2.1211,-2.1189,-2.0672,-2.0722,-2.118,-2.1352,-2.1679,-2.2174,-2.3852,-2.4666,-2.4711,-2.576,-2.6249,-2.6239,-2.5879,-2.5684,-2.5684,-2.5684,-2.5684,-2.5684,-2.5684,-2.5684,-2.5684,-2.5684,-2.5644,-2.5449,-2.5439,-2.5234,-2.4795,-2.415,-2.3574,-2.3096,-2.1608,-2.0972,0.0,0.0,0.0,0.0,0.0,0.0,0.0,0.0,0.0,0.0,0.0,-1.9252,-1.9508,-1.9654,-1.9352,-1.8413,-1.8491,-1.8766,-1.9007,-1.8872,-1.8859,-1.908,-1.8981,-1.8919,-1.8888,-1.8908,-1.8845,-1.8684,-1.8684,-1.8631,-1.8504,-1.8196,-1.7989,-1.7989,-1.7983,-1.7989,-1.7996,-1.813,-1.825,-1.825,-1.8377,-1.8497,-1.8497,-1.8497,-1.8497,-1.8497,-1.8597,-1.8738,-1.8828,-1.8561,-1.834,-1.8377,-1.6514,-1.4798,-1.447,-1.3022,-1.1628,-1.1358,-1.1273,-1.1191,-2.3698,-2.3113,-2.3106,-2.3106,-2.3106,-2.3106,-2.3106,-2.3106,-2.3106,-2.2762,-2.214,-2.1496,-2.1211,-2.1211,-2.1211,-2.1211,-2.1211,-2.1211,-2.1211,-2.1211,-2.1211,-2.1211,-2.1189,-2.0625,-2.0796,-2.1541,-2.1396,-2.1646,-2.219,-2.396,-2.4733,-2.472,-2.6047,-2.681,-2.6973,-2.622,-2.5801,-2.5684,-2.5684,-2.5684,-2.5684,-2.5684,-2.5684,-2.5684,-2.5635,-2.5459,-2.5088,-2.5059,-2.4893,-2.4512,-2.415,-2.3945,-2.3935,-2.3413,-2.2877,0.0,-2.1682,0.0,0.0,0.0,0.0,0.0,0.0,0.0,0.0,-1.9709,-1.9621,-1.866,-1.9051,-1.9475,-1.9634,-1.9492,-1.9513,-1.9791,-1.9881,-1.9843,-1.9843,-1.9603,-1.9466,-1.9455,-1.9432,-1.9262,-1.9042,-1.8978,-1.8871,-1.8691,-1.8631,-1.8604,-1.8591,-1.851,-1.8444,-1.8497,-1.8524,-1.8564,-1.8611,-1.8624,-1.8637,-1.8617,-1.8644,-1.8597,-1.8637,-1.8818,-1.8985,-1.8891,-1.8417,-1.78,-1.7578,-1.5618,-1.4023,-1.3844,-1.2702,-1.1759,-1.1569,-1.1496,-1.1443,-2.3698,-2.3113,-2.3106,-2.3106,-2.3106,-2.3106,-2.3106,-2.3106,-2.3106,-2.2762,-2.214,-2.1503,-2.1211,-2.1211,-2.1211,-2.1211,-2.1211,-2.1211,-2.1211,-2.1211,-2.1211,-2.1211,-2.1203,-2.1086,-2.0806,-2.0518,-2.0429,-2.0397,-2.0332,-2.1259,-2.2465,-2.3809,-2.4754,-2.579,-2.6941,0.0,0.0,0.0,-2.5684,-2.5684,-2.5684,-2.5684,-2.5684,-2.5674,-2.5381,0.0,-2.5116,-2.5059,-2.5077,-2.4998,-2.491,0.0,0.0,0.0,0.0,0.0,0.0,0.0,0.0,0.0,0.0,0.0,-1.9603,-1.8892,-1.8241,-1.9716,-2.005,-1.8547,-1.9934,-2.0646,-1.9844,-1.9927,-2.0077,-2.0095,-2.0166,-2.0193,-2.02,-1.9941,-1.9729,-1.972,-1.956,-1.9394,-1.933,-1.9285,-1.9259,-1.9243,-1.9256,-1.9205,-1.9243,-1.8798,-1.8517,-1.8504,-1.8704,-1.8931,-1.9229,-1.9236,-1.9145,-1.9199,-1.9205,-1.9243,-1.9236,-1.9212,-1.9279,-1.9272,-1.9152,-1.8648,-1.763,-1.6279,-1.4733,-1.3904,-1.2664,-1.1768,-1.1727,-1.1606,-1.1488,-2.3698,0.0,-2.3106,-2.3106,0.0,-2.3106,-2.3106,-2.3106,-2.3106,-2.2762,-2.2147,-2.1496,-2.1211,-2.1211,-2.1211,-2.1211,-2.1211,-2.1211,-2.1211,-2.1211,-2.1211,-2.1211,-2.1203,-2.105,-2.0706,-2.0183,-2.0077,-1.9835,-1.9633,-2.0635,-2.1679,-2.259,-2.3887,-2.52,-2.6518,-2.7056,-2.7021,-2.6377,-2.6317,-2.6367,-2.6367,-2.6367,-2.6269,-2.6064,0.0,0.0,0.0,0.0,0.0,0.0,0.0,0.0,0.0,0.0,0.0,-2.3153,-2.2609,-2.187,-2.0907,-2.0642,-2.0503,-2.0352,-1.997,-1.9535,-1.9038,-1.9979,-2.0174,-1.9353,-2.0227,-2.0566,-2.0057,-2.0289,-2.0416,-2.0438,-2.0603,-2.0742,-2.07,-2.0587,-2.045,-2.027,-2.0155,-1.9931,-1.9649,-1.9591,-1.9533,-1.9424,-1.9424,-1.9424,-1.9403,-1.9118,-1.8925,-1.8925,-1.9032,-1.9192,-1.939,-1.9424,-1.9424,-1.9424,-1.9424,-1.9424,-1.9424,-1.9424,-1.9424,-1.9366,-1.8887,-1.8052,-1.6815,-1.5505,-1.4262,-1.308,-1.2251,-1.1837,-1.1833,-1.1699,-1.1634,-2.3706,-2.3113,-2.3106,-2.3106,-2.3106,-2.3106,-2.3106,-2.3106,0.0,0.0,0.0,-2.1554,-2.1298,-2.1298,-2.1298,-2.1328,-2.1386,-2.1386,-2.1379,-2.1379,-2.1602,-2.168,-2.1613,-2.1448,-2.1199,-2.0807,-2.0483,-2.0106,-1.965,-2.1023,-2.1695,-2.1957,-2.3515,-2.4987,-2.6182,-2.7112,-2.7412,-2.7139,-2.7051,-2.7012,-2.7012,-2.7012,-2.6846,-2.6504,-2.6426,-2.6045,-2.538,-2.5341,-2.5137,-2.4785,-2.4787,-2.4935,-2.5131,-2.5112,-2.48,-2.4081,-2.4256,-2.3485,-2.1556,-2.1653,-2.1256,-2.0045,-2.023,-2.0362,-2.0197,-2.0183,-2.0183,-2.0183,-2.0183,-2.0183,-2.019,-2.0416,-2.0577,-2.064,-2.0874,-2.1028,-2.1035,-2.1044,-2.0873,-2.0644,-2.0508,-2.0328,-1.9758,-1.97,-1.9642,-1.9482,-1.9424,-1.9424,-1.9424,-1.9397,-1.937,-1.937,-1.937,-1.9417,-1.9424,-1.9424,-1.9424,-1.9424,-1.9424,-1.9424,-1.9424,-1.9424,-1.9424,-1.9424,-1.8525,-1.7402,-1.5924,-1.4917,-1.355,-1.2074,-1.1837,-1.1837,-1.1837,-1.1837,-1.1828,-2.3706,-2.3106,-2.3106,-2.3106,-2.3106,-2.3106,-2.3106,-2.3084,-2.2813,-2.2498,-2.2162,-2.1796,-2.1628,-2.162,-2.1628,-2.1781,-2.2037,-2.2045,-2.2045,-2.2104,-2.3183,-2.3488,-2.3197,-2.3833,-2.3792,-2.3146,-2.2716,-2.1892,-2.0925,-2.1793,-2.252,-2.2963,-2.4106,-2.5447,-2.6763,-2.6997,-2.7266,-2.7601,-2.7197,-2.7012,-2.7012,-2.7012,-2.6992,-2.6914,-2.6582,-2.6348,-2.6211,-2.6201,-2.6182,-2.6123,-2.6455,-2.6196,-2.5237,-2.5168,-2.4751,-2.3757,-2.3669,-2.352,-2.3197,-2.2343,-2.1449,-2.0685,-2.0889,-2.0837,-2.0241,-2.0183,-2.0183,-2.019,-2.0227,-2.0183,-2.0183,-2.0278,-2.0351,-2.03,-2.0314,-2.0329,-2.0416,-2.0475,-2.0401,-2.0097,-1.9945,-1.9873,-1.9676,-1.9546,-1.954,-1.943,-1.9437,-1.9424,-1.9424,-1.9424,-1.9424,-1.9424,-1.9424,-1.9424,-1.9424,-1.9424,-1.9424,-1.9424,-1.9424,-1.9424,-1.9424,-1.9424,-1.9424,-1.9424,-1.9185,-1.8175,-1.6161,-1.5515,-1.4326,-1.2487,-1.1893,-1.1837,-1.1837,-1.1837,-1.1837,-2.3808,-2.3369,-2.3186,-2.3106,-2.3106,-2.3106,-2.3106,-2.3098,-2.2952,-2.2718,-2.2403,-2.2096,-2.1964,-2.1964,-2.1964,-2.2045,-2.2184,-2.2184,-2.2184,-2.2244,-2.2811,-2.2973,-2.2797,-2.2967,-2.2999,-2.2855,-2.254,-2.2133,-2.1827,-2.2291,-2.262,-2.2859,-2.4146,-2.5358,-2.6352,-2.6821,-2.7226,-2.7646,-2.7471,-2.748,-2.7705,-2.7715,-2.7598,-2.7383,-2.7229,-2.6963,-2.6738,-2.6728,-2.6728,-2.6728,-2.6914,-2.6471,-2.5289,-2.5185,-2.4446,-2.2765,-2.2748,-2.2673,-2.2324,-2.214,-2.1852,-2.1561,-2.165,-2.162,-2.132,-2.0969,-2.0837,-2.1006,-2.1028,-2.1028,-2.1035,-2.1189,-2.1225,-2.1042,-2.1174,-2.1218,-2.1079,-2.1031,-2.0952,-2.063,-2.0537,-2.0513,-2.0392,-2.0208,-2.0007,-1.989,-1.9661,-1.9437,-1.943,-1.943,-1.943,-1.9424,-1.9424,-1.9424,-1.9424,-1.9424,-1.9424,-1.9424,-1.9424,-1.9424,-1.9424,-1.9424,-1.9424,-1.9424,-1.9424,-1.8655,-1.6868,-1.6042,-1.4862,-1.3435,-1.2191,-1.1893,-1.1837,-1.1837,-1.1837,-2.402,-2.3574,-2.3325,-2.3179,-2.3113,-2.3106,-2.3106,-2.3106,-2.3106,-2.2967,-2.271,-2.2418,-2.2279,-2.2271,-2.222,-2.2264,-2.2367,-2.2315,-2.2323,-2.2449,-2.2984,-2.3067,-2.2789,-2.2879,-2.3022,-2.291,-2.2461,-2.2453,-2.2707,-2.2908,-2.3073,-2.3347,-2.4537,-2.5363,-2.5884,-2.6426,-2.6943,-2.7405,-2.7523,-2.7777,-2.8135,-2.8154,-2.7949,-2.7559,-2.7519,-2.7363,-2.7041,-2.7012,-2.7012,-2.7012,-2.7012,-2.6368,-2.4977,-2.4992,-2.4182,-2.2351,-2.2197,-2.2047,-2.1538,-2.1891,-2.2184,-2.2184,-2.2184,-2.2184,-2.214,-2.173,-2.1496,-2.1664,-2.1657,-2.1635,-2.1562,-2.1752,-2.1862,-2.1635,-2.1811,-2.1767,-2.162,-2.165,-2.1547,-2.1299,-2.1256,-2.1242,-2.1078,-2.0854,-2.0557,-2.0126,-1.9834,-1.9589,-1.9517,-1.9517,-1.9589,-1.9578,-1.9466,-1.943,-1.9424,-1.9424,-1.9424,-1.9424,-1.9424,-1.9424,-1.9424,-1.9424,-1.9424,-1.9424,-1.9424,-1.8829,-1.7753,-1.6744,-1.5505,-1.4023,-1.2895,-1.2251,-1.1893,-1.1837,-1.1837,-2.443,-2.3654,-2.3559,-2.3376,-2.312,-2.3106,-2.3106,-2.3168,-2.3106,-2.3106,-2.3135,-2.2725,-2.264,-2.2542,-2.2308,-2.2537,-2.2992,-2.271,-2.2786,-2.3338,-2.5457,-2.5718,-2.4424,-2.6061,-2.6294,-2.4913,-2.4095,-2.3733,-2.3677,-2.4184,-2.4742,-2.537,-2.5974,-2.6071,-2.5809,-2.583,-2.6094,-2.6554,-2.6875,-2.7285,-2.7748,-2.7777,-2.7519,-2.709,-2.709,-2.706,-2.706,-2.7012,-2.7021,-2.7012,-2.7051,-2.6017,-2.4175,-2.4364,-2.4144,-2.2967,-2.2488,-2.2186,-2.2089,-2.214,-2.2206,-2.2184,-2.2198,-2.2198,-2.2198,-2.2132,-2.1972,-2.1811,-2.1723,-2.1635,-2.1306,-2.1379,-2.1467,-2.1452,-2.1452,-2.1276,-2.1386,-2.1525,-2.1562,-2.1218,-2.1486,-2.1417,-2.1004,-2.0856,-2.0573,-2.015,-2.0162,-2.0055,-1.9819,-1.9937,-2.0071,-2.002,-1.974,-1.9426,-1.9457,-1.9424,-1.9424,-1.9424,-1.9424,-1.9424,-1.9424,-1.9424,-1.9424,-1.9424,-1.9464,-1.8933,-1.8142,-1.7279,-1.6484,-1.489,-1.3861,-1.3158,-1.2195,-1.1853,-1.1857,-2.4782,-2.4137,-2.3757,-2.3406,-2.3128,-2.3106,-2.3542,-2.4278,-2.4278,-2.4702,-2.5354,-2.527,-2.4361,-2.2948,-2.3308,-2.3672,-2.3902,-2.4535,-2.4896,-2.5177,-2.6411,-2.6626,-2.6096,-2.6573,-2.6765,-2.6539,-2.6054,-2.6037,-2.6335,-2.6659,-2.6674,-2.6545,-2.6952,-2.7178,-2.7178,-2.6504,-2.6445,-2.7119,-2.7314,-2.7607,-2.7988,-2.8037,-2.7959,-2.7793,-2.7764,-2.7764,-2.7773,-2.7773,-2.7881,-2.8115,-2.8135,-2.714,-2.5099,-2.5232,-2.4507,-2.2719,-2.2483,-2.2447,-2.244,-2.2615,-2.2732,-2.2725,-2.255,-2.2447,-2.244,-2.2447,-2.2381,-2.2279,-2.2242,-2.2176,-2.2059,-2.2213,-2.2257,-2.2125,-2.2213,-2.225,-2.2067,-2.2154,-2.2124,-2.1837,-2.1902,-2.1949,-2.1836,-2.1704,-2.1334,-2.0782,-2.0587,-2.0414,-2.012,-2.0174,-2.0221,-2.0167,-2.0013,-1.9826,-1.9659,-1.9459,-1.9457,-1.943,-1.9424,-1.9424,-1.9444,-1.9424,-1.9424,-1.9437,-1.9519,-1.9495,-1.9096,-1.8319,-1.7486,-1.6133,-1.4749,-1.3887,-1.3278,-1.2468,-1.2016,-2.5022,-2.4584,-2.3962,-2.3537,-2.3245,-2.3245,-2.3741,-2.4587,-2.4949,-2.5615,-2.6476,-2.6831,-2.5981,-2.4401,-2.4759,-2.4967,-2.5063,-2.5856,-2.6277,-2.6319,-2.6977,-2.715,-2.6893,-2.7113,-2.7223,-2.7338,-2.7086,-2.7308,-2.7975,-2.8349,-2.8068,-2.7535,-2.7805,-2.8115,-2.8174,-2.7324,-2.7207,-2.7836,-2.7939,-2.8164,-2.8437,-2.8584,-2.8535,-2.832,-2.8301,-2.8301,-2.8301,-2.797,-2.8095,-2.8676,-2.8414,-2.7594,-2.6223,-2.5976,-2.4851,-2.278,-2.2637,-2.271,-2.2637,-2.2842,-2.2937,-2.2849,-2.2623,-2.2498,-2.2506,-2.2506,-2.2506,-2.2476,-2.2498,-2.2513,-2.2769,-2.2967,-2.2988,-2.2806,-2.2981,-2.2996,-2.2715,-2.2754,-2.2667,-2.2476,-2.2484,-2.2445,-2.2512,-2.2324,-2.1848,-2.139,-2.1199,-2.0895,-2.0598,-2.0537,-2.0557,-2.0441,-2.0353,-2.0234,-1.9973,-1.9793,-1.9613,-1.9599,-1.9646,-1.9626,-1.9546,-1.9539,-1.9584,-1.9653,-1.98,-1.9834,-1.9668,-1.9108,-1.8619,-1.7933,-1.6573,-1.4806,-1.409,-1.3269,-1.2608,-2.5425,-2.4576,-2.4268,-2.3931,-2.3574,-2.3615,-2.3517,-2.3696,-2.4649,-2.5194,-2.5684,-2.665,-2.6952,-2.6806,-2.6645,-2.6389,-2.627,-2.6205,-2.6166,-2.6192,-2.7548,-2.7593,-2.66,-2.8,-2.8212,-2.7432,-2.7167,-2.7111,-2.7456,-2.8368,-2.8637,-2.8291,-2.8657,-2.8682,-2.8428,-2.8232,-2.8213,-2.833,-2.8643,-2.8877,-2.89,-2.9316,-2.9085,-2.8408,-2.832,-2.8359,-2.8223,-2.7161,-2.709,-2.8296,-2.7337,-2.6601,-2.6546,-2.5987,-2.4809,-2.3301,-2.3047,-2.2923,-2.2652,-2.2623,-2.255,-2.2301,-2.2242,-2.2198,-2.2198,-2.2198,-2.2198,-2.2206,-2.2228,-2.2447,-2.2893,-2.2996,-2.3054,-2.3032,-2.3076,-2.3084,-2.3076,-2.3032,-2.3076,-2.3025,-2.2981,-2.2857,-2.2611,-2.2341,-2.2054,-2.1842,-2.1874,-2.1805,-2.1327,-2.132,-2.13,-2.1125,-2.0864,-2.0555,-2.0294,-2.0087,-2.0107,-2.0074,-1.998,-2.0054,-2.0,-1.9947,-1.9913,-1.9933,-2.0094,-2.0187,-2.0147,-1.9937,-1.9501,-1.8723,-1.7624,-1.6261,-1.5592,-1.4654,-1.3786,-2.5257,-2.4694,-2.5474,-2.5035,-2.4017,-2.4624,-2.5313,-2.5915,-2.6194,-2.7323,-2.871,-2.9313,-2.9499,-2.949,-2.9341,-2.8698,-2.7741,-2.8332,-2.8482,-2.8304,-2.9127,-2.9259,-2.8971,-2.9478,-2.9706,-2.9502,-2.9341,-2.8811,-2.8118,-2.9451,-2.9544,-2.8625,-2.9255,-2.9648,-2.9443,-2.8965,-2.8828,-2.9101,-2.9277,-2.9463,-2.9624,-2.9336,-2.8989,-2.8747,-2.8986,-2.9111,-2.9111,-2.7865,-2.7529,-2.8296,-2.7862,-2.6991,-2.5713,-2.4599,-2.3711,-2.2914,-2.2798,-2.2667,-2.2396,-2.2345,-2.2301,-2.2191,-2.1986,-2.1891,-2.1876,-2.1869,-2.1869,-2.1913,-2.2089,-2.2315,-2.2469,-2.2681,-2.2798,-2.282,-2.2981,-2.3091,-2.3106,-2.3106,-2.3106,-2.3106,-2.3106,-2.3043,-2.2926,-2.2793,-2.2625,-2.2352,-2.2379,-2.2178,-2.1943,-2.1881,-2.1853,-2.1741,-2.1456,-2.1228,-2.1147,-2.0489,-2.0167,-2.0167,-2.0201,-2.0194,-2.0154,-2.0187,-2.0167,-2.0174,-2.0334,-2.0494,-2.0521,-2.0573,-2.0208,-2.0005,-1.8805,-1.7878,-1.7337,-1.6124,-1.492,-2.5059,-2.4819,-2.5718,-2.5635,-2.4899,-2.5477,-2.649,-2.7456,-2.7591,-2.8632,-3.0098,-3.0704,-3.0898,-3.0898,-3.0898,-3.0315,-2.9244,-2.9853,-2.9971,-2.9675,-2.9863,-2.999,-3.0019,-3.0137,-3.0361,-3.0654,-3.083,-3.018,-2.9161,-3.0103,-2.9949,-2.8898,-2.9765,-2.9957,-2.9642,-2.9521,-2.9538,-2.9468,-2.982,-3.0146,-3.0247,-2.943,-2.8929,-2.8965,-2.921,-2.9393,-2.9346,-2.8113,-2.7759,-2.8305,-2.8106,-2.7155,-2.5663,-2.4603,-2.3543,-2.2627,-2.2484,-2.2352,-2.2096,-2.2125,-2.2147,-2.2037,-2.1935,-2.1854,-2.1854,-2.1854,-2.1854,-2.1906,-2.203,-2.2184,-2.222,-2.2367,-2.2476,-2.252,-2.2762,-2.2945,-2.2959,-2.3047,-2.3098,-2.3106,-2.3106,-2.3106,-2.3106,-2.3106,-2.2981,-2.2793,-2.2731,-2.2606,-2.2362,-2.2237,-2.2174,-2.2111,-2.1853,-2.1769,-2.1651,-2.119,-2.0738,-2.0663,-2.0671,-2.0542,-2.0469,-2.0496,-2.0509,-2.0454,-2.0555,-2.0735,-2.0882,-2.1002,-2.0999,-2.1032,-2.0384,-1.9348,-1.8485,-1.7373,-1.6276,-2.501,-2.4827,-2.5047,-2.5885,-2.6216,-2.6328,-2.6766,-2.7781,-2.8487,-2.8929,-2.954,-3.0401,-3.0898,-3.0898,-3.0898,-3.082,-3.0655,-3.0382,-3.0039,-2.9668,-2.9658,-2.9678,-2.9697,-3.0039,-3.0205,-3.0283,-3.0664,-3.0605,-2.9994,-3.0128,-2.9982,-2.967,-2.9904,-2.9651,-2.8422,-2.9747,-3.0034,-2.9489,-3.0064,-3.0645,-3.0684,-2.9356,-2.856,-2.8569,-2.8655,-2.8737,-2.8751,-2.7707,-2.769,-2.8414,-2.7639,-2.685,-2.6389,-2.5738,-2.4685,-2.2714,-2.2244,-2.2037,-2.1803,-2.2015,-2.2052,-2.1898,-2.2008,-2.2132,-2.2118,-2.2132,-2.2132,-2.2132,-2.2154,-2.2184,-2.2184,-2.2213,-2.2228,-2.2228,-2.2506,-2.2674,-2.271,-2.2915,-2.3106,-2.3106,-2.3106,-2.3106,-2.3106,-2.3106,-2.3043,-2.3043,-2.3043,-2.2926,-2.2675,-2.2613,-2.2487,-2.2299,-2.2174,-2.2111,-2.1985,-2.1846,-2.1517,-2.1245,-2.1233,-2.1222,-2.0968,-2.0941,-2.0941,-2.0886,-2.0802,-2.0969,-2.0969,-2.1076,-2.1076,-2.1039,-2.0709,-2.0513,-1.9554,-1.8603,-1.7931,-2.6234,-2.6241,-2.8433,-2.8609,-2.7647,-2.8431,-2.8906,-2.883,-2.8915,-2.9412,-3.0216,-3.0704,-3.0898,-3.0898,-3.0898,-3.0898,-3.0879,-3.0723,-3.043,-3.0068,-3.0,-2.999,-3.0019,-3.0137,-3.0205,-3.0215,-3.0332,-3.0039,-2.958,-2.9922,-2.9844,-2.9336,-2.956,-2.9577,-2.9088,-2.8984,-2.8916,-2.9719,-2.9342,-2.9226,-2.9119,-2.7989,-2.6916,-2.6108,-2.6471,-2.6906,-2.7186,-2.7875,-2.7944,-2.7357,-2.6848,-2.6498,-2.5988,-2.5061,-2.4087,-2.3212,-2.2535,-2.2037,-2.1796,-2.1993,-2.2154,-2.2074,-2.214,-2.2176,-2.2184,-2.2206,-2.2206,-2.2198,-2.2184,-2.2184,-2.2184,-2.2184,-2.2198,-2.2184,-2.2447,-2.263,-2.2681,-2.2923,-2.3076,-2.3106,-2.3106,-2.3106,-2.3106,-2.3106,-2.3106,-2.3106,-2.3106,-2.3043,-2.2981,-2.2918,-2.2918,-2.2793,-2.2668,-2.2418,-2.2355,-2.2237,-2.1922,-2.167,-2.1664,-2.1594,-2.1456,-2.1415,-2.1373,-2.1267,-2.1188,-2.1152,-2.1102,-2.1102,-2.1102,-2.1102,-2.0906,-2.0716,-2.0399,-1.9814,-1.9042,-2.7589,-2.7399,-2.9543,-2.9804,-2.872,-2.9739,-3.0208,-3.012,-2.9777,-3.0157,-3.083,-3.0889,-3.0898,-3.0898,-3.0898,-3.0898,-3.0898,-3.0898,-3.0732,-3.0449,-3.0244,-3.0205,-3.0205,-3.0205,-3.0312,-3.0439,-3.0449,-3.0088,-2.9463,-2.9883,-2.9844,-2.9336,-2.9443,-2.929,-2.8869,-2.8191,-2.8273,-2.8656,-2.8408,-2.8357,-2.8403,-2.7696,-2.6635,-2.5766,-2.6008,-2.6354,-2.6704,-2.8072,-2.8137,-2.6812,-2.6439,-2.6319,-2.6038,-2.5202,-2.4379,-2.3633,-2.2786,-2.2089,-2.1935,-2.2184,-2.2345,-2.2359,-2.2454,-2.2535,-2.2528,-2.2528,-2.252,-2.2528,-2.2542,-2.2528,-2.2528,-2.2403,-2.2352,-2.2352,-2.2506,-2.2674,-2.2791,-2.2981,-2.3091,-2.3106,-2.3106,-2.3106,-2.3106,-2.3106,-2.3106,-2.3106,-2.3106,-2.3106,-2.3106,-2.3106,-2.3106,-2.3106,-2.2926,-2.2801,-2.2793,-2.2543,-2.2299,-2.2174,-2.2048,-2.1922,-2.1818,-2.1874,-2.1881,-2.1566,-2.1411,-2.1222,-2.1166,-2.1102,-2.1102,-2.1102,-2.1102,-2.0912,-2.0716,-2.0462,-1.9941,-2.8892,-2.8352,-2.9133,-2.9751,-2.9751,-3.0267,-3.0733,-3.1257,-3.1064,-3.0879,-3.0908,-3.0898,-3.0898,-3.0898,-3.0898,-3.0898,-3.0898,-3.0898,-3.0889,-3.0742,-3.0498,-3.0312,-3.0312,-3.0244,-3.0381,-3.0684,-3.0742,-3.0508,-2.9971,-3.0117,-2.998,-2.957,-2.9541,-2.9047,-2.8239,-2.7842,-2.7576,-2.7508,-2.7697,-2.8244,-2.8755,-2.8458,-2.7767,-2.6884,-2.6756,-2.6859,-2.7287,-2.8199,-2.8083,-2.666,-2.6388,-2.6328,-2.637,-2.6112,-2.5501,-2.4386,-2.3049,-2.2467,-2.2324,-2.2484,-2.2645,-2.2674,-2.2871,-2.3106,-2.3018,-2.2981,-2.2981,-2.2996,-2.301,-2.3047,-2.2981,-2.282,-2.2667,-2.2645,-2.2637,-2.2754,-2.304,-2.3098,-2.3106,-2.3106,-2.3106,-2.3106,-2.3106,-2.3106,-2.3106,-2.3106,-2.3106,-2.3106,-2.3106,-2.3106,-2.3106,-2.3043,-2.305,-2.2988,-2.2918,-2.2856,-2.2613,-2.2613,-2.2425,-2.2292,-2.2174,-2.2237,-2.2237,-2.1859,-2.1607,-2.1418,-2.1292,-2.1229,-2.1102,-2.1102,-2.1102,-2.1102,-2.0976,-2.0716,-2.0652,-3.0455,-3.0203,-3.1649,-3.1789,-3.1209,-3.1786,-3.1638,-3.1162,-3.1289,-3.1221,-3.0947,-3.0898,-3.0947,-3.0898,-3.0957,-3.0898,-3.0947,-3.0957,-3.0898,-3.0879,-3.0781,-3.0713,-3.0625,-3.0361,-3.0273,-3.041,-3.0459,-3.0156,-2.9785,-3.0107,-3.001,-2.959,-2.9619,-2.9468,-2.9047,-2.8201,-2.8406,-2.8953,-2.8397,-2.8272,-2.8474,-2.8523,-2.7786,-2.672,-2.6421,-2.69,-2.7808,-2.8255,-2.7867,-2.6616,-2.6148,-2.6078,-2.6196,-2.6787,-2.6637,-2.5611,-2.4515,-2.3459,-2.2808,-2.2791,-2.2959,-2.2988,-2.304,-2.3106,-2.3106,-2.3106,-2.3106,-2.3106,-2.3106,-2.3106,-2.3091,-2.3018,-2.2974,-2.2952,-2.2791,-2.2769,-2.3025,-2.3106,-2.3106,-2.3106,-2.3106,-2.3106,-2.3106,-2.3106,-2.3106,-2.3106,-2.3106,-2.3106,-2.3106,-2.3106,-2.3106,-2.3106,-2.3106,-2.3106,-2.3043,-2.3043,-2.2981,-2.2988,-2.2856,-2.2731,-2.2606,-2.248,-2.2355,-2.2104,-2.1859,-2.167,-2.1488,-2.1362,-2.1235,-2.1166,-2.1102,-2.1102,-2.1102,-2.0976,-2.0912,-3.2371,-3.2099,-3.3295,-3.3226,-3.2345,-3.2939,-3.2592,-3.1751,-3.1801,-3.1692,-3.1346,-3.1286,-3.1276,-3.1286,-3.1286,-3.1296,-3.1286,-3.1286,-3.1286,-3.1286,-3.1276,-3.116,-3.0869,-3.0576,-3.0488,-3.0488,-3.0478,-3.0371,-3.0215,-3.0381,-3.0332,-3.0156,-2.9932,-2.9844,-2.9721,-2.855,-2.8273,-2.9031,-2.8542,-2.8244,-2.8584,-2.8978,-2.8618,-2.7727,-2.7273,-2.771,-2.8436,-2.8581,-2.7748,-2.6398,-2.6177,-2.6345,-2.6404,-2.7,-2.7351,-2.6991,-2.5724,-2.4397,-2.3764,-2.3383,-2.3098,-2.3106,-2.3106,-2.3106,-2.3106,-2.3106,-2.3106,-2.3106,-2.3106,-2.3106,-2.3106,-2.3106,-2.3106,-2.3069,-2.2937,-2.2908,-2.3091,-2.3106,-2.3106,-2.3106,-2.3106,-2.3106,-2.3106,-2.3106,-2.3106,-2.3106,-2.3106,-2.3106,-2.3106,-2.3106,-2.3106,-2.3106,-2.3106,-2.3106,-2.3106,-2.3043,-2.3043,-2.305,-2.3043,-2.2981,-2.2918,-2.2731,-2.2606,-2.2355,-2.2174,-2.1922,-2.1734,-2.1614,-2.1425,-2.1362,-2.1235,-2.1109,-2.1102,-2.1102,-2.1102,-3.4202,-3.388,-3.4262,-3.395,-3.3327,-3.3648,-3.3256,-3.2562,-3.2473,-3.2212,-3.182,-3.1787,-3.173,-3.1787,-3.1672,-3.1787,-3.1777,-3.1672,-3.173,-3.173,-3.1672,-3.1508,-3.1112,-3.1073,-3.1033,-3.0985,-3.0995,-3.1005,-3.0974,-3.0995,-3.0976,-3.0857,-3.0525,-3.035,-3.0167,-2.8956,-2.8431,-2.8788,-2.8791,-2.8816,-2.9306,-2.9804,-2.9736,-2.9214,-2.9015,-2.8851,-2.8974,-2.8952,-2.817,-2.566,-2.6529,-2.6763,-2.6841,-2.6866,-2.7512,-2.7937,-2.6488,-2.5322,-2.4871,-2.376,-2.3106,-2.3106,-2.3106,-2.3106,-2.3106,-2.3106,-2.3106,-2.3106,-2.3106,-2.3106,-2.3106,-2.3106,-2.3106,-2.3098,-2.3091,-2.3098,-2.3106,-2.3106,-2.3106,-2.3106,-2.3106,-2.3106,-2.3106,-2.3106,-2.3106,-2.3106,-2.3106,-2.3106,-2.3106,-2.3106,-2.3106,-2.3106,-2.3106,-2.3106,-2.3106,-2.3106,-2.3106,-2.3106,-2.3106,-2.3043,-2.3043,-2.2981,-2.2856,-2.2731,-2.2425,-2.2299,-2.2174,-2.1985,-2.1734,-2.1488,-2.1355,-2.1229,-2.1109,-2.1102,-2.1102,-3.4363,-3.4292,-3.4383,-3.4121,-3.3749,-3.4081,-3.3588,-3.2581,-3.2883,-3.2561,-3.1918,-3.1845,-3.1845,-3.1845,-3.1845,-3.1787,-3.1855,-3.1865,-3.1787,-3.1787,-3.1787,-3.173,-3.1654,-3.1694,-3.1644,-3.1576,-3.1566,-3.1566,-3.1566,-3.1596,-3.1624,-3.1536,-3.1225,-3.106,-3.0886,-3.0441,-3.0277,-3.0306,-3.019,-3.0142,-3.0296,-3.0548,-3.0626,-3.0333,-3.0392,-2.9844,-2.9353,-2.9912,-2.9667,-2.8385,-2.7366,-2.6771,-2.6286,-2.7366,-2.8026,-2.7607,-2.7168,-2.62,-2.5125,-2.4031,-2.3106,-2.3106,-2.3106,-2.3106,-2.3106,-2.3106,-2.3106,-2.3106,-2.3106,-2.3106,-2.3106,-2.3106,-2.3106,-2.3106,-2.3106,-2.3106,-2.3106,-2.3106,-2.3106,-2.3106,-2.3106,-2.3106,-2.3106,-2.3106,-2.3106,-2.3106,-2.3106,-2.3106,-2.3106,-2.3106,-2.3106,-2.3106,-2.3106,-2.3106,-2.3106,-2.3106,-2.3106,-2.3106,-2.3106,-2.3106,-2.3106,-2.3106,-2.2981,-2.2856,-2.2738,-2.2613,-2.248,-2.2237,-2.1985,-2.1734,-2.1544,-2.1355,-2.1229,-2.1166,-2.1102,-3.4859,-3.4859,-3.4859,-3.4727,-3.4636,-3.4737,-3.4279,-3.3421,-3.3472,-3.3026,-3.2333,-3.2201,-3.2201,-3.2201,-3.2201,-3.2258,-3.2319,-3.2472,-3.2554,-3.2625,-3.2758,-3.2891,-3.2881,-3.2751,-3.2601,-3.2044,-3.2029,-3.1999,-3.1888,-3.2037,-3.2009,-3.1797,-3.1634,-3.1526,-3.1556,-3.1392,-3.1247,-3.1199,-3.117,-3.1112,-3.1112,-3.0947,-3.0898,-3.0898,-3.0889,-3.046,-3.003,-3.046,-3.0089,-2.9107,-2.8206,-2.7306,-2.6346,-2.7246,-2.7787,-2.7966,-2.7898,-2.7289,-2.6042,-2.4826,-2.3783,-2.3168,-2.3106,-2.3106,-2.3106,-2.3106,-2.3106,-2.3106,-2.3106,-2.3106,-2.3106,-2.3106,-2.3106,-2.3106,-2.3106,-2.3106,-2.3106,-2.3106,-2.3106,-2.3106,-2.3106,-2.3106,-2.3106,-2.3106,-2.3106,-2.3106,-2.3106,-2.3106,-2.3106,-2.3106,-2.3106,-2.3106,-2.3106,-2.3106,-2.3106,-2.3106,-2.3106,-2.3106,-2.3106,-2.3106,-2.3106,-2.3106,-2.3106,-2.2981,-2.2863,-2.2918,-2.2793,-2.2543,-2.2299,-2.2174,-2.1922,-2.1607,-2.1355,-2.1229,-2.1166,-3.5428,-3.5428,-3.5428,-3.5428,-3.5418,-3.5273,-3.4756,-3.4113,-3.4049,-3.3403,-3.2783,-3.2669,-3.2612,-3.268,-3.2783,-3.2804,-3.3,-3.3217,-3.3365,-3.3465,-3.3713,-3.3827,-3.3868,-3.3736,-3.3354,-3.2312,-3.2606,-3.2585,-3.2484,-3.2496,-3.2695,-3.2244,-3.2024,-3.2016,-3.1976,-3.1797,-3.173,-3.1672,-3.1498,-3.1383,-3.1392,-3.117,-3.1112,-3.1005,-3.1005,-3.0947,-3.0713,-3.0772,-3.0401,-2.9285,-2.9039,-2.8325,-2.7615,-2.7073,-2.7547,-2.8683,-2.8504,-2.7966,-2.7125,-2.5859,-2.4525,-2.341,-2.3241,-2.3193,-2.3201,-2.3223,-2.323,-2.3193,-2.3179,-2.3106,-2.3106,-2.3106,-2.3106,-2.3106,-2.3106,-2.3106,-2.3106,-2.3106,-2.3106,-2.3106,-2.3106,-2.3106,-2.3106,-2.3106,-2.3106,-2.3106,-2.3106,-2.3106,-2.3106,-2.3106,-2.3106,-2.3106,-2.3106,-2.3106,-2.3106,-2.3106,-2.3106,-2.3106,-2.3106,-2.3106,-2.3106,-2.3106,-2.3106,-2.3106,-2.3043,-2.3043,-2.3043,-2.2793,-2.2675,-2.255,-2.2237,-2.1796,-2.1544,-2.1292,-2.1166,-3.5428,-3.5428,-3.5428,-3.5428,-3.5366,-3.5035,-3.464,-3.4111,-3.3738,-3.3223,-3.2799,-3.268,-3.2711,-3.2851,-3.3151,-3.3461,-3.3699,-3.3875,-3.4007,-3.4017,-3.4194,-3.4186,-3.4217,-3.4238,-3.3982,-3.3858,-3.379,-3.369,-3.3615,-3.3788,-3.3608,-3.3515,-3.3031,-3.2751,-3.258,-3.2193,-3.2034,-3.2054,-3.1898,-3.18,-3.1812,-3.1706,-3.1482,-3.1297,-3.1239,-3.1093,-3.0947,-3.0889,-3.0762,-3.045,-2.953,-2.8929,-2.8462,-2.7693,-2.7882,-2.8444,-2.8334,-2.8164,-2.814,-2.6545,-2.5317,-2.4641,-2.4109,-2.3691,-2.3635,-2.3508,-2.3493,-2.3398,-2.3252,-2.3106,-2.3106,-2.3106,-2.3106,-2.3106,-2.3106,-2.3106,-2.3106,-2.3106,-2.3106,-2.3106,-2.3106,-2.3106,-2.3106,-2.3106,-2.3106,-2.3106,-2.3106,-2.3106,-2.3106,-2.3106,-2.3106,-2.3106,-2.3106,-2.3106,-2.3106,-2.3106,-2.3106,-2.3106,-2.3106,-2.3106,-2.3106,-2.3106,-2.3106,-2.3106,-2.3106,-2.3106,-2.3043,-2.2988,-2.2856,-2.2731,-2.2362,-2.1922,-2.1734,-2.1481,-2.1235,-3.5428,-3.5428,-3.5428,-3.5428,-3.5345,-3.4952,-3.4557,-3.4031,-3.3586,-3.3265,-3.311,-3.3068,-3.3213,-3.343,-3.3617,-3.3945,-3.4132,-3.4411,-3.4463,-3.4445,-3.4641,-3.4776,-3.4734,-3.4745,-3.4766,-3.4766,-3.4766,-3.4465,-3.4194,-3.432,-3.436,-3.4041,-3.3646,-3.3505,-3.3474,-3.3271,-3.299,-3.2891,-3.2601,-3.2474,-3.2666,-3.2461,-3.2087,-3.1711,-3.1456,-3.1328,-3.1122,-3.0947,-3.0889,-3.0772,-3.0274,-2.9971,-2.9615,-2.9113,-2.855,-2.8884,-2.8916,-2.8947,-2.9195,-2.7974,-2.7381,-2.6666,-2.5652,-2.5032,-2.4728,-2.4408,-2.3843,-2.3567,-2.331,-2.3106,-2.3106,-2.3106,-2.3106,-2.3106,-2.3106,-2.3106,-2.3106,-2.3106,-2.3106,-2.3106,-2.3106,-2.3106,-2.3106,-2.3106,-2.3106,-2.3106,-2.3106,-2.3106,-2.3106,-2.3106,-2.3106,-2.3106,-2.3106,-2.3106,-2.3106,-2.3106,-2.3106,-2.3106,-2.3106,-2.3106,-2.3106,-2.3106,-2.3106,-2.3106,-2.3106,-2.3106,-2.3106,-2.3043,-2.2981,-2.2856,-2.2543,-2.2237,-2.1922,-2.1607,-2.1362,-3.5428,-3.5418,-3.5324,-3.5345,-3.5324,-3.4838,-3.4476,-3.4214,-3.3789,-3.3534,-3.3513,-3.3534,-3.3769,-3.401,-3.4155,-3.4258,-3.4362,-3.4776,-3.4869,-3.4941,-3.5169,-3.5387,-3.5407,-3.5428,-3.5335,-3.5252,-3.5283,-3.5045,-3.4641,-3.4734,-3.4702,-3.4486,-3.432,-3.4266,-3.4186,-3.3961,-3.4103,-3.3889,-3.3564,-3.3387,-3.3503,-3.3225,-3.2795,-3.2336,-3.2058,-3.189,-3.1682,-3.1545,-3.1368,-3.1299,-3.1152,-3.1123,-3.1034,-3.0531,-2.9981,-2.9789,-3.0405,-3.0357,-3.0287,-2.9654,-2.9081,-2.8533,-2.7419,-2.6776,-2.5894,-2.4967,-2.4027,-2.3654,-2.3406,-2.3179,-2.3135,-2.3106,-2.3106,-2.3106,-2.3106,-2.3106,-2.3106,-2.3106,-2.3106,-2.3106,-2.3106,-2.3106,-2.3106,-2.3106,-2.3106,-2.3106,-2.3106,-2.3106,-2.3106,-2.3106,-2.3106,-2.3106,-2.3106,-2.3106,-2.3106,-2.3106,-2.3106,-2.3106,-2.3106,-2.3106,-2.3106,-2.3106,-2.3106,-2.3106,-2.3106,-2.3106,-2.3106,-2.3106,-2.3043,-2.2918,-2.2731,-2.255,-2.2237,-2.1859,-2.1481,-3.5428,-3.5376,-3.4993,-3.5055,-3.5252,-3.4517,-3.4383,-3.465,-3.4204,-3.4038,-3.3989,-3.3989,-3.41,-3.4227,-3.4608,-3.4879,-3.5148,-3.5221,-3.5262,-3.5283,-3.5376,-3.5428,-3.5428,-3.5428,-3.5428,-3.5428,-3.5428,-3.5387,-3.5169,-3.5221,-3.5283,-3.5107,-3.4807,-3.4733,-3.4641,-3.4414,-3.4072,-3.4082,-3.4041,-3.3982,-3.3984,-3.3966,-3.3685,-3.3424,-3.3264,-3.2954,-3.2535,-3.2386,-3.2236,-3.1974,-3.2023,-3.2062,-3.2031,-3.198,-3.1888,-3.1517,-3.1123,-3.0766,-3.1382,-3.0945,-3.043,-2.9993,-2.9095,-2.7956,-2.689,-2.5597,-2.4486,-2.3654,-2.353,-2.3369,-2.3164,-2.3113,-2.3106,-2.3106,-2.3106,-2.3106,-2.3106,-2.3106,-2.3106,-2.3106,-2.3106,-2.3106,-2.3106,-2.3106,-2.3106,-2.3106,-2.3106,-2.3106,-2.3106,-2.3106,-2.3106,-2.3106,-2.3106,-2.3106,-2.3106,-2.3106,-2.3106,-2.3106,-2.3106,-2.3106,-2.3106,-2.3106,-2.3106,-2.3106,-2.3106,-2.3106,-2.3106,-2.3106,-2.3106,-2.3043,-2.2863,-2.2738,-2.2613,-2.2174,-2.1727,-3.5045,-3.5035,-3.4899,-3.492,-3.4952,-3.4341,-3.4391,-3.465,-3.4339,-3.4277,-3.4484,-3.4515,-3.459,-3.4807,-3.5076,-3.5221,-3.5397,-3.5428,-3.5428,-3.5428,-3.5428,-3.5428,-3.5428,-3.5428,-3.5428,-3.5428,-3.5428,-3.5428,-3.5428,-3.5428,-3.5428,-3.5387,-3.5242,-3.5128,-3.5086,-3.4931,-3.4869,-3.4848,-3.4817,-3.4572,-3.4408,-3.442,-3.44,-3.3993,-3.3852,-3.3548,-3.3326,-3.3005,-3.2824,-3.2532,-3.2471,-3.2411,-3.2297,-3.2363,-3.2519,-3.2477,-3.23,-3.2229,-3.2374,-3.1946,-3.1784,-3.159,-3.0819,-2.9629,-2.8185,-2.6666,-2.5574,-2.5124,-2.4138,-2.352,-2.3208,-2.3113,-2.3106,-2.3106,-2.323,-2.323,-2.323,-2.3106,-2.3106,-2.3106,-2.3106,-2.3106,-2.3106,-2.3106,-2.3106,-2.3106,-2.3106,-2.3106,-2.3106,-2.3106,-2.3106,-2.3106,-2.3106,-2.3106,-2.3106,-2.3106,-2.3106,-2.3106,-2.3106,-2.3106,-2.3106,-2.3106,-2.3106,-2.3106,-2.3106,-2.3106,-2.3106,-2.3106,-2.3106,-2.3043,-2.2988,-2.2863,-2.2738,-2.2543,-2.2104,-3.4754,-3.464,-3.4526,-3.4598,-3.4774,-3.4329,-3.4463,-3.4859,-3.459,-3.4621,-3.4848,-3.4992,-3.5117,-3.5355,-3.5387,-3.5387,-3.5418,-3.5428,-3.5428,-3.5428,-3.5428,-3.5428,-3.5428,-3.5428,-3.5428,-3.5428,-3.5428,-3.5428,-3.5428,-3.5428,-3.5428,-3.5428,-3.5387,-3.5387,-3.5407,-3.5345,-3.5304,-3.5304,-3.5314,-3.5057,-3.4779,-3.4892,-3.4841,-3.4585,-3.433,-3.4085,-3.3922,-3.3781,-3.3498,-3.3264,-3.3049,-3.2966,-3.2812,-3.2874,-3.2939,-3.2988,-3.2986,-3.2995,-3.2955,-3.2844,-3.3135,-3.284,-3.2174,-3.0606,-2.97,-2.8112,-2.6694,-2.6142,-2.4683,-2.3794,-2.331,-2.3186,-2.3106,-2.3293,-2.3479,-2.3542,-2.3604,-2.3658,-2.372,-2.3845,-2.3658,-2.3106,-2.3106,-2.3106,-2.3106,-2.3106,-2.3106,-2.3106,-2.3106,-2.3106,-2.3106,-2.3106,-2.3106,-2.3106,-2.3106,-2.3106,-2.3106,-2.3106,-2.3106,-2.3106,-2.3106,-2.3106,-2.3106,-2.3106,-2.3106,-2.3106,-2.3106,-2.3106,-2.3106,-2.3043,-2.3043,-2.2926,-2.2863,-2.2668,-2.2355,-3.4567,-3.4142,-3.3668,-3.4049,-3.4774,-3.4318,-3.4579,-3.5293,-3.5293,-3.5273,-3.5304,-3.5355,-3.5345,-3.5418,-3.5428,-3.5428,-3.5428,-3.5428,-3.5428,-3.5428,-3.5428,-3.5428,-3.5428,-3.5428,-3.5428,-3.5428,-3.5428,-3.5428,-3.5428,-3.5428,-3.5428,-3.5428,-3.5428,-3.5428,-3.5428,-3.5428,-3.5428,-3.5428,-3.5428,-3.5418,-3.5263,-3.5263,-3.5242,-3.5304,-3.5232,-3.516,-3.4809,-3.4707,-3.4481,-3.4151,-3.3883,-3.3644,-3.35,-3.3401,-3.3324,-3.331,-3.334,-3.3359,-3.3281,-3.3271,-3.335,-3.3009,-3.2365,-3.1515,-3.112,-2.8641,-2.7252,-2.6906,-2.5595,-2.4354,-2.3787,-2.3332,-2.3215,-2.3304,-2.3671,-2.4154,-2.427,-2.4579,-2.4641,-2.4649,-2.4278,-2.3658,-2.3106,-2.3106,-2.3106,-2.3106,-2.3106,-2.3106,-2.3106,-2.3106,-2.3106,-2.3106,-2.3106,-2.3106,-2.3106,-2.3106,-2.3106,-2.3106,-2.3106,-2.3106,-2.3106,-2.3106,-2.3106,-2.3106,-2.3106,-2.3106,-2.3106,-2.3106,-2.3106,-2.3106,-2.3043,-2.2988,-2.2801,-2.2606,-2.223,-3.4287,-3.402,-3.3565,-3.38,-3.4341,-3.4505,-3.4848,-3.5355,-3.5428,-3.5428,-3.5428,-3.5428,-3.5428,-3.5428,-3.5428,-3.5428,-3.5428,-3.5428,-3.5428,-3.5428,-3.5428,-3.5428,-3.5428,-3.5428,-3.5428,-3.5428,-3.5428,-3.5428,-3.5428,-3.5428,-3.5428,-3.5428,-3.5428,-3.5428,-3.5428,-3.5428,-3.5428,-3.5428,-3.5428,-3.5428,-3.5428,-3.5428,-3.5428,-3.5428,-3.5428,-3.5366,-3.5211,-3.5222,-3.4974,-3.4797,-3.4548,-3.4298,-3.3985,-3.3796,-3.3607,-3.3491,-3.3418,-3.3418,-3.3418,-3.3418,-3.3418,-3.3355,-3.2892,-3.2502,-3.2365,-3.0669,-2.969,-2.8759,-2.702,-2.5603,-2.5252,-2.4175,-2.342,-2.3488,-2.3838,-2.4471,-2.4887,-2.5194,-2.5317,-2.5194,-2.4764,-2.4154,-2.3596,-2.3106,-2.3106,-2.3106,-2.3106,-2.3106,-2.3106,-2.3106,-2.3106,-2.3106,-2.3106,-2.3106,-2.3106,-2.3106,-2.3106,-2.3106,-2.3106,-2.3106,-2.3106,-2.3106,-2.3106,-2.3106,-2.3106,-2.3106,-2.3106,-2.3106,-2.3106,-2.3106,-2.3106,-2.3106,-2.2856,-2.2543,-2.223,-3.4007,-3.409,-3.372,-3.3831,-3.4173,-3.4619,-3.5004,-3.5376,-3.5428,-3.5428,-3.5428,-3.5428,-3.5428,-3.5428,-3.5428,-3.5428,-3.5428,-3.5428,-3.5428,-3.5428,-3.5428,-3.5428,-3.5428,-3.5428,-3.5428,-3.5428,-3.5428,-3.5428,-3.5428,-3.5428,-3.5428,-3.5428,-3.5428,-3.5428,-3.5428,-3.5428,-3.5428,-3.5428,-3.5428,-3.5428,-3.5428,-3.5428,-3.5428,-3.5428,-3.5428,-3.5428,-3.5366,-3.5356,-3.5232,-3.5108,-3.4922,-3.46,-3.436,-3.4047,-3.3859,-3.367,-3.3554,-3.3481,-3.3418,-3.3418,-3.3418,-3.3355,-3.3355,-3.3282,-3.3092,-3.2164,-3.0837,-3.0601,-2.8704,-2.7238,-2.6872,-2.5643,-2.5021,-2.5227,-2.4483,-2.4859,-2.5312,-2.5623,-2.5737,-2.5737,-2.501,-2.4031,-2.4092,-2.3542,-2.3106,-2.3106,-2.3106,-2.3106,-2.3106,-2.3106,-2.3106,-2.3106,-2.3106,-2.3106,-2.3106,-2.3106,-2.3106,-2.3106,-2.3106,-2.3106,-2.3106,-2.3106,-2.3106,-2.3106,-2.3106,-2.3106,-2.3106,-2.3106,-2.3106,-2.3106,-2.3106,-2.3106,-2.2981,-2.2675,-2.2362,-3.3727,-3.4051,-3.4041,-3.4111,-3.4176,-3.464,-3.5024,-3.5397,-3.5428,-3.5428,-3.5428,-3.5428,-3.5428,-3.5428,-3.5428,-3.5428,-3.5428,-3.5428,-3.5428,-3.5428,-3.5428,-3.5428,-3.5428,-3.5428,-3.5428,-3.5428,-3.5428,-3.5428,-3.5428,-3.5428,-3.5428,-3.5428,-3.5428,-3.5428,-3.5428,-3.5428,-3.5428,-3.5428,-3.5428,-3.5428,-3.5428,-3.5428,-3.5428,-3.5428,-3.5428,-3.5428,-3.5428,-3.5428,-3.5356,-3.5294,-3.5108,-3.4922,-3.4735,-3.4485,-3.4235,-3.3922,-3.3859,-3.3733,-3.3418,-3.3418,-3.3418,-3.3418,-3.3418,-3.3418,-3.3155,-3.2301,-3.1561,-3.1531,-2.9897,-2.8905,-2.8179,-2.733,-2.7008,-2.6226,-2.547,-2.5187,-2.5691,-2.605,-2.6164,-2.5737,-2.4517,-2.3542,-2.3969,-2.3969,-2.3355,-2.3106,-2.3106,-2.3106,-2.3106,-2.3106,-2.3106,-2.3106,-2.3106,-2.3106,-2.3106,-2.3106,-2.3106,-2.3106,-2.3106,-2.3106,-2.3106,-2.3106,-2.3106,-2.3106,-2.3106,-2.3106,-2.3106,-2.3106,-2.3106,-2.3106,-2.3106,-2.3106,-2.2988,-2.2801,-2.2487,-3.3637,-3.4072,-3.4072,-3.4308,-3.4569,-3.5014,-3.5293,-3.5407,-3.5428,-3.5428,-3.5428,-3.5428,-3.5428,-3.5428,-3.5428,-3.5428,-3.5428,-3.5428,-3.5428,-3.5428,-3.5428,-3.5428,-3.5428,-3.5428,-3.5428,-3.5428,-3.5428,-3.5428,-3.5428,-3.5428,-3.5428,-3.5428,-3.5428,-3.5428,-3.5428,-3.5428,-3.5428,-3.5428,-3.5428,-3.5428,-3.5428,-3.5428,-3.5428,-3.5428,-3.5428,-3.5428,-3.5428,-3.5428,-3.5428,-3.5428,-3.5232,-3.5108,-3.4984,-3.4735,-3.46,-3.4225,-3.4047,-3.3733,-3.3481,-3.3418,-3.3418,-3.3418,-3.3418,-3.3418,-3.3228,-3.3029,-3.2756,-3.2355,-3.1249,-3.0564,-3.0152,-2.8836,-2.8056,-2.6739,-2.607,-2.5848,-2.606,-2.6388,-2.6468,-2.5684,-2.4587,-2.372,-2.372,-2.3783,-2.3293,-2.3106,-2.3106,-2.3106,-2.3106,-2.3106,-2.3106,-2.3106,-2.3106,-2.3106,-2.3106,-2.3106,-2.3106,-2.3106,-2.3106,-2.3106,-2.3106,-2.3106,-2.3106,-2.3106,-2.3106,-2.3106,-2.3106,-2.3106,-2.3106,-2.3106,-2.3106,-2.3106,-2.3043,-2.2863,-2.2613,-3.3513,-3.4041,-3.4072,-3.4434,-3.4983,-3.5304,-3.5428,-3.5428,-3.5428,-3.5428,-3.5428,-3.5428,-3.5428,-3.5428,-3.5428,-3.5428,-3.5428,-3.5428,-3.5428,-3.5428,-3.5428,-3.5428,-3.5428,-3.5428,-3.5428,-3.5428,-3.5428,-3.5428,-3.5428,-3.5428,-3.5428,-3.5428,-3.5428,-3.5428,-3.5428,-3.5428,-3.5428,-3.5428,-3.5428,-3.5428,-3.5428,-3.5428,-3.5428,-3.5428,-3.5428,-3.5428,-3.5428,-3.5428,-3.5428,-3.5428,-3.5356,-3.5294,-3.5108,-3.5046,-3.4922,-3.461,-3.41,-3.3859,-3.367,-3.3418,-3.3418,-3.3418,-3.3418,-3.3418,-3.3418,-3.3282,-3.3282,-3.2956,-3.2365,-3.2164,-3.1642,-3.0319,-2.9404,-2.8196,-2.7479,-2.7311,-2.7015,-2.7418,-2.6518,-2.5672,-2.4587,-2.3845,-2.3347,-2.3293,-2.3106,-2.3106,-2.3106,-2.3106,-2.3106,-2.3106,-2.3106,-2.3106,-2.3106,-2.3106,-2.3106,-2.3106,-2.3106,-2.3106,-2.3106,-2.3106,-2.3106,-2.3106,-2.3106,-2.3106,-2.3106,-2.3106,-2.3106,-2.3106,-2.3106,-2.3106,-2.3106,-2.3106,-2.3106,-2.2981,-2.2738,-3.3265,-3.401,-3.4072,-3.4579,-3.5324,-3.5407,-3.5428,-3.5428,-3.5428,-3.5428,-3.5428,-3.5428,-3.5428,-3.5428,-3.5428,-3.5428,-3.5428,-3.5428,-3.5428,-3.5428,-3.5428,-3.5428,-3.5428,-3.5428,-3.5428,-3.5428,-3.5428,-3.5428,-3.5428,-3.5428,-3.5428,-3.5428,-3.5428,-3.5428,-3.5428,-3.5428,-3.5428,-3.5428,-3.5428,-3.5428,-3.5428,-3.5428,-3.5428,-3.5428,-3.5428,-3.5428,-3.5428,-3.5428,-3.5428,-3.5428,-3.5428,-3.5428,-3.5366,-3.5428,-3.517,-3.4797,-3.4288,-3.411,-3.3932,-3.367,-3.3544,-3.3544,-3.3481,-3.3418,-3.3418,-3.3418,-3.3418,-3.3418,-3.3019,-3.3155,-3.2971,-3.2223,-3.1466,-3.0456,-2.9538,-2.9048,-2.8552,-2.7905,-2.673,-2.5536,-2.4177,-2.3417,-2.323,-2.3106,-2.3106,-2.3106,-2.3106,-2.3106,-2.3106,-2.3106,-2.3106,-2.3106,-2.3106,-2.3106,-2.3106,-2.3106,-2.3106,-2.3106,-2.3106,-2.3106,-2.3106,-2.3106,-2.3106,-2.3106,-2.3106,-2.3106,-2.3106,-2.3106,-2.3106,-2.3106,-2.3106,-2.3106,-2.3106,-2.3106,-2.2918,-3.3265,-3.4041,-3.4072,-3.459,-3.5355,-3.5428,-3.5428,-3.5428,-3.5428,-3.5428,-3.5428,-3.5428,-3.5428,-3.5428,-3.5428,-3.5428,-3.5428,-3.5428,-3.5428,-3.5438,-3.55,-3.5449,-3.5449,-3.548,-3.5449,-3.5438,-3.5438,-3.5428,-3.5428,-3.5428,-3.5428,-3.5428,-3.5428,-3.5428,-3.5428,-3.5428,-3.5428,-3.5428,-3.5428,-3.5428,-3.5428,-3.5428,-3.5428,-3.5428,-3.5428,-3.5428,-3.5428,-3.5428,-3.5428,-3.5428,-3.5428,-3.5428,-3.5428,-3.5418,-3.5232,-3.4922,-3.4673,-3.4548,-3.4298,-3.4173,-3.3975,-3.3796,-3.3733,-3.3607,-3.3481,-3.3418,-3.3418,-3.3418,-3.3418,-3.3418,-3.3418,-3.2898,-3.2258,-3.147,-3.0777,-3.0519,-2.9913,-2.865,-2.7376,-2.5627,-2.426,-2.3479,-2.3293,-2.3106,-2.3106,-2.3106,-2.3106,-2.3106,-2.3106,-2.3106,-2.3106,-2.3106,-2.3106,-2.3106,-2.3106,-2.3106,-2.3106,-2.3106,-2.3106,-2.3106,-2.3106,-2.3106,-2.3106,-2.3106,-2.3106,-2.3106,-2.3106,-2.3106,-2.3106,-2.3106,-2.3106,-2.3106,-2.3106,-2.3106,-2.3106,-3.341,-3.4121,-3.4329,-3.4766,-3.5345,-3.5428,-3.5428,-3.5428,-3.5428,-3.5428,-3.5428,-3.5428,-3.5428,-3.5428,-3.5428,-3.5428,-3.5428,-3.5438,-3.5511,-3.5738,-3.5697,-3.5883,-3.5883,-3.5769,-3.5728,-3.5656,-3.5521,-3.5428,-3.5428,-3.5428,-3.5428,-3.5428,-3.5428,-3.5428,-3.5428,-3.5428,-3.5428,-3.5428,-3.5428,-3.5428,-3.5428,-3.5428,-3.5428,-3.5428,-3.5428,-3.5428,-3.5428,-3.5428,-3.5428,-3.5428,-3.5428,-3.5428,-3.5428,-3.5418,-3.5356,-3.5108,-3.4922,-3.4797,-3.461,-3.4413,-3.4298,-3.411,-3.3985,-3.3796,-3.3607,-3.3481,-3.3418,-3.3418,-3.3418,-3.3418,-3.3418,-3.3262,-3.2656,-3.2043,-3.1979,-3.1913,-3.0798,-2.9591,-2.7895,-2.6018,-2.4797,-2.385,-2.341,-2.323,-2.3106,-2.3106,-2.3106,-2.3106,-2.3106,-2.3106,-2.3106,-2.3106,-2.3106,-2.3106,-2.3106,-2.3106,-2.3106,-2.3106,-2.3106,-2.3106,-2.3106,-2.3106,-2.3106,-2.3106,-2.3106,-2.3106,-2.3106,-2.3106,-2.3106,-2.3106,-2.3106,-2.3106,-2.3106,-2.3106,-2.3106,-3.3696,-3.4113,-3.4671,-3.5045,-3.5397,-3.5428,-3.5428,-3.5428,-3.5428,-3.5428,-3.5428,-3.5428,-3.5428,-3.5428,-3.5428,-3.5428,-3.5469,-3.5521,-3.5749,-3.6121,-3.6173,-3.6318,-3.6422,-3.638,-3.6121,-3.5956,-3.578,-3.5562,-3.5449,-3.5428,-3.5428,-3.5428,-3.5428,-3.5428,-3.5428,-3.5428,-3.5428,-3.5428,-3.5428,-3.5428,-3.5428,-3.5428,-3.5428,-3.5428,-3.5428,-3.5428,-3.5428,-3.5428,-3.5428,-3.5428,-3.5428,-3.5428,-3.5428,-3.5428,-3.5366,-3.5304,-3.5108,-3.5056,-3.4922,-3.4735,-3.461,-3.436,-3.4173,-3.3985,-3.3859,-3.3544,-3.3418,-3.3418,-3.3418,-3.3418,-3.3418,-3.3418,-3.2986,-3.271,-3.271,-3.2498,-3.1884,-3.0314,-2.8331,-2.6587,-2.5233,-2.4293,-2.3285,-2.3106,-2.3106,-2.3106,-2.3106,-2.3106,-2.3106,-2.3106,-2.3106,-2.3106,-2.3106,-2.3106,-2.3106,-2.3106,-2.3106,-2.3106,-2.3106,-2.3106,-2.3106,-2.3106,-2.3106,-2.3106,-2.3106,-2.3106,-2.3106,-2.3106,-2.3106,-2.3106,-2.3106,-2.3106,-2.3106,-2.3106,-2.3106,-3.3706,-3.4194,-3.4931,-3.5335,-3.5418,-3.5428,-3.5418,-3.5428,-3.5428,-3.5479,-3.5418,-3.5418,-3.5479,-3.5531,-3.5768,-3.5778,-3.5624,-3.6123,-3.5987,-3.6287,-3.6484,-3.6753,-3.6825,-3.6753,-3.6484,-3.6183,-3.5945,-3.5738,-3.5542,-3.5469,-3.5428,-3.5428,-3.5428,-3.5428,-3.5428,-3.5428,-3.5428,-3.5428,-3.5428,-3.5428,-3.5428,-3.5428,-3.5428,-3.5428,-3.5428,-3.5428,-3.5428,-3.5428,-3.5428,-3.5428,-3.5428,-3.5428,-3.5428,-3.5428,-3.5428,-3.5356,-3.5294,-3.5232,-3.518,-3.5108,-3.4984,-3.4797,-3.461,-3.4298,-3.3985,-3.3607,-3.3418,-3.3418,-3.3418,-3.3418,-3.3418,-3.3418,-3.3408,-3.3359,-3.331,-3.3066,-3.2822,-3.0891,-2.8871,-2.7331,-2.5845,-2.4649,-2.3626,-2.3106,-2.3106,-2.3106,-2.3106,-2.3106,-2.3106,-2.3106,-2.3106,-2.3106,-2.3106,-2.3106,-2.3106,-2.3106,-2.3106,-2.3106,-2.3106,-2.3106,-2.3106,-2.3106,-2.3106,-2.3106,-2.3106,-2.3106,-2.3106,-2.3106,-2.3106,-2.3106,-2.3106,-2.3106,-2.3106,-2.3106,-2.3106,-3.4284,-3.4235,-3.5045,-3.5716,-3.6175,-3.6237,-3.6237,-3.6247,-3.6247,-3.6247,-3.6237,-3.6237,-3.6237,-3.6494,-3.7051,-3.6852,-3.6763,-3.7115,-3.7055,-3.6987,-3.6939,-3.7239,-3.727,-3.7198,-3.7032,-3.6732,-3.6246,-3.5935,-3.5738,-3.548,-3.5428,-3.5438,-3.5438,-3.5428,-3.5428,-3.5428,-3.5428,-3.5428,-3.5428,-3.5428,-3.5428,-3.5428,-3.5428,-3.5428,-3.5428,-3.5428,-3.5428,-3.5428,-3.5428,-3.5428,-3.5428,-3.5428,-3.5428,-3.5428,-3.5428,-3.5428,-3.5356,-3.5428,-3.5428,-3.5356,-3.5294,-3.517,-3.4922,-3.4548,-3.4235,-3.3859,-3.3544,-3.3481,-3.3418,-3.3418,-3.3418,-3.3418,-3.3418,-3.3389,-3.333,-3.3184,-3.2822,-3.174,-3.0061,-2.8657,-2.7093,-2.5627,-2.4517,-2.3293,-2.3293,-2.3106,-2.3106,-2.3106,-2.3106,-2.3106,-2.3106,-2.3106,-2.3106,-2.3106,-2.3106,-2.3106,-2.3106,-2.3106,-2.3106,-2.3106,-2.3106,-2.3106,-2.3106,-2.3106,-2.3106,-2.3106,-2.3106,-2.3106,-2.3106,-2.3106,-2.3106,-2.3106,-2.3106,-2.3106,-2.3106,-3.5109,-3.464,-3.5331,-3.6359,-3.7429,-3.7539,-3.755,-3.7539,-3.7539,-3.7539,-3.7632,-3.7867,-3.7807,-3.8274,-3.9062,-3.8902,-3.8691,-3.8527,-3.8274,-3.7886,-3.7639,-3.776,-3.7777,-3.7757,-3.7519,-3.7125,-3.6629,-3.638,-3.6204,-3.5863,-3.5604,-3.5521,-3.5459,-3.5428,-3.5428,-3.5428,-3.5428,-3.5428,-3.5428,-3.5428,-3.5428,-3.5428,-3.5428,-3.5428,-3.5428,-3.5428,-3.5428,-3.5428,-3.5428,-3.5428,-3.5428,-3.5428,-3.5428,-3.5428,-3.5428,-3.5428,-3.5428,-3.5428,-3.5428,-3.5428,-3.5366,-3.5294,-3.5046,-3.4797,-3.4485,-3.4173,-3.3859,-3.3607,-3.3544,-3.3418,-3.3418,-3.3418,-3.3418,-3.3379,-3.333,-3.3291,-3.2871,-3.2341,-3.1024,-2.9659,-2.8287,-2.6734,-2.5493,-2.4209,-2.3604,-2.3355,-2.3106,-2.3106,-2.3106,-2.3106,-2.3106,-2.3106,-2.3106,-2.3106,-2.3106,-2.3106,-2.3106,-2.3106,-2.3106,-2.3106,-2.3106,-2.3106,-2.3106,-2.3106,-2.3106,-2.3106,-2.3106,-2.3106,-2.3106,-2.3106,-2.3106,-2.3106,-2.3106,-2.3106,-2.3106,-3.5304,-3.6697,-3.6892,-3.767,-3.8744,-3.8803,-3.8862,-3.8862,-3.8862,-3.8851,-3.9224,-4.0316,-4.0539,-3.9525,-3.9714,-3.9916,-4.0345,-3.9918,-3.9423,-3.9098,-3.8511,-3.8301,-3.8308,-3.8447,-3.7874,-3.7425,-3.7011,-3.6753,-3.6608,-3.6235,-3.5987,-3.5987,-3.5542,-3.5459,-3.5438,-3.5438,-3.5428,-3.5428,-3.5428,-3.5428,-3.5428,-3.5428,-3.5428,-3.5428,-3.5428,-3.5428,-3.5428,-3.5428,-3.5428,-3.5428,-3.5428,-3.5428,-3.5428,-3.5428,-3.5428,-3.5428,-3.5428,-3.5428,-3.5428,-3.5428,-3.5428,-3.5428,-3.517,-3.5108,-3.4797,-3.4485,-3.4173,-3.3912,-3.3796,-3.367,-3.3607,-3.3418,-3.3418,-3.332,-3.3252,-3.3242,-3.3047,-3.2289,-3.1223,-3.0223,-2.9137,-2.786,-2.6771,-2.5615,-2.4579,-2.4147,-2.341,-2.3293,-2.3106,-2.3106,-2.3106,-2.3106,-2.3106,-2.3106,-2.3106,-2.3106,-2.3106,-2.3106,-2.3106,-2.3106,-2.3106,-2.3106,-2.3106,-2.3106,-2.3106,-2.3106,-2.3106,-2.3106,-2.3106,-2.3106,-2.3106,-2.3106,-2.3106,-2.3106,-2.3106]},{"header":{"parameterUnit":"m.s-1","parameterCategory":1,"la1":31.0,"la2":29.5877,"lo1":-88.7671,"lo2":-86.6584,"dy":0.0162,"dx":0.0185,"nx":115,"ny":88,"refTime":"2025-01-22T06:00:00:Z","depth":0,"parameterNumber":3,"parameterNumberName":"V-component_of_WINDS"},"data":[0.0,0.0,0.0,0.0,0.0,0.0,0.0,0.0,0.0,0.0,0.0,0.0,0.0,0.0,0.0,0.0,0.0,0.0,0.0,0.0,0.0,0.0,0.0,0.0,0.0,0.0,0.0,0.0,0.0,0.0,0.0,0.0,0.0,0.0,0.0,0.0,0.0,0.0,0.0,0.0,0.0,0.0,0.0,0.0,0.0,0.0,0.0,0.0,0.0,0.0,0.0,0.0,0.0,0.0,0.0,0.0,0.0,0.0,0.0,0.0,0.0,0.0,0.0,0.0,0.0,0.0,0.0,0.0,0.0,0.0,0.0,0.0,0.0,0.0,0.0,0.0,0.0,0.0,0.0,0.0,0.0,0.0,0.0,0.0,0.0,0.0,0.0,0.0,0.0,0.0,0.0,0.0,0.0,0.0,0.0,0.0,0.0,0.0,0.0,0.0,0.0,0.0,0.0,0.0,0.0,0.0,0.0,0.0,0.0,0.0,0.0,0.0,0.0,0.0,0.0,0.0,0.0,0.0,0.0,0.0,0.0,0.0,0.0,0.0,0.0,0.0,0.0,0.0,0.0,0.0,0.0,0.0,0.0,0.0,0.0,0.0,0.0,0.0,0.0,0.0,0.0,0.0,0.0,0.0,0.0,0.0,0.0,0.0,0.0,0.0,0.0,0.0,0.0,0.0,0.0,0.0,0.0,0.0,0.0,0.0,0.0,0.0,0.0,0.0,0.0,0.0,0.0,0.0,0.0,0.0,0.0,0.0,0.0,0.0,0.0,0.0,0.0,0.0,0.0,0.0,0.0,0.0,0.0,0.0,0.0,0.0,0.0,0.0,0.0,0.0,0.0,0.0,0.0,0.0,0.0,0.0,0.0,0.0,0.0,0.0,0.0,0.0,0.0,0.0,0.0,0.0,0.0,0.0,0.0,0.0,0.0,0.0,0.0,0.0,0.0,0.0,0.0,0.0,0.0,0.0,0.0,0.0,0.0,0.0,0.0,0.0,0.0,0.0,0.0,0.0,0.0,0.0,0.0,0.0,0.0,0.0,0.0,0.0,0.0,0.0,0.0,0.0,0.0,0.0,0.0,0.0,0.0,0.0,0.0,0.0,0.0,0.0,0.0,0.0,0.0,0.0,0.0,0.0,0.0,0.0,0.0,0.0,0.0,0.0,0.0,0.0,0.0,0.0,0.0,0.0,0.0,0.0,0.0,0.0,0.0,0.0,0.0,0.0,0.0,0.0,0.0,0.0,0.0,0.0,0.0,0.0,0.0,0.0,0.0,0.0,0.0,0.0,0.0,0.0,0.0,0.0,0.0,0.0,0.0,0.0,0.0,0.0,0.0,0.0,0.0,0.0,0.0,0.0,0.0,0.0,0.0,0.0,0.0,0.0,0.0,0.0,0.0,0.0,0.0,0.0,0.0,0.0,0.0,0.0,0.0,0.0,0.0,0.0,0.0,0.0,0.0,0.0,0.0,0.0,0.0,0.0,0.0,0.0,0.0,0.0,0.0,0.0,0.0,0.0,0.0,0.0,0.0,0.0,0.0,0.0,0.0,0.0,0.0,0.0,0.0,0.0,0.0,0.0,0.0,0.0,0.0,0.0,0.0,0.0,0.0,0.0,0.0,0.0,0.0,0.0,0.0,0.0,0.0,0.0,0.0,0.0,0.0,0.0,0.0,0.0,0.0,0.0,0.0,0.0,0.0,0.0,0.0,0.0,0.0,0.0,0.0,0.0,0.0,0.0,0.0,0.0,0.0,0.0,0.0,0.0,0.0,0.0,0.0,0.0,0.0,0.0,0.0,0.0,0.0,0.0,0.0,0.0,0.0,0.0,0.0,0.0,0.0,0.0,0.0,0.0,0.0,0.0,0.0,0.0,0.0,0.0,0.0,0.0,0.0,0.0,0.0,0.0,0.0,0.0,0.0,0.0,0.0,0.0,0.0,0.0,0.0,0.0,0.0,0.0,0.0,0.0,0.0,0.0,0.0,0.0,0.0,0.0,0.0,0.0,0.0,0.0,0.0,0.0,0.0,0.0,0.0,0.0,0.0,0.0,0.0,0.0,0.0,0.0,0.0,0.0,0.0,0.0,0.0,0.0,0.0,0.0,0.0,0.0,0.0,0.0,0.0,0.0,0.0,0.0,0.0,0.0,0.0,0.0,0.0,0.0,0.0,0.0,0.0,0.0,0.0,0.0,0.0,0.0,0.0,0.0,0.0,0.0,0.0,0.0,0.0,0.0,0.0,0.0,0.0,0.0,0.0,0.0,0.0,0.0,0.0,0.0,0.0,0.0,0.0,0.0,0.0,0.0,0.0,0.0,0.0,0.0,0.0,0.0,0.0,0.0,0.0,0.0,0.0,0.0,0.0,0.0,0.0,0.0,0.0,0.0,0.0,0.0,0.0,0.0,0.0,0.0,0.0,0.0,0.0,0.0,0.0,0.0,0.0,0.0,0.0,0.0,0.0,0.0,0.0,0.0,0.0,0.0,0.0,0.0,0.0,0.0,0.0,0.0,0.0,0.0,0.0,0.0,0.0,0.0,0.0,0.0,0.0,0.0,0.0,0.0,0.0,0.0,0.0,0.0,0.0,0.0,0.0,0.0,0.0,0.0,0.0,0.0,0.0,0.0,0.0,0.0,0.0,0.0,0.0,0.0,0.0,0.0,0.0,0.0,0.0,0.0,0.0,0.0,0.0,0.0,0.0,0.0,0.0,0.0,0.0,0.0,0.0,0.0,0.0,0.0,0.0,0.0,0.0,0.0,0.0,0.0,0.0,0.0,0.0,0.0,0.0,0.0,0.0,0.0,0.0,0.0,0.0,0.0,0.0,0.0,0.0,0.0,0.0,0.0,0.0,0.0,0.0,0.0,0.0,0.0,0.0,0.0,0.0,0.0,0.0,0.0,0.0,0.0,0.0,0.0,0.0,0.0,0.0,0.0,0.0,0.0,0.0,0.0,0.0,0.0,0.0,0.0,0.0,0.0,0.0,0.0,0.0,0.0,0.0,0.0,0.0,0.0,0.0,0.0,0.0,0.0,0.0,0.0,0.0,0.0,0.0,0.0,0.0,0.0,0.0,0.0,0.0,0.0,0.0,0.0,0.0,0.0,0.0,0.0,0.0,0.0,0.0,0.0,0.0,0.0,0.0,0.0,0.0,0.0,0.0,0.0,0.0,0.0,0.0,0.0,0.0,0.0,0.0,0.0,0.0,0.0,0.0,0.0,0.0,0.0,0.0,0.0,0.0,0.0,0.0,0.0,0.0,0.0,0.0,0.0,0.0,0.0,0.0,0.0,0.0,0.0,0.0,0.0,0.0,0.0,0.0,0.0,0.0,0.0,0.0,0.0,0.0,0.0,0.0,0.0,0.0,0.0,0.0,0.0,0.0,0.0,0.0,0.0,0.0,0.0,0.0,0.0,0.0,0.0,0.0,0.0,0.0,0.0,0.0,0.0,0.0,0.0,0.0,0.0,0.0,0.0,0.0,0.0,0.0,0.0,0.0,0.0,0.0,0.0,0.0,0.0,0.0,0.0,0.0,0.0,0.0,0.0,0.0,0.0,0.0,0.0,0.0,0.0,0.0,0.0,0.0,0.0,0.0,0.0,0.0,0.0,0.0,0.0,0.0,0.0,0.0,0.0,0.0,0.0,0.0,0.0,0.0,0.0,0.0,0.0,0.0,0.0,0.0,0.0,0.0,0.0,0.0,0.0,0.0,0.0,0.0,0.0,0.0,0.0,0.0,0.0,0.0,0.0,0.0,0.0,0.0,0.0,0.0,0.0,0.0,0.0,0.0,0.0,0.0,0.0,0.0,0.0,0.0,0.0,0.0,0.0,0.0,0.0,0.0,0.0,0.0,0.0,0.0,0.0,0.0,0.0,0.0,0.0,0.0,0.0,0.0,0.0,0.0,0.0,0.0,0.0,0.0,0.0,0.0,0.0,0.0,0.0,0.0,0.0,0.0,0.0,0.0,0.0,0.0,0.0,0.0,0.0,0.0,0.0,0.0,0.0,0.0,0.0,0.0,0.0,0.0,0.0,0.0,0.0,0.0,0.0,0.0,0.0,0.0,0.0,0.0,0.0,0.0,0.0,0.0,0.0,0.0,0.0,0.0,0.0,0.0,0.0,0.0,0.0,0.0,0.0,0.0,0.0,0.0,0.0,0.0,0.0,0.0,0.0,0.0,0.0,0.0,0.0,0.0,0.0,0.0,0.0,0.0,0.0,0.0,0.0,0.0,0.0,0.0,0.0,0.0,0.0,0.0,0.0,0.0,0.0,2.6745,0.0,0.0,0.0,0.0,0.0,0.0,0.0,0.0,0.0,0.0,0.0,0.0,0.0,0.0,0.0,0.0,0.0,0.0,0.0,0.0,0.0,0.0,0.0,0.0,0.0,0.0,0.0,0.0,0.0,0.0,0.0,0.0,0.0,0.0,0.0,0.0,0.0,0.0,0.0,0.0,0.0,0.0,0.0,0.0,0.0,0.0,0.0,0.0,0.0,0.0,0.0,0.0,0.0,0.0,0.0,0.0,0.0,0.0,0.0,0.0,0.0,0.0,0.0,0.0,0.0,0.0,0.0,0.0,0.0,0.0,0.0,0.0,0.0,0.0,0.0,0.0,0.0,0.0,0.0,0.0,0.0,0.0,0.0,0.0,0.0,0.0,0.0,0.0,0.0,0.0,0.0,0.0,0.0,0.0,0.0,0.0,0.0,0.0,0.0,0.0,0.0,0.0,0.0,0.0,0.0,0.0,0.0,0.0,0.0,0.0,2.914,2.8597,2.872,2.802,2.644,0.0,0.0,0.0,0.0,0.0,0.0,0.0,0.0,0.0,0.0,0.0,0.0,0.0,0.0,0.0,0.0,0.0,0.0,0.0,0.0,0.0,0.0,0.0,0.0,0.0,0.0,0.0,0.0,0.0,0.0,0.0,0.0,0.0,0.0,0.0,0.0,0.0,0.0,0.0,0.0,0.0,0.0,0.0,0.0,0.0,0.0,0.0,0.0,0.0,0.0,0.0,0.0,0.0,0.0,0.0,0.0,0.0,0.0,0.0,0.0,0.0,0.0,0.0,0.0,0.0,0.0,0.0,0.0,0.0,0.0,0.0,0.0,0.0,0.0,0.0,0.0,0.0,0.0,0.0,0.0,0.0,0.0,0.0,0.0,0.0,0.0,0.0,0.0,0.0,0.0,0.0,0.0,0.0,0.0,0.0,0.0,0.0,0.0,0.0,0.0,0.0,0.0,0.0,0.0,0.0,0.0,0.0,0.0,0.0,0.0,0.0,0.0,2.9016,2.8186,2.6314,0.0,0.0,0.0,0.0,0.0,0.0,0.0,0.0,0.0,0.0,0.0,0.0,0.0,0.0,0.0,0.0,0.0,0.0,0.0,0.0,0.0,0.0,0.0,0.0,0.0,0.0,0.0,0.0,0.0,0.0,0.0,0.0,0.0,0.0,0.0,0.0,0.0,0.0,0.0,0.0,0.0,0.0,0.0,0.0,0.0,0.0,0.0,0.0,0.0,0.0,0.0,0.0,0.0,0.0,0.0,0.0,0.0,0.0,0.0,0.0,0.0,0.0,0.0,0.0,0.0,0.0,0.0,0.0,0.0,0.0,0.0,0.0,0.0,0.0,0.0,0.0,0.0,0.0,0.0,0.0,0.0,0.0,0.0,0.0,0.0,0.0,0.0,0.0,0.0,0.0,0.0,0.0,0.0,0.0,0.0,0.0,0.0,0.0,0.0,0.0,0.0,0.0,0.0,0.0,0.0,0.0,0.0,0.0,0.0,0.0,2.9784,2.9258,2.9881,0.0,2.6914,0.0,0.0,0.0,0.0,0.0,0.0,0.0,0.0,0.0,0.0,0.0,0.0,0.0,0.0,0.0,0.0,0.0,0.0,0.0,0.0,0.0,0.0,0.0,0.0,0.0,0.0,0.0,0.0,0.0,0.0,0.0,0.0,0.0,0.0,0.0,0.0,0.0,0.0,0.0,0.0,0.0,0.0,0.0,0.0,0.0,0.0,0.0,0.0,0.0,0.0,0.0,0.0,0.0,0.0,0.0,0.0,0.0,0.0,0.0,0.0,0.0,0.0,0.0,0.0,0.0,0.0,0.0,0.0,0.0,0.0,0.0,0.0,0.0,0.0,0.0,0.0,0.0,0.0,0.0,0.0,0.0,0.0,0.0,0.0,0.0,0.0,0.0,0.0,0.0,0.0,0.0,0.0,0.0,0.0,0.0,0.0,0.0,0.0,0.0,0.0,0.0,0.0,0.0,0.0,0.0,0.0,0.0,0.0,0.0,0.0,0.0,2.9797,2.9109,2.8016,0.0,0.0,0.0,0.0,0.0,0.0,0.0,0.0,0.0,0.0,0.0,0.0,0.0,0.0,0.0,0.0,0.0,0.0,0.0,0.0,0.0,0.0,0.0,0.0,0.0,0.0,0.0,0.0,0.0,0.0,0.0,0.0,0.0,0.0,0.0,0.0,0.0,0.0,0.0,0.0,0.0,0.0,0.0,0.0,0.0,0.0,0.0,0.0,0.0,0.0,0.0,0.0,0.0,0.0,0.0,0.0,0.0,0.0,0.0,0.0,0.0,0.0,0.0,0.0,0.0,0.0,0.0,0.0,0.0,0.0,0.0,0.0,0.0,0.0,0.0,0.0,0.0,0.0,0.0,0.0,0.0,0.0,0.0,0.0,0.0,0.0,0.0,0.0,0.0,0.0,0.0,0.0,0.0,0.0,0.0,0.0,0.0,0.0,0.0,0.0,0.0,0.0,0.0,0.0,0.0,0.0,0.0,0.0,0.0,0.0,3.0401,0.0,3.0045,2.9033,2.7789,2.6495,0.0,0.0,0.0,0.0,0.0,0.0,0.0,0.0,0.0,0.0,0.0,0.0,0.0,0.0,0.0,0.0,0.0,0.0,0.0,0.0,0.0,0.0,0.0,0.0,0.0,0.0,0.0,0.0,0.0,0.0,0.0,0.0,0.0,0.0,0.0,0.0,0.0,0.0,0.0,0.0,0.0,0.0,0.0,0.0,0.0,0.0,0.0,0.0,0.0,0.0,0.0,0.0,0.0,0.0,0.0,0.0,0.0,0.0,0.0,0.0,0.0,0.0,0.0,0.0,0.0,0.0,0.0,0.0,0.0,0.0,0.0,0.0,0.0,0.0,0.0,0.0,0.0,0.0,0.0,0.0,0.0,0.0,0.0,0.0,0.0,0.0,0.0,0.0,0.0,0.0,0.0,0.0,0.0,0.0,0.0,0.0,0.0,0.0,0.0,0.0,0.0,0.0,0.0,0.0,0.0,0.0,0.0,0.0,0.0,3.0438,3.0113,3.0137,3.0319,2.9472,0.0,0.0,0.0,0.0,0.0,0.0,0.0,0.0,0.0,0.0,0.0,0.0,0.0,0.0,0.0,0.0,0.0,0.0,0.0,0.0,0.0,0.0,0.0,0.0,0.0,0.0,0.0,0.0,0.0,0.0,0.0,0.0,0.0,0.0,0.0,0.0,0.0,0.0,0.0,0.0,0.0,0.0,0.0,0.0,0.0,0.0,0.0,0.0,0.0,0.0,0.0,0.0,0.0,0.0,0.0,0.0,0.0,0.0,0.0,0.0,0.0,0.0,0.0,0.0,0.0,0.0,0.0,0.0,0.0,0.0,0.0,0.0,0.0,0.0,0.0,0.0,0.0,0.0,0.0,0.0,0.0,0.0,0.0,0.0,0.0,0.0,0.0,0.0,0.0,0.0,0.0,0.0,0.0,0.0,0.0,0.0,0.0,0.0,0.0,0.0,0.0,0.0,0.0,0.0,0.0,0.0,0.0,0.0,0.0,3.0401,3.0594,3.0747,3.0842,3.0161,2.9306,0.0,0.0,0.0,0.0,0.0,0.0,0.0,0.0,0.0,0.0,0.0,0.0,0.0,0.0,0.0,0.0,0.0,0.0,0.0,0.0,0.0,0.0,0.0,0.0,0.0,0.0,0.0,0.0,0.0,0.0,0.0,0.0,0.0,0.0,0.0,0.0,0.0,0.0,0.0,0.0,0.0,0.0,0.0,0.0,0.0,0.0,0.0,0.0,0.0,0.0,0.0,0.0,0.0,0.0,0.0,0.0,0.0,0.0,0.0,0.0,0.0,0.0,0.0,0.0,0.0,0.0,0.0,0.0,0.0,0.0,0.0,0.0,0.0,0.0,0.0,0.0,0.0,0.0,0.0,0.0,0.0,0.0,0.0,0.0,0.0,0.0,0.0,0.0,0.0,0.0,0.0,0.0,0.0,0.0,0.0,0.0,0.0,0.0,0.0,0.0,0.0,0.0,0.0,0.0,0.0,0.0,0.0,0.0,0.0,3.0113,0.0,3.0708,0.0,2.976,2.8926,0.0,0.0,0.0,0.0,0.0,0.0,0.0,0.0,0.0,0.0,0.0,0.0,0.0,0.0,0.0,0.0,0.0,0.0,0.0,0.0,0.0,0.0,0.0,0.0,0.0,0.0,0.0,0.0,0.0,0.0,0.0,0.0,0.0,0.0,0.0,0.0,0.0,0.0,0.0,0.0,0.0,0.0,0.0,0.0,0.0,0.0,0.0,0.0,0.0,0.0,0.0,0.0,0.0,0.0,0.0,0.0,0.0,0.0,0.0,0.0,0.0,0.0,0.0,0.0,0.0,0.0,0.0,0.0,0.0,0.0,0.0,0.0,0.0,0.0,0.0,0.0,0.0,0.0,0.0,0.0,0.0,0.0,0.0,0.0,0.0,0.0,0.0,0.0,0.0,0.0,0.0,0.0,0.0,0.0,0.0,0.0,0.0,0.0,0.0,0.0,0.0,0.0,0.0,0.0,0.0,0.0,0.0,0.0,3.0124,3.0087,3.015,3.0026,2.9375,2.9438,2.8557,0.0,0.0,0.0,0.0,0.0,0.0,0.0,0.0,0.0,0.0,0.0,0.0,0.0,0.0,0.0,0.0,0.0,0.0,0.0,0.0,0.0,0.0,0.0,0.0,0.0,0.0,0.0,0.0,0.0,0.0,0.0,0.0,0.0,0.0,0.0,0.0,0.0,0.0,0.0,0.0,0.0,0.0,0.0,0.0,0.0,0.0,0.0,0.0,0.0,0.0,0.0,0.0,0.0,0.0,0.0,0.0,0.0,0.0,0.0,0.0,0.0,0.0,0.0,0.0,0.0,0.0,0.0,0.0,0.0,0.0,0.0,0.0,0.0,0.0,0.0,0.0,0.0,0.0,0.0,0.0,0.0,0.0,0.0,0.0,0.0,0.0,0.0,0.0,0.0,0.0,0.0,0.0,0.0,0.0,0.0,0.0,0.0,0.0,0.0,0.0,0.0,0.0,0.0,0.0,0.0,0.0,0.0,0.0,0.0,2.9598,3.0827,3.146,3.1415,3.0981,3.0563,0.0,0.0,0.0,0.0,0.0,0.0,0.0,0.0,0.0,0.0,0.0,0.0,0.0,0.0,0.0,0.0,0.0,0.0,0.0,0.0,0.0,0.0,0.0,0.0,0.0,0.0,0.0,0.0,0.0,0.0,0.0,0.0,0.0,0.0,0.0,0.0,0.0,0.0,0.0,0.0,0.0,0.0,0.0,0.0,0.0,0.0,0.0,0.0,0.0,0.0,0.0,0.0,0.0,0.0,0.0,0.0,0.0,0.0,0.0,0.0,0.0,0.0,0.0,0.0,0.0,0.0,0.0,0.0,0.0,0.0,0.0,0.0,0.0,0.0,0.0,0.0,0.0,0.0,0.0,0.0,0.0,0.0,0.0,0.0,0.0,0.0,0.0,0.0,0.0,0.0,0.0,0.0,0.0,0.0,0.0,0.0,0.0,0.0,0.0,0.0,0.0,0.0,0.0,0.0,0.0,0.0,0.0,0.0,0.0,3.0915,3.2162,3.2847,3.2761,3.2113,3.153,3.0978,0.0,0.0,0.0,0.0,0.0,0.0,0.0,0.0,0.0,0.0,0.0,0.0,0.0,0.0,0.0,0.0,0.0,0.0,0.0,0.0,0.0,0.0,0.0,0.0,0.0,0.0,0.0,0.0,0.0,0.0,0.0,0.0,0.0,0.0,0.0,0.0,0.0,0.0,0.0,0.0,0.0,0.0,0.0,0.0,0.0,0.0,0.0,0.0,0.0,0.0,0.0,0.0,0.0,0.0,0.0,0.0,0.0,0.0,0.0,0.0,0.0,0.0,0.0,0.0,0.0,0.0,0.0,0.0,0.0,0.0,0.0,0.0,0.0,0.0,0.0,0.0,0.0,0.0,0.0,0.0,0.0,0.0,0.0,0.0,0.0,0.0,0.0,0.0,0.0,0.0,0.0,0.0,0.0,0.0,0.0,0.0,0.0,0.0,0.0,0.0,0.0,0.0,0.0,0.0,0.0,0.0,0.0,0.0,3.3592,3.4143,3.4108,3.3423,3.2843,3.1702,0.0,0.0,0.0,0.0,0.0,0.0,0.0,0.0,0.0,0.0,0.0,0.0,0.0,0.0,0.0,0.0,0.0,0.0,0.0,0.0,0.0,0.0,0.0,0.0,0.0,0.0,0.0,0.0,0.0,0.0,0.0,0.0,0.0,0.0,0.0,0.0,0.0,0.0,0.0,0.0,0.0,0.0,0.0,0.0,0.0,0.0,0.0,0.0,0.0,0.0,0.0,0.0,0.0,0.0,0.0,0.0,0.0,0.0,0.0,0.0,0.0,0.0,0.0,0.0,0.0,0.0,0.0,0.0,0.0,0.0,0.0,0.0,0.0,0.0,0.0,0.0,0.0,0.0,0.0,0.0,0.0,0.0,0.0,0.0,0.0,0.0,0.0,0.0,0.0,0.0,0.0,0.0,0.0,0.0,0.0,0.0,0.0,0.0,0.0,0.0,0.0,0.0,0.0,0.0,0.0,0.0,0.0,0.0,0.0,3.7033,3.7225,3.6488,3.4831,3.4244,3.3507,0.0,0.0,0.0,0.0,0.0,0.0,0.0,0.0,0.0,0.0,0.0,0.0,0.0,0.0,0.0,0.0,0.0,0.0,0.0,0.0,0.0,0.0,0.0,0.0,0.0,0.0,0.0,0.0,0.0,0.0,0.0,0.0,0.0,0.0,0.0,0.0,0.0,0.0,0.0,0.0,0.0,0.0,0.0,0.0,0.0,0.0,0.0,0.0,0.0,0.0,0.0,0.0,0.0,0.0,0.0,0.0,0.0,0.0,0.0,0.0,0.0,0.0,0.0,0.0,0.0,0.0,0.0,0.0,0.0,0.0,0.0,0.0,0.0,0.0,0.0,0.0,0.0,0.0,0.0,0.0,0.0,0.0,0.0,0.0,0.0,0.0,0.0,0.0,0.0,0.0,0.0,0.0,0.0,0.0,0.0,0.0,0.0,0.0,0.0,0.0,0.0,0.0,0.0,0.0,0.0,0.0,0.0,0.0,3.7004,3.8112,3.8562,3.8111,3.6639,3.6023,3.513,0.0,0.0,0.0,0.0,0.0,0.0,0.0,0.0,0.0,0.0,0.0,0.0,0.0,0.0,0.0,0.0,0.0,0.0,0.0,0.0,0.0,0.0,0.0,0.0,0.0,0.0,0.0,0.0,0.0,0.0,0.0,0.0,0.0,0.0,0.0,0.0,0.0,0.0,0.0,0.0,0.0,0.0,0.0,0.0,0.0,0.0,0.0,0.0,0.0,0.0,0.0,0.0,0.0,0.0,0.0,0.0,0.0,0.0,0.0,0.0,0.0,0.0,0.0,0.0,0.0,0.0,0.0,0.0,0.0,0.0,0.0,0.0,0.0,0.0,0.0,0.0,0.0,0.0,0.0,0.0,0.0,0.0,0.0,0.0,0.0,0.0,0.0,0.0,0.0,0.0,0.0,0.0,0.0,0.0,0.0,0.0,0.0,0.0,0.0,0.0,0.0,0.0,0.0,0.0,0.0,0.0,0.0,0.0,3.7042,3.7884,3.8882,3.908,3.8442,3.7723,3.645,0.0,0.0,0.0,0.0,0.0,0.0,0.0,0.0,0.0,0.0,0.0,0.0,0.0,0.0,0.0,0.0,0.0,0.0,0.0,0.0,0.0,0.0,0.0,0.0,0.0,0.0,0.0,0.0,0.0,0.0,0.0,0.0,0.0,0.0,0.0,0.0,0.0,0.0,0.0,0.0,0.0,0.0,0.0,0.0,0.0,0.0,0.0,0.0,0.0,0.0,0.0,0.0,0.0,0.0,0.0,0.0,0.0,0.0,0.0,0.0,0.0,0.0,0.0,0.0,0.0,0.0,0.0,0.0,0.0,0.0,0.0,0.0,0.0,0.0,0.0,0.0,0.0,0.0,0.0,0.0,0.0,0.0,0.0,0.0,0.0,0.0,0.0,0.0,0.0,0.0,0.0,0.0,0.0,0.0,0.0,0.0,0.0,0.0,0.0,0.0,0.0,0.0,0.0,0.0,0.0,0.0,0.0,0.0,3.7793,3.8996,3.9275,3.9167,3.8632,3.7474,3.6114,0.0,0.0,0.0,0.0,0.0,0.0,0.0,0.0,0.0,0.0,0.0,0.0,0.0,0.0,0.0,0.0,0.0,0.0,0.0,0.0,0.0,0.0,0.0,0.0,0.0,0.0,0.0,0.0,0.0,0.0,0.0,0.0,0.0,0.0,0.0,0.0,0.0,0.0,0.0,0.0,0.0,0.0,0.0,0.0,0.0,0.0,0.0,0.0,3.6524,0.0,0.0,0.0,0.0,0.0,0.0,0.0,0.0,0.0,0.0,0.0,0.0,0.0,0.0,0.0,0.0,0.0,0.0,0.0,0.0,0.0,0.0,0.0,0.0,0.0,0.0,0.0,0.0,0.0,0.0,0.0,0.0,0.0,0.0,0.0,0.0,0.0,0.0,0.0,0.0,0.0,0.0,0.0,0.0,0.0,0.0,0.0,0.0,0.0,0.0,0.0,0.0,0.0,0.0,0.0,0.0,0.0,0.0,0.0,3.7785,3.9164,3.9439,3.9459,3.9244,3.8061,3.6814,0.0,0.0,0.0,0.0,0.0,0.0,0.0,0.0,0.0,0.0,0.0,0.0,0.0,0.0,0.0,0.0,0.0,0.0,0.0,0.0,0.0,0.0,0.0,0.0,0.0,0.0,0.0,0.0,0.0,0.0,0.0,0.0,0.0,0.0,0.0,0.0,0.0,0.0,0.0,0.0,0.0,0.0,0.0,0.0,0.0,0.0,0.0,0.0,0.0,0.0,0.0,0.0,0.0,0.0,0.0,0.0,0.0,0.0,0.0,0.0,0.0,0.0,0.0,0.0,0.0,0.0,0.0,0.0,0.0,0.0,0.0,0.0,0.0,0.0,0.0,0.0,0.0,0.0,0.0,0.0,0.0,0.0,0.0,0.0,0.0,0.0,0.0,0.0,0.0,0.0,0.0,0.0,0.0,0.0,0.0,0.0,0.0,0.0,0.0,0.0,0.0,0.0,0.0,0.0,0.0,0.0,0.0,3.6694,3.7454,3.8996,3.9481,3.9803,3.998,3.8937,3.7867,3.6793,0.0,0.0,0.0,0.0,0.0,0.0,0.0,0.0,0.0,0.0,0.0,0.0,0.0,0.0,0.0,0.0,0.0,0.0,0.0,0.0,0.0,0.0,0.0,0.0,0.0,0.0,0.0,0.0,0.0,0.0,0.0,0.0,0.0,0.0,0.0,0.0,0.0,0.0,3.5023,3.6152,0.0,0.0,0.0,0.0,0.0,0.0,0.0,0.0,3.7563,0.0,0.0,0.0,0.0,0.0,0.0,0.0,0.0,0.0,0.0,0.0,0.0,0.0,0.0,0.0,0.0,0.0,0.0,0.0,0.0,0.0,0.0,0.0,0.0,0.0,0.0,0.0,0.0,0.0,0.0,0.0,0.0,0.0,0.0,0.0,0.0,0.0,0.0,0.0,0.0,0.0,0.0,0.0,0.0,0.0,0.0,0.0,0.0,0.0,0.0,0.0,0.0,0.0,0.0,0.0,0.0,3.6679,3.6694,3.7579,3.9272,3.9565,3.9803,3.9996,3.9379,3.8373,3.7021,0.0,0.0,0.0,0.0,0.0,0.0,0.0,0.0,0.0,0.0,0.0,0.0,0.0,0.0,0.0,0.0,0.0,0.0,0.0,0.0,0.0,0.0,0.0,0.0,0.0,0.0,0.0,0.0,0.0,0.0,0.0,0.0,0.0,0.0,0.0,0.0,0.0,0.0,0.0,3.7638,3.8004,0.0,0.0,0.0,0.0,0.0,0.0,0.0,0.0,3.8151,0.0,0.0,0.0,0.0,0.0,0.0,0.0,0.0,0.0,0.0,0.0,0.0,0.0,0.0,0.0,0.0,0.0,0.0,0.0,0.0,0.0,0.0,0.0,0.0,0.0,0.0,0.0,0.0,0.0,0.0,0.0,0.0,0.0,0.0,0.0,0.0,0.0,0.0,0.0,0.0,0.0,0.0,0.0,0.0,0.0,0.0,0.0,0.0,0.0,0.0,0.0,0.0,0.0,0.0,0.0,3.6859,3.7625,3.8611,3.9829,3.9945,4.0086,4.0246,3.9627,3.8453,0.0,0.0,0.0,0.0,0.0,0.0,0.0,0.0,0.0,0.0,0.0,0.0,0.0,0.0,0.0,0.0,0.0,0.0,0.0,0.0,0.0,0.0,0.0,0.0,0.0,0.0,0.0,0.0,0.0,0.0,0.0,0.0,0.0,0.0,0.0,0.0,0.0,0.0,0.0,0.0,3.8628,3.9248,3.9776,0.0,0.0,0.0,0.0,0.0,0.0,3.834,3.8355,0.0,0.0,0.0,0.0,0.0,0.0,0.0,0.0,0.0,0.0,0.0,0.0,0.0,0.0,0.0,0.0,0.0,0.0,0.0,0.0,0.0,0.0,0.0,0.0,0.0,0.0,0.0,0.0,0.0,0.0,0.0,0.0,0.0,0.0,0.0,0.0,0.0,0.0,0.0,0.0,0.0,0.0,0.0,0.0,0.0,0.0,0.0,0.0,0.0,0.0,0.0,0.0,0.0,0.0,0.0,3.7212,3.8635,3.9815,4.06,4.0558,4.0558,4.0631,3.9838,3.8511,0.0,0.0,0.0,0.0,0.0,0.0,0.0,0.0,0.0,0.0,0.0,0.0,0.0,0.0,0.0,0.0,0.0,0.0,0.0,0.0,0.0,0.0,0.0,0.0,0.0,0.0,0.0,0.0,0.0,0.0,0.0,0.0,0.0,0.0,0.0,0.0,0.0,0.0,0.0,0.0,0.0,4.0603,4.0667,3.9872,0.0,0.0,0.0,0.0,3.9224,3.918,0.0,0.0,0.0,0.0,0.0,0.0,0.0,0.0,0.0,0.0,0.0,0.0,0.0,0.0,0.0,0.0,0.0,0.0,0.0,0.0,0.0,0.0,0.0,0.0,0.0,0.0,0.0,0.0,0.0,0.0,0.0,0.0,0.0,0.0,0.0,0.0,0.0,0.0,0.0,0.0,0.0,0.0,0.0,0.0,0.0,0.0,0.0,0.0,0.0,0.0,0.0,0.0,0.0,0.0,0.0,0.0,3.7793,3.928,4.0638,4.1692,4.1393,4.1209,4.1209,4.0106,3.8769,0.0,0.0,0.0,0.0,0.0,0.0,0.0,0.0,0.0,0.0,0.0,0.0,0.0,0.0,0.0,0.0,0.0,0.0,0.0,0.0,0.0,0.0,0.0,0.0,0.0,0.0,0.0,0.0,0.0,0.0,0.0,0.0,0.0,0.0,0.0,0.0,0.0,0.0,0.0,0.0,0.0,4.1988,4.1384,4.0645,4.0381,0.0,0.0,4.0781,4.2216,4.1963,0.0,0.0,0.0,0.0,0.0,0.0,0.0,0.0,0.0,0.0,0.0,0.0,0.0,0.0,0.0,0.0,0.0,0.0,0.0,0.0,0.0,0.0,0.0,0.0,0.0,0.0,0.0,0.0,0.0,0.0,0.0,0.0,0.0,0.0,0.0,0.0,0.0,0.0,0.0,0.0,0.0,0.0,0.0,0.0,0.0,0.0,0.0,0.0,0.0,0.0,0.0,0.0,0.0,0.0,0.0,3.8909,3.8205,4.0345,4.1765,4.2252,4.2078,4.1997,4.1981,4.1051,3.9473,0.0,0.0,0.0,0.0,0.0,0.0,0.0,0.0,0.0,0.0,0.0,0.0,0.0,0.0,0.0,0.0,0.0,0.0,0.0,0.0,0.0,0.0,0.0,0.0,0.0,0.0,0.0,0.0,0.0,0.0,0.0,0.0,0.0,0.0,0.0,0.0,0.0,0.0,0.0,0.0,0.0,0.0,4.2047,4.1333,0.0,0.0,0.0,4.1389,4.209,0.0,0.0,0.0,0.0,0.0,0.0,0.0,0.0,0.0,0.0,0.0,0.0,0.0,0.0,0.0,0.0,0.0,0.0,0.0,0.0,0.0,0.0,0.0,0.0,0.0,0.0,0.0,0.0,0.0,0.0,0.0,0.0,0.0,0.0,0.0,0.0,0.0,0.0,0.0,0.0,0.0,0.0,0.0,0.0,0.0,0.0,0.0,0.0,0.0,0.0,0.0,0.0,0.0,0.0,0.0,0.0,0.0,3.8849,4.1573,4.3031,4.3015,4.2847,4.2769,4.2737,4.1652,0.0,0.0,0.0,0.0,0.0,0.0,0.0,0.0,0.0,0.0,0.0,0.0,0.0,0.0,0.0,0.0,0.0,0.0,0.0,0.0,0.0,0.0,0.0,0.0,0.0,0.0,0.0,0.0,0.0,0.0,0.0,0.0,0.0,0.0,0.0,0.0,0.0,0.0,0.0,0.0,0.0,0.0,4.2719,4.2627,4.2235,4.22,0.0,0.0,4.2338,4.271,4.3345,4.3409,0.0,0.0,0.0,0.0,0.0,0.0,0.0,0.0,0.0,0.0,0.0,0.0,0.0,0.0,0.0,0.0,0.0,0.0,0.0,0.0,0.0,0.0,0.0,0.0,0.0,0.0,0.0,0.0,0.0,0.0,0.0,0.0,0.0,0.0,0.0,0.0,0.0,0.0,0.0,0.0,0.0,0.0,0.0,0.0,0.0,0.0,0.0,0.0,0.0,0.0,0.0,0.0,0.0,0.0,0.0,4.0095,4.2939,4.4457,4.4457,4.3764,4.3436,4.339,4.1504,3.9748,0.0,0.0,0.0,0.0,0.0,0.0,0.0,0.0,0.0,0.0,0.0,0.0,0.0,0.0,0.0,0.0,0.0,0.0,0.0,0.0,0.0,0.0,0.0,0.0,0.0,0.0,0.0,0.0,0.0,0.0,0.0,0.0,0.0,0.0,0.0,0.0,0.0,0.0,0.0,0.0,0.0,4.3726,4.3083,4.3486,4.4224,0.0,0.0,4.438,4.5688,4.5926,4.5476,4.4052,0.0,0.0,0.0,0.0,0.0,0.0,0.0,0.0,0.0,0.0,0.0,0.0,0.0,0.0,0.0,0.0,0.0,0.0,0.0,0.0,0.0,0.0,0.0,0.0,0.0,0.0,0.0,0.0,0.0,0.0,0.0,0.0,0.0,0.0,0.0,0.0,0.0,0.0,0.0,0.0,0.0,0.0,0.0,0.0,0.0,0.0,0.0,0.0,0.0,0.0,0.0,0.0,0.0,4.04,4.0138,4.3075,4.4835,4.5229,4.4562,4.4397,4.485,4.2729,4.0673,0.0,0.0,0.0,0.0,0.0,0.0,0.0,0.0,0.0,0.0,0.0,0.0,0.0,0.0,0.0,0.0,0.0,0.0,0.0,0.0,0.0,0.0,0.0,0.0,0.0,0.0,0.0,0.0,3.4737,3.5454,3.6934,0.0,0.0,0.0,0.0,0.0,0.0,0.0,0.0,0.0,0.0,4.387,4.3597,4.3802,0.0,0.0,4.4785,4.4881,4.5863,4.5535,4.4889,4.4139,4.2916,0.0,0.0,0.0,0.0,0.0,0.0,0.0,0.0,0.0,0.0,0.0,0.0,0.0,0.0,0.0,0.0,0.0,0.0,0.0,0.0,0.0,0.0,0.0,0.0,0.0,0.0,0.0,0.0,0.0,0.0,0.0,0.0,0.0,0.0,0.0,0.0,0.0,0.0,0.0,0.0,0.0,0.0,0.0,0.0,0.0,0.0,0.0,0.0,0.0,0.0,0.0,0.0,4.0434,4.0451,4.3193,4.4869,4.5365,4.4869,4.4823,4.5297,4.3589,4.1593,0.0,0.0,0.0,0.0,0.0,0.0,0.0,0.0,0.0,0.0,0.0,0.0,0.0,0.0,0.0,0.0,0.0,0.0,0.0,0.0,0.0,0.0,0.0,0.0,0.0,0.0,0.0,0.0,3.6407,3.711,3.7964,0.0,0.0,0.0,0.0,0.0,0.0,0.0,0.0,0.0,0.0,4.4017,4.4043,4.4345,4.4759,4.5294,4.5399,4.5558,4.6,4.5695,4.5159,4.4336,0.0,0.0,0.0,0.0,0.0,0.0,0.0,0.0,0.0,0.0,0.0,0.0,0.0,0.0,0.0,0.0,0.0,0.0,0.0,0.0,0.0,0.0,0.0,0.0,0.0,0.0,0.0,4.3426,0.0,0.0,4.2337,0.0,0.0,0.0,0.0,0.0,0.0,0.0,0.0,0.0,0.0,0.0,0.0,0.0,0.0,0.0,0.0,0.0,0.0,0.0,0.0,0.0,0.0,4.1153,4.1204,4.3403,4.4632,4.4666,4.4632,4.4632,4.4649,4.3826,4.231,4.0113,0.0,0.0,0.0,0.0,0.0,0.0,0.0,0.0,0.0,0.0,0.0,0.0,0.0,0.0,0.0,0.0,0.0,0.0,0.0,0.0,0.0,0.0,0.0,0.0,0.0,0.0,3.7111,3.7404,3.747,0.0,0.0,0.0,0.0,0.0,0.0,0.0,0.0,0.0,0.0,4.3244,4.4311,4.4328,4.5374,4.6126,4.6161,4.6543,4.674,4.6449,4.6988,4.6862,0.0,0.0,0.0,0.0,0.0,0.0,0.0,0.0,0.0,0.0,0.0,0.0,0.0,0.0,0.0,0.0,0.0,0.0,0.0,0.0,0.0,0.0,0.0,0.0,0.0,0.0,0.0,4.4934,4.4618,0.0,0.0,0.0,0.0,0.0,0.0,0.0,0.0,0.0,0.0,0.0,4.4502,4.3521,0.0,0.0,0.0,0.0,0.0,0.0,0.0,0.0,0.0,0.0,0.0,0.0,4.0713,4.1271,4.3464,4.4852,4.5297,4.4869,4.4852,4.5297,4.4079,4.2344,4.0155,0.0,0.0,0.0,0.0,0.0,0.0,0.0,0.0,0.0,0.0,0.0,0.0,0.0,0.0,0.0,0.0,0.0,0.0,0.0,0.0,0.0,0.0,0.0,0.0,0.0,3.599,0.0,0.0,0.0,0.0,0.0,0.0,0.0,0.0,0.0,0.0,0.0,4.3406,4.4265,4.5335,4.6029,4.6029,4.6401,4.6654,0.0,0.0,0.0,0.0,0.0,0.0,0.0,0.0,0.0,0.0,0.0,0.0,0.0,0.0,4.603,4.39,4.3057,4.2979,4.3889,0.0,0.0,0.0,0.0,0.0,0.0,0.0,0.0,0.0,0.0,0.0,0.0,0.0,0.0,4.5883,0.0,4.4344,0.0,0.0,0.0,0.0,0.0,0.0,0.0,0.0,4.5105,4.5665,4.6317,4.5329,4.4895,0.0,4.4147,4.3134,0.0,0.0,0.0,0.0,0.0,0.0,0.0,0.0,4.1111,4.1644,4.3582,4.4835,4.5263,4.484,4.4835,4.528,4.4079,4.2608,4.0899,3.8742,3.7077,0.0,0.0,0.0,0.0,0.0,0.0,0.0,0.0,0.0,0.0,0.0,0.0,0.0,0.0,0.0,0.0,0.0,0.0,0.0,0.0,0.0,0.0,0.0,3.6906,0.0,0.0,0.0,0.0,0.0,0.0,0.0,0.0,0.0,4.3153,4.41,4.5116,4.5998,4.6569,4.6908,4.6908,0.0,0.0,0.0,0.0,0.0,0.0,0.0,4.6544,4.5993,4.5516,4.5241,4.548,4.6636,4.7424,4.7149,0.0,0.0,4.5694,4.5102,4.5243,4.6271,4.6943,4.7229,4.7014,4.7408,4.7536,0.0,0.0,0.0,0.0,0.0,0.0,0.0,0.0,4.7096,4.698,0.0,4.5433,0.0,0.0,0.0,0.0,0.0,4.5893,0.0,0.0,4.7317,4.7482,4.7644,4.7558,4.6951,4.5886,4.622,4.5387,4.3508,4.2016,0.0,0.0,0.0,0.0,0.0,0.0,4.2303,4.2371,4.3836,4.4615,4.4615,4.4598,4.4615,4.4615,4.3859,4.3115,4.2303,4.024,3.842,3.6931,3.4776,0.0,0.0,0.0,0.0,0.0,0.0,0.0,0.0,0.0,0.0,0.0,0.0,0.0,0.0,0.0,0.0,0.0,0.0,0.0,0.0,3.7521,0.0,0.0,0.0,0.0,0.0,0.0,0.0,0.0,0.0,0.0,4.5188,4.5915,4.6555,4.6914,0.0,0.0,0.0,0.0,4.7611,4.7611,4.8015,4.803,4.7278,4.7791,4.7755,4.625,0.0,0.0,4.7259,4.7755,4.8048,4.7333,4.7884,4.8457,4.8784,4.8074,4.7993,4.9329,4.8838,4.8702,4.9847,4.9296,4.8751,5.1487,0.0,0.0,0.0,0.0,4.8651,4.9109,4.9237,4.9486,4.8834,4.7577,4.6788,0.0,0.0,0.0,0.0,0.0,0.0,4.7751,4.8158,4.8551,4.8816,4.9003,4.791,4.7762,4.8404,4.6558,4.5637,4.5537,4.3705,4.2625,4.2269,0.0,0.0,0.0,0.0,4.2557,4.3132,4.4079,4.4598,4.4598,4.4598,4.4598,4.4598,4.4395,4.3876,4.3132,4.1965,4.0434,3.8447,3.7246,0.0,0.0,0.0,0.0,0.0,0.0,0.0,0.0,0.0,0.0,0.0,0.0,0.0,0.0,0.0,0.0,0.0,0.0,0.0,3.7499,3.7509,3.7919,0.0,0.0,0.0,0.0,0.0,0.0,0.0,0.0,0.0,4.7233,4.7284,4.7438,0.0,0.0,4.7895,4.7895,4.8015,4.8113,4.8113,4.8229,0.0,0.0,4.8159,4.8141,4.7682,4.8012,4.8233,4.7993,4.814,4.8434,4.8783,4.9058,4.9506,5.0324,4.943,4.892,4.9664,4.9585,4.9631,5.0502,5.0272,4.9844,5.4676,5.2121,5.1205,5.0521,5.0182,5.0955,5.129,5.1341,5.1628,5.1071,4.9855,4.9064,4.7875,4.6525,4.6661,0.0,0.0,0.0,4.9161,4.963,4.9919,5.0211,5.0291,4.9099,4.8588,4.8739,4.7273,4.6254,4.5747,4.4985,4.4147,4.3193,0.0,0.0,4.2709,4.2743,4.2963,4.3409,4.4181,4.4598,4.4598,4.4598,4.4598,4.4598,4.4598,4.4395,4.3893,4.3149,4.1999,4.0375,3.9056,3.7246,0.0,0.0,0.0,0.0,0.0,0.0,0.0,0.0,0.0,0.0,0.0,3.527,0.0,0.0,0.0,0.0,3.4835,3.6392,3.7976,3.8461,0.0,0.0,0.0,0.0,0.0,0.0,0.0,4.7938,4.7737,4.7719,4.8673,4.8567,4.8379,4.8323,4.8324,4.8324,4.8324,0.0,4.8324,4.8324,4.8324,4.8324,4.8324,4.8324,4.8324,4.8324,4.8324,4.8324,4.8324,4.8563,4.8985,4.9482,4.9848,5.0294,5.0988,5.0451,5.0169,5.0787,5.0973,5.107,5.1241,5.1021,5.0741,5.7496,5.5927,5.3784,5.2806,5.2752,5.3548,5.3422,5.277,5.3548,5.3349,5.2462,5.1742,5.1056,5.042,4.9704,0.0,4.9496,4.9965,5.0615,5.1393,5.1393,5.1506,5.1615,5.0847,4.9566,4.7922,4.8234,4.7203,4.5158,4.5949,4.586,4.4732,4.3227,4.2811,4.347,4.3504,4.3494,4.3521,4.4215,4.4598,4.4598,4.4598,4.4598,4.4598,4.4598,4.4598,4.4581,4.3893,4.3166,4.2354,4.0324,3.8522,3.7049,0.0,0.0,0.0,0.0,0.0,0.0,0.0,0.0,0.0,0.0,0.0,0.0,0.0,0.0,0.0,3.7345,0.0,3.8521,4.0153,0.0,0.0,0.0,4.3962,4.4876,4.5755,4.6856,4.8343,0.0,0.0,4.9702,4.9702,4.9427,4.86,4.8398,4.8324,4.8324,4.8324,4.8324,4.8324,4.8361,4.8434,4.8508,4.8581,4.8655,4.8673,4.8508,4.86,4.8655,4.915,4.9665,4.9886,5.0417,5.0949,5.0986,5.1583,5.2086,5.2386,5.2574,5.2518,5.1882,5.1627,5.1314,5.7822,5.6862,5.6319,5.5395,5.4418,5.5142,5.5015,5.4418,5.5124,5.4327,5.248,5.2299,5.1475,5.0168,4.9988,5.024,5.0841,5.095,5.1448,5.219,5.2208,5.2247,5.2221,5.1468,5.0865,5.0342,4.8895,4.8192,4.8095,4.643,4.575,4.5959,4.4701,4.4158,4.4299,4.4327,4.4299,4.4299,4.4513,4.4598,4.4598,4.4598,4.4598,4.4598,4.4598,4.4598,4.4598,4.4429,4.3944,4.3122,4.1576,4.0003,3.8539,3.6256,0.0,0.0,0.0,0.0,0.0,0.0,0.0,0.0,0.0,3.9413,3.5978,0.0,3.955,0.0,3.8363,3.9322,4.1546,4.2014,0.0,0.0,4.6552,4.7345,4.8187,4.9073,4.9793,5.0141,5.0398,5.0527,5.0527,5.0508,5.0435,5.0215,4.9095,4.8324,4.8324,4.8324,4.8324,4.8398,4.8893,4.926,4.9353,4.9811,5.016,5.0215,5.0178,5.0215,5.0196,5.0362,5.071,5.1281,5.1555,5.1922,5.2472,5.3219,5.3679,5.3752,5.3286,5.2766,5.2537,5.2059,5.1563,5.8257,5.7206,5.7188,5.6717,5.5957,5.6355,5.6301,5.5957,5.6355,5.5414,5.3512,5.2824,5.2009,5.1176,5.1158,5.1411,5.181,5.1828,5.2082,5.248,5.2498,5.2498,5.2444,5.1325,5.0652,5.0356,4.8816,4.7986,4.7824,4.6813,4.6389,4.6475,4.588,4.5579,4.5563,4.4936,4.4598,4.4598,4.4598,4.4598,4.4598,4.4598,4.4598,4.4598,4.4598,4.4418,4.4079,4.4062,4.3707,4.2946,4.183,4.0832,4.0003,3.8289,3.7257,0.0,0.0,0.0,0.0,0.0,0.0,0.0,0.0,0.0,0.0,0.0,4.1881,4.0443,4.0633,4.1619,4.351,4.4367,4.5585,4.749,4.853,4.9289,4.9706,5.0266,5.0769,5.1197,5.1252,5.1255,5.1334,5.1334,5.1187,5.0839,4.9994,4.9426,4.9426,4.9407,4.9426,4.9444,4.9811,5.0141,5.0141,5.049,5.082,5.082,5.082,5.082,5.082,5.1096,5.1481,5.1905,5.2416,5.2887,5.337,5.4016,5.4511,5.4478,5.424,5.3837,5.3435,5.3034,5.2652,5.8655,5.7206,5.7188,5.7188,5.7188,5.7188,5.7188,5.7188,5.7188,5.6337,5.4798,5.3204,5.2498,5.2498,5.2498,5.2498,5.2498,5.2498,5.2498,5.2498,5.2498,5.2498,5.2444,5.1049,5.0051,4.9394,4.8626,4.7637,4.6522,4.7152,4.7259,4.6736,4.6749,4.6789,4.6718,4.5529,4.4801,4.4598,4.4598,4.4598,4.4598,4.4598,4.4598,4.4598,4.4513,4.4096,4.3453,4.3403,4.3115,4.2455,4.183,4.1474,4.1457,4.0654,3.9926,0.0,3.9521,0.0,0.0,0.0,0.0,0.0,0.0,0.0,0.0,4.4268,4.42,4.2788,4.3555,4.4392,4.5154,4.6912,4.8297,4.8985,4.9833,5.0373,5.0373,5.0572,5.1043,5.1862,5.1974,5.2038,5.2139,5.2142,5.1848,5.1353,5.1187,5.1114,5.1077,5.0857,5.0674,5.082,5.0894,5.1004,5.1132,5.1169,5.1206,5.1151,5.1224,5.1096,5.1206,5.1701,5.216,5.2257,5.2922,5.3586,5.37,5.4242,5.4716,5.4761,5.5018,5.5027,5.4428,5.4085,5.3836,5.8655,5.7206,5.7188,5.7188,5.7188,5.7188,5.7188,5.7188,5.7188,5.6337,5.4798,5.3222,5.2498,5.2498,5.2498,5.2498,5.2498,5.2498,5.2498,5.2498,5.2498,5.2498,5.248,5.219,5.1335,4.9996,4.978,4.9243,4.8339,4.7469,4.7364,4.8015,4.7049,4.6646,4.6781,0.0,0.0,0.0,4.4598,4.4598,4.4598,4.4598,4.4598,4.4581,4.3961,0.0,4.3392,4.3403,4.3325,4.3189,4.3037,0.0,0.0,0.0,0.0,0.0,0.0,0.0,0.0,0.0,0.0,0.0,4.6464,4.5892,4.4175,4.548,4.5974,4.4915,4.6259,4.7483,4.8056,4.9014,4.9691,4.9894,5.0707,5.1264,5.1282,5.1949,5.2593,5.2743,5.2843,5.2926,5.2928,5.2986,5.2913,5.269,5.2726,5.2766,5.269,5.1646,5.0875,5.0839,5.1389,5.2013,5.2653,5.2671,5.2601,5.2747,5.2766,5.269,5.2671,5.2784,5.2968,5.2949,5.3159,5.34,5.3662,5.4088,5.4509,5.4746,5.5127,5.5365,5.5174,5.46,5.4046,5.8655,0.0,5.7188,5.7188,0.0,5.7188,5.7188,5.7188,5.7188,5.6337,5.4816,5.3204,5.2498,5.2498,5.2498,5.2498,5.2498,5.2498,5.2498,5.2498,5.2498,5.2498,5.248,5.21,5.1249,5.0112,4.9691,4.9094,4.829,4.7743,4.7708,4.8169,4.8041,4.7896,4.7716,4.7458,4.6802,4.5686,4.5698,4.5669,4.5669,4.5669,4.55,4.5145,0.0,0.0,0.0,0.0,0.0,0.0,0.0,0.0,0.0,0.0,0.0,4.3544,4.3432,4.3744,4.4708,4.569,4.6735,4.7801,4.8511,4.8351,4.712,4.7937,4.8257,4.7751,4.8532,4.9194,4.9488,5.0216,5.0691,5.0746,5.1479,5.1991,5.205,5.2431,5.2757,5.2806,5.285,5.2955,5.3082,5.3103,5.3124,5.3185,5.3185,5.3185,5.313,5.2527,5.1995,5.1995,5.2289,5.2729,5.3093,5.3185,5.3185,5.3185,5.3185,5.3185,5.3185,5.3185,5.3185,5.3206,5.3336,5.3563,5.3944,5.4294,5.4654,5.5009,5.526,5.539,5.5371,5.504,5.4734,5.8673,5.7206,5.7188,5.7188,5.7188,5.7188,5.7188,5.7188,0.0,0.0,0.0,5.3349,5.2715,5.2715,5.2715,5.2788,5.2933,5.2933,5.2915,5.2915,5.2803,5.2665,5.2503,5.162,5.0708,4.9771,4.8996,4.8243,4.7587,4.7638,4.7743,4.7903,4.8615,4.8777,4.8346,4.792,4.7479,4.7005,4.6853,4.6786,4.6786,4.6786,4.6498,4.5906,4.5771,4.5111,4.3849,4.3781,4.3538,4.2929,4.3041,4.3406,4.4082,4.416,4.4626,4.577,4.6472,4.6976,4.7163,4.8491,4.9326,4.9303,5.0071,5.0397,5.0148,5.0112,5.0112,5.0112,5.0112,5.0112,5.013,5.0691,5.109,5.1086,5.1665,5.2045,5.2063,5.2249,5.2318,5.2409,5.2567,5.2783,5.302,5.3042,5.3063,5.3164,5.3185,5.3185,5.3185,5.3112,5.3038,5.3038,5.3038,5.3167,5.3185,5.3185,5.3185,5.3185,5.3185,5.3185,5.3185,5.3185,5.3185,5.3185,5.3422,5.3757,5.4193,5.4479,5.4855,5.5319,5.539,5.539,5.539,5.539,5.5352,5.8673,5.7188,5.7188,5.7188,5.7188,5.7188,5.7188,5.7134,5.6464,5.5685,5.4852,5.3947,5.353,5.3512,5.353,5.3911,5.4544,5.4562,5.4562,5.4538,5.3961,5.3381,5.272,5.1404,5.0021,4.8663,4.7894,4.7352,4.6998,4.6601,4.6688,4.7212,4.7056,4.6989,4.7063,4.6997,4.7225,4.7686,4.7107,4.6786,4.6786,4.6786,4.6752,4.6616,4.6041,4.5635,4.5399,4.5382,4.5348,4.5246,4.5821,4.6419,4.6969,4.6962,4.7294,4.791,4.8128,4.8222,4.8227,4.8886,4.9774,5.0878,5.1701,5.1574,5.0257,5.0112,5.0112,5.013,5.022,5.0112,5.0112,5.0347,5.0528,5.0401,5.0438,5.0474,5.0691,5.132,5.1791,5.1847,5.247,5.2977,5.3155,5.3161,5.3143,5.3203,5.3222,5.3185,5.3185,5.3185,5.3185,5.3185,5.3185,5.3185,5.3185,5.3185,5.3185,5.3185,5.3185,5.3185,5.3185,5.3185,5.3185,5.3185,5.3251,5.3542,5.4123,5.4332,5.4657,5.5187,5.5358,5.539,5.539,5.539,5.539,5.8927,5.784,5.7387,5.7188,5.7188,5.7188,5.7188,5.717,5.6808,5.6228,5.545,5.4689,5.4363,5.4363,5.4363,5.4562,5.4907,5.4907,5.4907,5.4882,5.4564,5.4284,5.3871,5.282,5.1355,4.9575,4.8753,4.7736,4.6542,4.6213,4.6249,4.661,4.6508,4.6948,4.7786,4.7165,4.7158,4.7885,4.7581,4.7597,4.7986,4.8003,4.78,4.7428,4.7043,4.6701,4.6312,4.6295,4.6295,4.6295,4.6616,4.7026,4.7562,4.7617,4.7979,4.882,4.9345,4.9895,5.0586,5.1688,5.2594,5.3199,5.3585,5.3512,5.277,5.19,5.1574,5.1991,5.2045,5.2045,5.2063,5.2444,5.2534,5.2082,5.2408,5.2516,5.2172,5.2381,5.2518,5.2204,5.2472,5.2921,5.347,5.3164,5.3156,5.3554,5.3473,5.3222,5.3203,5.3203,5.3203,5.3185,5.3185,5.3185,5.3185,5.3185,5.3185,5.3185,5.3185,5.3185,5.3185,5.3185,5.3185,5.3185,5.3185,5.3418,5.3907,5.4158,5.4514,5.4903,5.5273,5.5358,5.539,5.539,5.539,5.9452,5.8347,5.7732,5.7369,5.7206,5.7188,5.7188,5.7188,5.7188,5.6844,5.621,5.5486,5.5142,5.5124,5.4997,5.5106,5.5359,5.5233,5.5251,5.5389,5.5148,5.5008,5.4848,5.39,5.2477,5.0859,4.9862,4.8427,4.6815,4.6325,4.6025,4.5821,4.6148,4.6835,4.7797,4.6827,4.6667,4.7348,4.7551,4.799,4.8731,4.8765,4.8409,4.7733,4.7665,4.7394,4.6836,4.6786,4.6786,4.6786,4.6786,4.7084,4.7726,4.8137,4.8767,4.9762,5.0898,5.194,5.2976,5.4182,5.4907,5.4907,5.4907,5.4907,5.4798,5.3784,5.3204,5.3621,5.3603,5.3548,5.3367,5.3838,5.411,5.3548,5.3983,5.3874,5.3512,5.3585,5.3499,5.2883,5.2943,5.3411,5.3854,5.3627,5.3553,5.4009,5.3763,5.3457,5.3442,5.3442,5.3457,5.3607,5.3482,5.3203,5.3185,5.3185,5.3185,5.3185,5.3185,5.3185,5.3185,5.3185,5.3185,5.3185,5.3185,5.3357,5.3642,5.3925,5.4294,5.4716,5.5033,5.526,5.5358,5.539,5.539,6.0466,5.8546,5.8311,5.7858,5.7224,5.7188,5.7188,5.7163,5.7188,5.7188,5.6903,5.6247,5.586,5.5794,5.5214,5.5606,5.6729,5.621,5.6222,5.6693,5.5859,5.5309,5.5018,5.3285,5.2166,5.1649,5.0374,4.9204,4.8145,4.7082,4.5927,4.4956,4.5445,4.5614,4.5156,4.4965,4.5196,4.5877,4.6549,4.7259,4.7939,4.799,4.7665,4.6921,4.6921,4.687,4.687,4.6786,4.6802,4.6786,4.6853,4.7301,4.8356,4.9679,5.0761,5.1433,5.3302,5.4569,5.4671,5.4798,5.4961,5.4907,5.4943,5.4943,5.4943,5.478,5.4381,5.3983,5.3766,5.3548,5.2733,5.2915,5.3132,5.3096,5.3096,5.2661,5.2933,5.3277,5.3704,5.3694,5.4197,5.4896,5.5076,5.5049,5.4842,5.4437,5.4287,5.4181,5.4268,5.4224,5.4404,5.4818,5.4234,5.3371,5.3277,5.3185,5.3185,5.3185,5.3185,5.3185,5.3185,5.3185,5.3185,5.3185,5.3295,5.3465,5.3636,5.3777,5.4128,5.4851,5.508,5.5071,5.5292,5.5466,5.5485,6.1145,5.9742,5.88,5.7931,5.7243,5.7188,5.701,5.6679,5.6679,5.6474,5.612,5.5772,5.6027,5.662,5.5584,5.543,5.5969,5.5268,5.5106,5.5407,5.5371,5.5355,5.5175,5.4034,5.2956,5.2085,5.0996,4.9883,4.8885,4.8218,4.8121,4.8259,4.7517,4.7073,4.7073,4.5906,4.5805,4.6972,4.731,4.7817,4.8477,4.8562,4.8426,4.8139,4.8088,4.8088,4.8105,4.8105,4.8291,4.8697,4.8731,4.947,5.1037,5.1733,5.2555,5.3522,5.4785,5.5558,5.554,5.5975,5.6265,5.6247,5.5812,5.5558,5.554,5.5558,5.5395,5.5142,5.5051,5.4888,5.4599,5.4979,5.5088,5.4762,5.4979,5.507,5.4617,5.4834,5.4931,5.4562,5.4725,5.519,5.5613,5.5811,5.5577,5.5035,5.4879,5.4964,5.5093,5.5053,5.5181,5.5409,5.4987,5.4473,5.4014,5.3463,5.3277,5.3203,5.3185,5.3185,5.324,5.3185,5.3185,5.3222,5.3628,5.3928,5.4112,5.4751,5.5248,5.5577,5.6021,5.622,5.5845,5.5952,5.5931,6.1933,6.0657,5.9307,5.8257,5.7532,5.7532,5.7139,5.6546,5.6366,5.6045,5.5665,5.5473,5.5876,5.6456,5.5446,5.4945,5.4837,5.4208,5.3875,5.3963,5.4554,5.4904,5.4987,5.453,5.3863,5.308,5.231,5.1089,4.9699,4.9351,4.9736,5.0189,4.9144,4.8697,4.8798,4.7327,4.7124,4.8091,4.8392,4.8781,4.9255,4.9509,4.9424,4.9052,4.9018,4.9018,4.9018,4.9185,4.9406,4.9794,4.9966,5.0691,5.2026,5.2674,5.3752,5.5338,5.6029,5.621,5.6029,5.6536,5.6772,5.6554,5.5993,5.5685,5.5703,5.5703,5.5703,5.5631,5.5685,5.5721,5.6355,5.6844,5.6899,5.6446,5.688,5.6917,5.6398,5.6319,5.6102,5.5631,5.5649,5.5728,5.6248,5.6491,5.6363,5.5723,5.5587,5.5702,5.5833,5.5856,5.5911,5.6161,5.611,5.5592,5.4876,5.4381,5.3885,5.3849,5.3977,5.3922,5.3702,5.3683,5.3625,5.3995,5.4399,5.4678,5.4779,5.5494,5.6051,5.6233,5.6629,5.6995,5.6512,5.663,5.6581,6.2929,6.0828,5.9878,5.9046,5.8347,5.8267,5.7843,5.7031,5.6519,5.6257,5.6035,5.556,5.5414,5.542,5.463,5.4255,5.4161,5.3432,5.3059,5.3112,5.3346,5.3718,5.4238,5.4365,5.463,5.472,5.4044,5.278,5.0965,5.0396,4.9726,4.9249,4.976,4.9678,4.9238,4.89,4.8866,4.9069,4.961,5.0016,5.0183,5.0777,5.0505,4.9452,4.9052,4.912,4.9131,4.9637,4.9764,4.9134,4.9829,5.016,5.0322,5.2123,5.4438,5.6602,5.7043,5.6736,5.6066,5.5993,5.5812,5.5196,5.5051,5.4943,5.4943,5.4943,5.4943,5.4961,5.5015,5.5558,5.6663,5.6917,5.7062,5.7007,5.7116,5.7134,5.7116,5.7007,5.7116,5.6989,5.688,5.693,5.7218,5.7449,5.7079,5.6532,5.6248,5.6254,5.6478,5.646,5.6781,5.7263,5.713,5.6473,5.5757,5.5188,5.5244,5.5152,5.4895,5.5097,5.495,5.4803,5.4711,5.4766,5.5207,5.5464,5.5541,5.572,5.604,5.6366,5.676,5.6942,5.6947,5.7175,5.715,6.2512,6.0738,6.0012,5.9519,5.9074,5.8188,5.7358,5.6702,5.6014,5.5254,5.4568,5.4269,5.419,5.4173,5.3898,5.369,5.3576,5.2867,5.232,5.1994,5.2411,5.2785,5.2943,5.3043,5.3453,5.4055,5.3898,5.3341,5.2605,5.232,5.2087,5.1774,5.1577,5.1352,5.0997,5.0168,4.9932,5.0405,5.071,5.1031,5.1569,5.2652,5.2978,5.2398,5.1102,5.0422,5.0422,5.1055,5.1503,5.171,5.1989,5.2688,5.3908,5.5089,5.5859,5.636,5.6428,5.6102,5.5432,5.5305,5.5196,5.4925,5.4418,5.4182,5.4146,5.4128,5.4128,5.4237,5.4671,5.5233,5.5613,5.6138,5.6428,5.6482,5.688,5.7152,5.7188,5.7188,5.7188,5.7188,5.7188,5.7213,5.7282,5.7313,5.7254,5.711,5.6994,5.7031,5.7163,5.7187,5.7302,5.7575,5.7577,5.7349,5.713,5.6102,5.5596,5.5596,5.55,5.5482,5.5372,5.5464,5.5409,5.5427,5.5868,5.6308,5.6381,5.6716,5.6868,5.7084,5.745,5.7356,5.7379,5.7651,5.7692,6.2023,6.0856,6.0588,6.0029,5.9195,5.8246,5.7298,5.645,5.5491,5.4565,5.3882,5.3584,5.3518,5.3518,5.3518,5.3446,5.3306,5.2631,5.1911,5.1269,5.1725,5.1944,5.1995,5.2198,5.2587,5.3095,5.3399,5.3343,5.3017,5.3072,5.2935,5.2538,5.2343,5.2414,5.2391,5.1651,5.1551,5.2085,5.2042,5.2215,5.2788,5.3783,5.4408,5.419,5.2968,5.2217,5.2267,5.2873,5.3324,5.3656,5.3848,5.4465,5.5507,5.575,5.5803,5.5654,5.5649,5.5323,5.4689,5.4762,5.4816,5.4544,5.4291,5.4092,5.4092,5.4092,5.4092,5.4218,5.4526,5.4907,5.4997,5.5359,5.5631,5.574,5.6337,5.679,5.6826,5.7043,5.717,5.7188,5.7188,5.7188,5.7188,5.7188,5.7239,5.7313,5.7338,5.7388,5.7504,5.7553,5.7577,5.7601,5.7679,5.7648,5.7525,5.6864,5.6593,5.6579,5.641,5.6249,5.6047,5.6121,5.6157,5.6198,5.6473,5.6969,5.7373,5.7703,5.7891,5.7983,5.7965,5.7825,5.7964,5.8184,5.8196,6.1516,6.0874,6.1607,6.0431,5.8709,5.8445,5.7729,5.6335,5.5015,5.4408,5.4124,5.3734,5.3518,5.3518,5.3518,5.3517,5.3365,5.2756,5.2029,5.1386,5.1369,5.1403,5.1437,5.2029,5.2317,5.2452,5.3112,5.301,5.2213,5.2316,5.2062,5.152,5.1926,5.2408,5.3174,5.2982,5.3493,5.3751,5.3409,5.3348,5.3551,5.4068,5.4427,5.4444,5.4178,5.4046,5.4215,5.4822,5.4787,5.4437,5.4834,5.4899,5.4255,5.381,5.37,5.4668,5.4882,5.4544,5.3965,5.449,5.4581,5.42,5.4472,5.478,5.4744,5.478,5.478,5.478,5.4834,5.4907,5.4907,5.4979,5.5015,5.5015,5.5703,5.612,5.621,5.6717,5.7188,5.7188,5.7188,5.7188,5.7188,5.7188,5.7213,5.7213,5.7213,5.7282,5.7381,5.7406,5.7455,5.7528,5.7577,5.7601,5.7649,5.766,5.7742,5.778,5.7556,5.7331,5.7029,5.6956,5.6956,5.6997,5.7152,5.7611,5.7611,5.7905,5.7905,5.8001,5.8078,5.8127,5.823,5.8336,5.8648,6.0877,6.0171,5.9946,5.9147,5.7963,5.7495,5.6732,5.5827,5.4813,5.4171,5.3816,5.3584,5.3518,5.3518,5.3518,5.3518,5.3484,5.3213,5.2706,5.208,5.1961,5.1944,5.1995,5.2198,5.2317,5.2334,5.2536,5.2029,5.1234,5.1826,5.1691,5.0811,5.12,5.1619,5.1941,5.2289,5.2706,5.2931,5.3207,5.3271,5.3352,5.3909,5.4431,5.4737,5.3975,5.3672,5.4231,5.4561,5.4548,5.4276,5.4443,5.418,5.3581,5.359,5.3628,5.3544,5.4404,5.4544,5.3947,5.4436,5.4834,5.4635,5.4798,5.4888,5.4907,5.4961,5.4961,5.4943,5.4907,5.4907,5.4907,5.4907,5.4943,5.4907,5.5558,5.6011,5.6138,5.6736,5.7116,5.7188,5.7188,5.7188,5.7188,5.7188,5.7188,5.7188,5.7188,5.7213,5.7239,5.7264,5.7264,5.7313,5.7363,5.7461,5.7486,5.7553,5.7673,5.7768,5.775,5.7755,5.7577,5.7468,5.7546,5.7647,5.7822,5.7918,5.7978,5.7978,5.7978,5.7978,5.8029,5.8097,5.8209,5.8369,5.8605,6.0017,5.9094,5.9254,5.8335,5.698,5.6675,5.6072,5.5186,5.4417,5.3849,5.3534,5.3501,5.3518,5.3518,5.3518,5.3518,5.3518,5.3518,5.323,5.2739,5.2384,5.2317,5.2317,5.2317,5.2503,5.2723,5.2739,5.2114,5.1031,5.1758,5.1691,5.0811,5.0997,5.1378,5.1549,5.1922,5.2344,5.2915,5.2871,5.3053,5.356,5.3775,5.4308,5.4942,5.4373,5.4185,5.4601,5.4504,5.4339,5.4221,5.4208,5.3963,5.3535,5.3588,5.3496,5.3552,5.4172,5.4671,5.4291,5.4907,5.5305,5.5341,5.5577,5.5776,5.5758,5.5758,5.574,5.5758,5.5794,5.5758,5.5758,5.545,5.5323,5.5323,5.5703,5.612,5.641,5.688,5.7152,5.7188,5.7188,5.7188,5.7188,5.7188,5.7188,5.7188,5.7188,5.7188,5.7188,5.7188,5.7188,5.7188,5.7282,5.7332,5.7313,5.7412,5.7528,5.7577,5.7625,5.7673,5.7587,5.7545,5.7564,5.7682,5.7844,5.7914,5.7955,5.7978,5.7978,5.7978,5.7978,5.8047,5.8097,5.8186,5.8326,5.9075,5.7969,5.9239,5.8077,5.5807,5.6329,5.5875,5.455,5.394,5.3619,5.3534,5.3518,5.3518,5.3518,5.3518,5.3518,5.3518,5.3518,5.3501,5.3247,5.2824,5.2503,5.2503,5.2384,5.2621,5.3145,5.3247,5.2841,5.1911,5.2164,5.1928,5.1217,5.1166,5.1471,5.1874,5.2088,5.2693,5.341,5.2784,5.298,5.408,5.3663,5.3914,5.5121,5.501,5.4916,5.4879,5.446,5.4235,5.4209,5.4103,5.398,5.3916,5.339,5.3165,5.3664,5.4464,5.4918,5.5081,5.5649,5.6047,5.612,5.6609,5.7188,5.6971,5.688,5.688,5.6917,5.6953,5.7043,5.688,5.6482,5.6102,5.6047,5.6029,5.6319,5.7025,5.717,5.7188,5.7188,5.7188,5.7188,5.7188,5.7188,5.7188,5.7188,5.7188,5.7188,5.7188,5.7188,5.7188,5.7213,5.7232,5.7257,5.7264,5.7289,5.7406,5.7406,5.748,5.751,5.7577,5.7553,5.7553,5.7697,5.7792,5.7862,5.7909,5.7932,5.7978,5.7978,5.7978,5.7978,5.8024,5.8097,5.8119,5.8659,5.7865,5.829,5.7054,5.5162,5.6182,5.5637,5.3974,5.4194,5.394,5.3602,5.3518,5.3467,5.3518,5.3484,5.3518,5.3467,5.3484,5.3518,5.3484,5.3315,5.3196,5.3044,5.2587,5.2435,5.2672,5.2756,5.2232,5.1589,5.2147,5.1978,5.1251,5.1302,5.1298,5.1471,5.1939,5.2317,5.2775,5.2988,5.3032,5.3411,5.3363,5.3662,5.4332,5.4022,5.3806,5.3849,5.3704,5.3819,5.4122,5.3612,5.332,5.3414,5.2858,5.2846,5.3394,5.4421,5.5266,5.5749,5.641,5.6826,5.6899,5.7025,5.7188,5.7188,5.7188,5.7188,5.7188,5.7188,5.7188,5.7152,5.6971,5.6862,5.6808,5.641,5.6355,5.6989,5.7188,5.7188,5.7188,5.7188,5.7188,5.7188,5.7188,5.7188,5.7188,5.7188,5.7188,5.7188,5.7188,5.7188,5.7188,5.7188,5.7188,5.7213,5.7213,5.7239,5.7257,5.7289,5.7338,5.7388,5.7437,5.7486,5.7583,5.7697,5.7768,5.7857,5.7904,5.795,5.7955,5.7978,5.7978,5.7978,5.8024,5.8047,5.7803,5.7171,5.7524,5.6547,5.5048,5.6059,5.5469,5.4038,5.4122,5.3937,5.3347,5.3246,5.323,5.3246,5.3246,5.3263,5.3246,5.3246,5.3246,5.3246,5.323,5.3298,5.3332,5.2959,5.2807,5.2807,5.279,5.2604,5.2334,5.2621,5.2536,5.2232,5.1843,5.1691,5.1739,5.1905,5.2344,5.2643,5.2843,5.298,5.3618,5.3095,5.3401,5.3979,5.3816,5.3658,5.3763,5.3753,5.4166,5.4728,5.4422,5.4015,5.3987,5.3713,5.3535,5.3695,5.4853,5.5776,5.6155,5.6801,5.717,5.7188,5.7188,5.7188,5.7188,5.7188,5.7188,5.7188,5.7188,5.7188,5.7188,5.7188,5.7188,5.7098,5.6772,5.6699,5.7152,5.7188,5.7188,5.7188,5.7188,5.7188,5.7188,5.7188,5.7188,5.7188,5.7188,5.7188,5.7188,5.7188,5.7188,5.7188,5.7188,5.7188,5.7188,5.7213,5.7213,5.7232,5.7213,5.7239,5.7264,5.7338,5.7388,5.7486,5.7577,5.7673,5.7745,5.781,5.7881,5.7904,5.795,5.7997,5.7978,5.7978,5.7978,5.6921,5.6385,5.7022,5.6503,5.5465,5.6,5.5484,5.4192,5.4177,5.3742,5.3089,5.2903,5.2938,5.2903,5.2972,5.2903,5.2886,5.2972,5.2938,5.2938,5.2972,5.3093,5.3348,5.3281,5.3213,5.3264,5.3416,5.3298,5.3112,5.3281,5.3382,5.3045,5.2605,5.2436,5.2383,5.2372,5.2637,5.3021,5.2752,5.3072,5.3695,5.3219,5.3234,5.3945,5.4141,5.4118,5.4207,5.4308,5.4695,5.5981,5.5618,5.5332,5.5338,5.5391,5.5029,5.4683,5.5378,5.6049,5.6357,5.6835,5.7188,5.7188,5.7188,5.7188,5.7188,5.7188,5.7188,5.7188,5.7188,5.7188,5.7188,5.7188,5.7188,5.717,5.7152,5.717,5.7188,5.7188,5.7188,5.7188,5.7188,5.7188,5.7188,5.7188,5.7188,5.7188,5.7188,5.7188,5.7188,5.7188,5.7188,5.7188,5.7188,5.7188,5.7188,5.7188,5.7188,5.7188,5.7188,5.7213,5.7213,5.7239,5.7289,5.7338,5.748,5.7528,5.7577,5.7649,5.7745,5.7857,5.7886,5.7932,5.7997,5.7978,5.7978,5.7189,5.7072,5.7222,5.6787,5.6168,5.672,5.59,5.409,5.4592,5.4056,5.3121,5.2868,5.2868,5.2868,5.2868,5.2903,5.2885,5.2902,5.2903,5.2903,5.2903,5.2938,5.3074,5.3141,5.3057,5.3075,5.3058,5.3058,5.3058,5.3109,5.3024,5.3008,5.301,5.2994,5.296,5.2992,5.3243,5.3429,5.3225,5.3275,5.3547,5.3448,5.3314,5.375,5.3717,5.3979,5.4203,5.3963,5.4076,5.4672,5.5189,5.5502,5.5733,5.5189,5.4857,5.5069,5.5243,5.5709,5.6266,5.6785,5.7188,5.7188,5.7188,5.7188,5.7188,5.7188,5.7188,5.7188,5.7188,5.7188,5.7188,5.7188,5.7188,5.7188,5.7188,5.7188,5.7188,5.7188,5.7188,5.7188,5.7188,5.7188,5.7188,5.7188,5.7188,5.7188,5.7188,5.7188,5.7188,5.7188,5.7188,5.7188,5.7188,5.7188,5.7188,5.7188,5.7188,5.7188,5.7188,5.7188,5.7188,5.7188,5.7239,5.7289,5.7356,5.7406,5.7437,5.7553,5.7649,5.7745,5.7815,5.7886,5.7932,5.7955,5.7978,5.7025,5.7025,5.7025,5.6808,5.6521,5.6825,5.5938,5.4539,5.4622,5.4025,5.2892,5.2676,5.2676,5.2676,5.2676,5.264,5.274,5.299,5.3123,5.324,5.3456,5.3673,5.3656,5.3575,5.3461,5.3068,5.3305,5.3255,5.3071,5.3186,5.3271,5.292,5.304,5.2991,5.3041,5.3161,5.3179,5.323,5.3314,5.3348,5.3348,5.3467,5.3518,5.3518,5.3501,5.3701,5.3898,5.3701,5.3865,5.4313,5.4765,5.5219,5.5705,5.5249,5.4978,5.4887,5.49,5.5184,5.5848,5.642,5.6889,5.7163,5.7188,5.7188,5.7188,5.7188,5.7188,5.7188,5.7188,5.7188,5.7188,5.7188,5.7188,5.7188,5.7188,5.7188,5.7188,5.7188,5.7188,5.7188,5.7188,5.7188,5.7188,5.7188,5.7188,5.7188,5.7188,5.7188,5.7188,5.7188,5.7188,5.7188,5.7188,5.7188,5.7188,5.7188,5.7188,5.7188,5.7188,5.7188,5.7188,5.7188,5.7188,5.7239,5.7307,5.7264,5.7313,5.7412,5.7528,5.7577,5.7673,5.7792,5.7886,5.7932,5.7955,5.6697,5.6697,5.6697,5.6697,5.668,5.6586,5.5757,5.4593,5.4357,5.3586,5.2591,5.2409,5.2445,5.2426,5.2591,5.2625,5.294,5.3288,5.3656,5.3685,5.4083,5.4266,5.4332,5.4253,5.403,5.3248,5.3732,5.3699,5.3532,5.3684,5.3747,5.3267,5.3034,5.3153,5.3086,5.292,5.2938,5.2972,5.3076,5.3144,5.3161,5.3314,5.3348,5.3433,5.3433,5.3467,5.3601,5.3568,5.3734,5.4218,5.4328,5.4703,5.5087,5.5355,5.5099,5.4516,5.461,5.4887,5.5308,5.5932,5.6573,5.7043,5.7344,5.7406,5.7424,5.7478,5.7496,5.7406,5.7369,5.7188,5.7188,5.7188,5.7188,5.7188,5.7188,5.7188,5.7188,5.7188,5.7188,5.7188,5.7188,5.7188,5.7188,5.7188,5.7188,5.7188,5.7188,5.7188,5.7188,5.7188,5.7188,5.7188,5.7188,5.7188,5.7188,5.7188,5.7188,5.7188,5.7188,5.7188,5.7188,5.7188,5.7188,5.7188,5.7213,5.7213,5.7213,5.7313,5.7381,5.7431,5.7553,5.7721,5.7815,5.7909,5.7955,5.6697,5.6697,5.6697,5.6697,5.6597,5.6067,5.5301,5.4456,5.3861,5.3169,5.2489,5.2426,5.2475,5.2572,5.3053,5.3549,5.393,5.4212,5.4291,5.4307,5.4589,5.4709,5.4759,5.4792,5.4514,5.4315,5.4472,5.4442,5.419,5.4336,5.4309,5.416,5.377,5.3575,5.3428,5.3183,5.3051,5.3084,5.3087,5.3055,5.3207,5.3293,5.3313,5.3398,5.3433,5.345,5.3467,5.3501,5.3551,5.3684,5.4106,5.4408,5.4676,5.5091,5.5018,5.4641,5.472,5.483,5.493,5.5653,5.6201,5.6671,5.7493,5.8089,5.8133,5.8184,5.8148,5.7913,5.755,5.7188,5.7188,5.7188,5.7188,5.7188,5.7188,5.7188,5.7188,5.7188,5.7188,5.7188,5.7188,5.7188,5.7188,5.7188,5.7188,5.7188,5.7188,5.7188,5.7188,5.7188,5.7188,5.7188,5.7188,5.7188,5.7188,5.7188,5.7188,5.7188,5.7188,5.7188,5.7188,5.7188,5.7188,5.7188,5.7188,5.7188,5.7213,5.7257,5.7289,5.7338,5.7504,5.7673,5.7745,5.7839,5.795,5.6697,5.6697,5.6697,5.6697,5.6564,5.5935,5.5168,5.446,5.3748,5.3235,5.2986,5.292,5.3152,5.35,5.3798,5.4192,5.449,5.4936,5.5019,5.5123,5.5438,5.5653,5.5587,5.5603,5.5636,5.5636,5.5636,5.5156,5.4589,5.4924,5.4854,5.4477,5.424,5.4143,5.4094,5.3897,5.3704,5.3673,5.3461,5.3515,5.3833,5.4025,5.4067,5.3835,5.3803,5.372,5.3365,5.3467,5.3501,5.3568,5.3783,5.3931,5.4261,5.4753,5.5137,5.4609,5.4526,5.473,5.4908,5.565,5.6139,5.7022,5.7955,5.8439,5.861,5.8744,5.8828,5.8329,5.7695,5.7188,5.7188,5.7188,5.7188,5.7188,5.7188,5.7188,5.7188,5.7188,5.7188,5.7188,5.7188,5.7188,5.7188,5.7188,5.7188,5.7188,5.7188,5.7188,5.7188,5.7188,5.7188,5.7188,5.7188,5.7188,5.7188,5.7188,5.7188,5.7188,5.7188,5.7188,5.7188,5.7188,5.7188,5.7188,5.7188,5.7188,5.7188,5.7213,5.7239,5.7289,5.7412,5.7553,5.7673,5.7792,5.7904,5.6697,5.668,5.6531,5.6564,5.6531,5.5752,5.5173,5.4622,5.3943,5.3665,5.3632,5.3665,5.391,5.4427,5.4659,5.4825,5.499,5.5653,5.5802,5.5918,5.6282,5.663,5.6663,5.6697,5.6547,5.6415,5.6465,5.6084,5.5438,5.5587,5.54,5.5189,5.4924,5.4705,5.4709,5.4481,5.4576,5.4365,5.4107,5.4216,5.4672,5.5024,5.4986,5.4487,5.456,5.4274,5.392,5.3955,5.4058,5.4075,5.4093,5.4042,5.4161,5.4938,5.5218,5.4722,5.4292,5.4766,5.5206,5.577,5.6313,5.7073,5.8136,5.8585,5.9023,5.9357,5.947,5.8546,5.7931,5.7369,5.7261,5.7188,5.7188,5.7188,5.7188,5.7188,5.7188,5.7188,5.7188,5.7188,5.7188,5.7188,5.7188,5.7188,5.7188,5.7188,5.7188,5.7188,5.7188,5.7188,5.7188,5.7188,5.7188,5.7188,5.7188,5.7188,5.7188,5.7188,5.7188,5.7188,5.7188,5.7188,5.7188,5.7188,5.7188,5.7188,5.7188,5.7188,5.7213,5.7264,5.7338,5.7431,5.7553,5.7697,5.7839,5.6697,5.6614,5.6001,5.61,5.6415,5.5239,5.5024,5.5317,5.4605,5.4341,5.4394,5.4394,5.444,5.4775,5.5251,5.5819,5.6249,5.6365,5.6432,5.6465,5.6614,5.6697,5.6697,5.6697,5.6697,5.6697,5.6697,5.663,5.6282,5.6365,5.6465,5.6183,5.5703,5.545,5.5438,5.5073,5.4527,5.4543,5.4477,5.4514,5.4651,5.4754,5.4835,5.4812,5.4818,5.4845,5.4823,5.4843,5.4999,5.5242,5.5326,5.5394,5.548,5.5531,5.5652,5.5706,5.586,5.608,5.5894,5.6115,5.6485,5.7159,5.8037,5.8941,5.952,5.9939,5.9853,5.8546,5.8239,5.784,5.7333,5.7206,5.7188,5.7188,5.7188,5.7188,5.7188,5.7188,5.7188,5.7188,5.7188,5.7188,5.7188,5.7188,5.7188,5.7188,5.7188,5.7188,5.7188,5.7188,5.7188,5.7188,5.7188,5.7188,5.7188,5.7188,5.7188,5.7188,5.7188,5.7188,5.7188,5.7188,5.7188,5.7188,5.7188,5.7188,5.7188,5.7188,5.7188,5.7213,5.7307,5.7356,5.7406,5.7577,5.7726,5.6084,5.6067,5.5714,5.5747,5.5935,5.4957,5.4903,5.5317,5.4821,5.4721,5.5052,5.5102,5.5355,5.5703,5.6133,5.6365,5.6647,5.6697,5.6697,5.6697,5.6697,5.6697,5.6697,5.6697,5.6697,5.6697,5.6697,5.6697,5.6697,5.6697,5.6697,5.663,5.6398,5.6216,5.615,5.5901,5.5802,5.5769,5.5719,5.5596,5.5468,5.5622,5.5726,5.5471,5.5512,5.5422,5.5191,5.5202,5.531,5.5505,5.554,5.5576,5.58,5.6055,5.6325,5.6395,5.6946,5.6964,5.6499,5.6608,5.69,5.7432,5.8269,5.9102,5.9761,6.007,5.9885,5.8654,5.8454,5.8032,5.7442,5.7206,5.7188,5.7188,5.7138,5.7138,5.7138,5.7188,5.7188,5.7188,5.7188,5.7188,5.7188,5.7188,5.7188,5.7188,5.7188,5.7188,5.7188,5.7188,5.7188,5.7188,5.7188,5.7188,5.7188,5.7188,5.7188,5.7188,5.7188,5.7188,5.7188,5.7188,5.7188,5.7188,5.7188,5.7188,5.7188,5.7188,5.7188,5.7213,5.7257,5.7307,5.7356,5.7412,5.7583,5.5483,5.5301,5.5118,5.5234,5.5516,5.4804,5.5019,5.5786,5.5355,5.5405,5.5769,5.5863,5.62,5.6581,5.663,5.663,5.668,5.6697,5.6697,5.6697,5.6697,5.6697,5.6697,5.6697,5.6697,5.6697,5.6697,5.6697,5.6697,5.6697,5.6697,5.6697,5.663,5.663,5.6663,5.6564,5.6498,5.6498,5.6514,5.6376,5.6203,5.6523,5.644,5.63,5.6158,5.6033,5.5492,5.5532,5.5749,5.5912,5.6107,5.6246,5.6404,5.6797,5.7053,5.7137,5.7567,5.7584,5.7224,5.7175,5.7391,5.7897,5.8493,5.9108,5.9569,5.9774,5.9779,5.9063,5.8862,5.8342,5.7695,5.7387,5.7188,5.7112,5.7036,5.701,5.6984,5.6941,5.6915,5.6863,5.6941,5.7188,5.7188,5.7188,5.7188,5.7188,5.7188,5.7188,5.7188,5.7188,5.7188,5.7188,5.7188,5.7188,5.7188,5.7188,5.7188,5.7188,5.7188,5.7188,5.7188,5.7188,5.7188,5.7188,5.7188,5.7188,5.7188,5.7188,5.7188,5.7213,5.7213,5.7282,5.7307,5.7363,5.7486,5.5185,5.4506,5.3881,5.4357,5.5516,5.4787,5.5338,5.6481,5.6481,5.6448,5.6498,5.6581,5.6564,5.668,5.6697,5.6697,5.6697,5.6697,5.6697,5.6697,5.6697,5.6697,5.6697,5.6697,5.6697,5.6697,5.6697,5.6697,5.6697,5.6697,5.6697,5.6697,5.6697,5.6697,5.6697,5.6697,5.6697,5.6697,5.6697,5.668,5.6569,5.6707,5.6674,5.6636,5.6658,5.6679,5.6804,5.6637,5.6684,5.6837,5.6952,5.7116,5.7156,5.7417,5.7575,5.7695,5.7746,5.778,5.7645,5.7628,5.7763,5.8048,5.8388,5.8806,5.8994,6.0215,6.0321,5.9556,5.9217,5.8978,5.8324,5.775,5.746,5.7319,5.7147,5.6732,5.6661,5.6528,5.6501,5.6519,5.6679,5.6941,5.7188,5.7188,5.7188,5.7188,5.7188,5.7188,5.7188,5.7188,5.7188,5.7188,5.7188,5.7188,5.7188,5.7188,5.7188,5.7188,5.7188,5.7188,5.7188,5.7188,5.7188,5.7188,5.7188,5.7188,5.7188,5.7188,5.7188,5.7188,5.7213,5.7257,5.7332,5.7388,5.7534,5.4738,5.4444,5.3715,5.396,5.4957,5.5085,5.5769,5.6581,5.6697,5.6697,5.6697,5.6697,5.6697,5.6697,5.6697,5.6697,5.6697,5.6697,5.6697,5.6697,5.6697,5.6697,5.6697,5.6697,5.6697,5.6697,5.6697,5.6697,5.6697,5.6697,5.6697,5.6697,5.6697,5.6697,5.6697,5.6697,5.6697,5.6697,5.6697,5.6697,5.6697,5.6697,5.6697,5.6697,5.6697,5.6735,5.6762,5.6779,5.6932,5.7063,5.7214,5.7364,5.7551,5.7662,5.7772,5.7862,5.7881,5.7881,5.7881,5.7881,5.7881,5.7918,5.8137,5.8334,5.8388,5.923,5.9225,5.8966,5.929,5.9235,5.8599,5.8185,5.7967,5.7771,5.7374,5.6788,5.6393,5.6257,5.6201,5.6257,5.6447,5.6732,5.6966,5.7188,5.7188,5.7188,5.7188,5.7188,5.7188,5.7188,5.7188,5.7188,5.7188,5.7188,5.7188,5.7188,5.7188,5.7188,5.7188,5.7188,5.7188,5.7188,5.7188,5.7188,5.7188,5.7188,5.7188,5.7188,5.7188,5.7188,5.7188,5.7188,5.7289,5.7412,5.7534,5.4291,5.4423,5.3964,5.401,5.4556,5.5267,5.6017,5.6614,5.6697,5.6697,5.6697,5.6697,5.6697,5.6697,5.6697,5.6697,5.6697,5.6697,5.6697,5.6697,5.6697,5.6697,5.6697,5.6697,5.6697,5.6697,5.6697,5.6697,5.6697,5.6697,5.6697,5.6697,5.6697,5.6697,5.6697,5.6697,5.6697,5.6697,5.6697,5.6697,5.6697,5.6697,5.6697,5.6697,5.6697,5.6697,5.6735,5.6719,5.6796,5.6872,5.6987,5.716,5.7327,5.7514,5.7625,5.7735,5.7825,5.7845,5.7881,5.7881,5.7881,5.7918,5.7918,5.7937,5.8046,5.8476,5.8768,5.8472,5.9015,5.9254,5.8627,5.845,5.789,5.7503,5.7505,5.7002,5.6354,5.6063,5.5989,5.5989,5.6339,5.6785,5.6758,5.701,5.7188,5.7188,5.7188,5.7188,5.7188,5.7188,5.7188,5.7188,5.7188,5.7188,5.7188,5.7188,5.7188,5.7188,5.7188,5.7188,5.7188,5.7188,5.7188,5.7188,5.7188,5.7188,5.7188,5.7188,5.7188,5.7188,5.7188,5.7188,5.7239,5.7381,5.7504,5.3844,5.4494,5.4477,5.4456,5.4692,5.5301,5.6051,5.6647,5.6697,5.6697,5.6697,5.6697,5.6697,5.6697,5.6697,5.6697,5.6697,5.6697,5.6697,5.6697,5.6697,5.6697,5.6697,5.6697,5.6697,5.6697,5.6697,5.6697,5.6697,5.6697,5.6697,5.6697,5.6697,5.6697,5.6697,5.6697,5.6697,5.6697,5.6697,5.6697,5.6697,5.6697,5.6697,5.6697,5.6697,5.6697,5.6697,5.6697,5.6719,5.6757,5.6872,5.6987,5.7101,5.7252,5.7402,5.7588,5.7625,5.7698,5.7881,5.7881,5.7881,5.7881,5.7881,5.7881,5.801,5.8423,5.8737,5.8376,5.8835,5.8938,5.8748,5.8609,5.7919,5.7548,5.7545,5.7072,5.6375,5.5865,5.5791,5.5989,5.6555,5.701,5.6811,5.6811,5.7087,5.7188,5.7188,5.7188,5.7188,5.7188,5.7188,5.7188,5.7188,5.7188,5.7188,5.7188,5.7188,5.7188,5.7188,5.7188,5.7188,5.7188,5.7188,5.7188,5.7188,5.7188,5.7188,5.7188,5.7188,5.7188,5.7188,5.7188,5.7257,5.7332,5.7455,5.3831,5.4527,5.4527,5.4771,5.5322,5.6034,5.6481,5.6663,5.6697,5.6697,5.6697,5.6697,5.6697,5.6697,5.6697,5.6697,5.6697,5.6697,5.6697,5.6697,5.6697,5.6697,5.6697,5.6697,5.6697,5.6697,5.6697,5.6697,5.6697,5.6697,5.6697,5.6697,5.6697,5.6697,5.6697,5.6697,5.6697,5.6697,5.6697,5.6697,5.6697,5.6697,5.6697,5.6697,5.6697,5.6697,5.6697,5.6697,5.6697,5.6697,5.6796,5.6872,5.6949,5.7101,5.716,5.7385,5.7514,5.7698,5.7845,5.7881,5.7881,5.7881,5.7881,5.7881,5.7991,5.8082,5.8192,5.837,5.8616,5.8712,5.8859,5.8798,5.833,5.8,5.7705,5.6883,5.6205,5.5793,5.5647,5.6035,5.6546,5.6915,5.6915,5.6889,5.7112,5.7188,5.7188,5.7188,5.7188,5.7188,5.7188,5.7188,5.7188,5.7188,5.7188,5.7188,5.7188,5.7188,5.7188,5.7188,5.7188,5.7188,5.7188,5.7188,5.7188,5.7188,5.7188,5.7188,5.7188,5.7188,5.7188,5.7188,5.7213,5.7307,5.7406,5.3632,5.4477,5.4527,5.5106,5.5984,5.6498,5.6697,5.6697,5.6697,5.6697,5.6697,5.6697,5.6697,5.6697,5.6697,5.6697,5.6697,5.6697,5.6697,5.6697,5.6697,5.6697,5.6697,5.6697,5.6697,5.6697,5.6697,5.6697,5.6697,5.6697,5.6697,5.6697,5.6697,5.6697,5.6697,5.6697,5.6697,5.6697,5.6697,5.6697,5.6697,5.6697,5.6697,5.6697,5.6697,5.6697,5.6697,5.6697,5.6697,5.6697,5.6719,5.6757,5.6872,5.6911,5.6987,5.7176,5.746,5.7625,5.7735,5.7881,5.7881,5.7881,5.7881,5.7881,5.7881,5.7937,5.7937,5.8101,5.8388,5.8476,5.8582,5.8553,5.8494,5.8132,5.761,5.6781,5.6165,5.5752,5.5753,5.6169,5.6546,5.6863,5.7069,5.7112,5.7188,5.7188,5.7188,5.7188,5.7188,5.7188,5.7188,5.7188,5.7188,5.7188,5.7188,5.7188,5.7188,5.7188,5.7188,5.7188,5.7188,5.7188,5.7188,5.7188,5.7188,5.7188,5.7188,5.7188,5.7188,5.7188,5.7188,5.7188,5.7188,5.7239,5.7356,5.3235,5.4427,5.4527,5.5338,5.6531,5.6663,5.6697,5.6697,5.6697,5.6697,5.6697,5.6697,5.6697,5.6697,5.6697,5.6697,5.6697,5.6697,5.6697,5.6697,5.6697,5.6697,5.6697,5.6697,5.6697,5.6697,5.6697,5.6697,5.6697,5.6697,5.6697,5.6697,5.6697,5.6697,5.6697,5.6697,5.6697,5.6697,5.6697,5.6697,5.6697,5.6697,5.6697,5.6697,5.6697,5.6697,5.6697,5.6697,5.6697,5.6697,5.6697,5.6697,5.6735,5.6697,5.6834,5.7063,5.7348,5.7476,5.7604,5.7735,5.7808,5.7808,5.7845,5.7881,5.7881,5.7881,5.7881,5.7881,5.8065,5.801,5.798,5.8131,5.8256,5.7887,5.7506,5.6857,5.6189,5.5968,5.6041,5.636,5.6786,5.7061,5.7138,5.7188,5.7188,5.7188,5.7188,5.7188,5.7188,5.7188,5.7188,5.7188,5.7188,5.7188,5.7188,5.7188,5.7188,5.7188,5.7188,5.7188,5.7188,5.7188,5.7188,5.7188,5.7188,5.7188,5.7188,5.7188,5.7188,5.7188,5.7188,5.7188,5.7188,5.7188,5.7264,5.3235,5.4477,5.4527,5.5355,5.6581,5.6697,5.6697,5.6697,5.6697,5.6697,5.6697,5.6697,5.6697,5.6697,5.6697,5.6697,5.6697,5.6697,5.6697,5.6713,5.6812,5.673,5.673,5.6779,5.673,5.6713,5.6713,5.6697,5.6697,5.6697,5.6697,5.6697,5.6697,5.6697,5.6697,5.6697,5.6697,5.6697,5.6697,5.6697,5.6697,5.6697,5.6697,5.6697,5.6697,5.6697,5.6697,5.6697,5.6697,5.6697,5.6697,5.6697,5.6697,5.668,5.6796,5.6987,5.7139,5.7214,5.7364,5.7439,5.7534,5.7662,5.7698,5.7772,5.7845,5.7881,5.7881,5.7881,5.7881,5.7881,5.7881,5.7999,5.8045,5.781,5.7429,5.6947,5.6407,5.6534,5.6598,5.6726,5.7154,5.7036,5.7112,5.7188,5.7188,5.7188,5.7188,5.7188,5.7188,5.7188,5.7188,5.7188,5.7188,5.7188,5.7188,5.7188,5.7188,5.7188,5.7188,5.7188,5.7188,5.7188,5.7188,5.7188,5.7188,5.7188,5.7188,5.7188,5.7188,5.7188,5.7188,5.7188,5.7188,5.7188,5.7188,5.3467,5.4473,5.4804,5.5636,5.6564,5.6697,5.6697,5.6697,5.6697,5.6697,5.6697,5.6697,5.6697,5.6697,5.6697,5.6697,5.6697,5.6713,5.6829,5.7193,5.7127,5.7425,5.7425,5.7243,5.7177,5.7061,5.6846,5.6697,5.6697,5.6697,5.6697,5.6697,5.6697,5.6697,5.6697,5.6697,5.6697,5.6697,5.6697,5.6697,5.6697,5.6697,5.6697,5.6697,5.6697,5.6697,5.6697,5.6697,5.6697,5.6697,5.6697,5.6697,5.6697,5.668,5.6719,5.6872,5.6987,5.7063,5.7176,5.7273,5.7364,5.7476,5.7551,5.7662,5.7772,5.7845,5.7881,5.7881,5.7881,5.7881,5.7881,5.7903,5.7867,5.7807,5.7395,5.6985,5.7019,5.7149,5.7193,5.7256,5.72,5.7051,5.7043,5.7138,5.7188,5.7188,5.7188,5.7188,5.7188,5.7188,5.7188,5.7188,5.7188,5.7188,5.7188,5.7188,5.7188,5.7188,5.7188,5.7188,5.7188,5.7188,5.7188,5.7188,5.7188,5.7188,5.7188,5.7188,5.7188,5.7188,5.7188,5.7188,5.7188,5.7188,5.7188,5.3794,5.4593,5.535,5.6084,5.6647,5.6697,5.6697,5.6697,5.6697,5.6697,5.6697,5.6697,5.6697,5.6697,5.6697,5.6697,5.6763,5.6846,5.721,5.7806,5.7889,5.8121,5.8287,5.822,5.7806,5.7541,5.726,5.6912,5.673,5.6697,5.6697,5.6697,5.6697,5.6697,5.6697,5.6697,5.6697,5.6697,5.6697,5.6697,5.6697,5.6697,5.6697,5.6697,5.6697,5.6697,5.6697,5.6697,5.6697,5.6697,5.6697,5.6697,5.6697,5.6697,5.6735,5.6774,5.6872,5.6927,5.6987,5.7101,5.7176,5.7327,5.7439,5.7551,5.7625,5.7808,5.7881,5.7881,5.7881,5.7881,5.7881,5.7881,5.7859,5.7814,5.7522,5.7148,5.6934,5.7012,5.6978,5.7016,5.7009,5.6885,5.7094,5.7188,5.7188,5.7188,5.7188,5.7188,5.7188,5.7188,5.7188,5.7188,5.7188,5.7188,5.7188,5.7188,5.7188,5.7188,5.7188,5.7188,5.7188,5.7188,5.7188,5.7188,5.7188,5.7188,5.7188,5.7188,5.7188,5.7188,5.7188,5.7188,5.7188,5.7188,5.7188,5.3811,5.4589,5.5901,5.6547,5.668,5.6697,5.668,5.6697,5.6697,5.6641,5.668,5.668,5.6641,5.6586,5.6552,5.6568,5.6735,5.7113,5.7591,5.8071,5.8386,5.8817,5.8933,5.8817,5.8386,5.7906,5.7525,5.7193,5.6879,5.6763,5.6697,5.6697,5.6697,5.6697,5.6697,5.6697,5.6697,5.6697,5.6697,5.6697,5.6697,5.6697,5.6697,5.6697,5.6697,5.6697,5.6697,5.6697,5.6697,5.6697,5.6697,5.6697,5.6697,5.6697,5.6697,5.6719,5.6757,5.6796,5.6851,5.6872,5.6949,5.7063,5.7176,5.7364,5.7551,5.7772,5.7881,5.7881,5.7881,5.7881,5.7881,5.7881,5.7865,5.778,5.7695,5.7273,5.685,5.6746,5.6662,5.6663,5.6712,5.6859,5.7039,5.7188,5.7188,5.7188,5.7188,5.7188,5.7188,5.7188,5.7188,5.7188,5.7188,5.7188,5.7188,5.7188,5.7188,5.7188,5.7188,5.7188,5.7188,5.7188,5.7188,5.7188,5.7188,5.7188,5.7188,5.7188,5.7188,5.7188,5.7188,5.7188,5.7188,5.7188,5.7188,5.3815,5.4655,5.6084,5.6469,5.6106,5.6067,5.6067,5.6083,5.6083,5.6083,5.6067,5.6067,5.6067,5.6063,5.5978,5.6342,5.661,5.7289,5.8164,5.8762,5.9115,5.9595,5.9645,5.9529,5.9264,5.8784,5.8005,5.7508,5.7193,5.6779,5.6697,5.6713,5.6713,5.6697,5.6697,5.6697,5.6697,5.6697,5.6697,5.6697,5.6697,5.6697,5.6697,5.6697,5.6697,5.6697,5.6697,5.6697,5.6697,5.6697,5.6697,5.6697,5.6697,5.6697,5.6697,5.6697,5.6719,5.6697,5.6697,5.6719,5.6757,5.6834,5.6987,5.7214,5.7402,5.7625,5.7808,5.7845,5.7881,5.7881,5.7881,5.7881,5.7881,5.7831,5.7729,5.7476,5.685,5.6387,5.624,5.6092,5.617,5.6233,5.6555,5.7112,5.7112,5.7188,5.7188,5.7188,5.7188,5.7188,5.7188,5.7188,5.7188,5.7188,5.7188,5.7188,5.7188,5.7188,5.7188,5.7188,5.7188,5.7188,5.7188,5.7188,5.7188,5.7188,5.7188,5.7188,5.7188,5.7188,5.7188,5.7188,5.7188,5.7188,5.7188,5.3935,5.4769,5.5996,5.5988,5.5231,5.5133,5.5149,5.5133,5.5133,5.5133,5.514,5.5097,5.5138,5.5172,5.5144,5.5687,5.6427,5.7388,5.8516,5.9325,5.9944,6.0283,6.0456,6.0423,6.0042,5.9413,5.8618,5.822,5.7939,5.7392,5.6978,5.6846,5.6746,5.6697,5.6697,5.6697,5.6697,5.6697,5.6697,5.6697,5.6697,5.6697,5.6697,5.6697,5.6697,5.6697,5.6697,5.6697,5.6697,5.6697,5.6697,5.6697,5.6697,5.6697,5.6697,5.6697,5.6697,5.6697,5.6697,5.6697,5.6735,5.6757,5.6911,5.7063,5.7252,5.7439,5.7625,5.7772,5.7808,5.7881,5.7881,5.7881,5.7881,5.7814,5.7729,5.7662,5.6934,5.6158,5.5826,5.5635,5.5666,5.5736,5.6101,5.6688,5.6984,5.7087,5.7188,5.7188,5.7188,5.7188,5.7188,5.7188,5.7188,5.7188,5.7188,5.7188,5.7188,5.7188,5.7188,5.7188,5.7188,5.7188,5.7188,5.7188,5.7188,5.7188,5.7188,5.7188,5.7188,5.7188,5.7188,5.7188,5.7188,5.7188,5.7188,5.4623,5.5181,5.5474,5.5067,5.4317,5.4274,5.4232,5.4232,5.4232,5.4216,5.4236,5.4113,5.4288,5.503,5.5039,5.5447,5.6172,5.7407,5.8173,5.8792,6.0015,6.0704,6.0861,6.0496,6.0465,5.9893,5.9231,5.8817,5.8585,5.7988,5.7591,5.7591,5.6879,5.6746,5.6713,5.6713,5.6697,5.6697,5.6697,5.6697,5.6697,5.6697,5.6697,5.6697,5.6697,5.6697,5.6697,5.6697,5.6697,5.6697,5.6697,5.6697,5.6697,5.6697,5.6697,5.6697,5.6697,5.6697,5.6697,5.6697,5.6697,5.6697,5.6834,5.6872,5.7063,5.7252,5.7439,5.7571,5.7662,5.7735,5.7772,5.7881,5.7881,5.7712,5.7594,5.7577,5.7239,5.621,5.5468,5.5375,5.5381,5.5423,5.5502,5.6045,5.6528,5.6714,5.7043,5.7112,5.7188,5.7188,5.7188,5.7188,5.7188,5.7188,5.7188,5.7188,5.7188,5.7188,5.7188,5.7188,5.7188,5.7188,5.7188,5.7188,5.7188,5.7188,5.7188,5.7188,5.7188,5.7188,5.7188,5.7188,5.7188,5.7188,5.7188]}]]